<?xml version="1.0" encoding="UTF-8"?><gpx xmlns="http://www.topografix.com/GPX/1/1" xmlns:xsi="http://www.w3.org/2001/XMLSchema-instance" creator="Geolives" version="1.1" xsi:schemaLocation="http://www.topografix.com/GPX/1/1 http://www.topografix.com/GPX/1/1/gpx.xsd">
<metadata>
<name><![CDATA[SityTrail - 20260901 Blainville crevon]]></name>
<desc/>
</metadata>
<trk>
<name><![CDATA[SityTrail - 20260901 Blainville crevon]]></name>
<desc/>
<trkseg>
<trkpt lat="49.5043532" lon="1.2976861">
<ele>102.0</ele>
<time>2026-09-01T11:48:13.108Z</time>
</trkpt>
<trkpt lat="49.5043782" lon="1.2976837">
<ele>102.0</ele>
<time>2026-09-01T11:56:34.115Z</time>
</trkpt>
<trkpt lat="49.5043654" lon="1.2976503">
<ele>102.0</ele>
<time>2026-09-01T11:56:39.125Z</time>
</trkpt>
<trkpt lat="49.5043531" lon="1.2976219">
<ele>104.0</ele>
<time>2026-09-01T11:56:44.122Z</time>
</trkpt>
<trkpt lat="49.5043346" lon="1.2975702">
<ele>104.0</ele>
<time>2026-09-01T11:56:49.118Z</time>
</trkpt>
<trkpt lat="49.5042914" lon="1.2975234">
<ele>102.0</ele>
<time>2026-09-01T11:56:53.978Z</time>
</trkpt>
<trkpt lat="49.5042422" lon="1.2975064">
<ele>102.0</ele>
<time>2026-09-01T11:56:58.238Z</time>
</trkpt>
<trkpt lat="49.5041977" lon="1.2975563">
<ele>102.0</ele>
<time>2026-09-01T11:57:02.517Z</time>
</trkpt>
<trkpt lat="49.5041616" lon="1.2976127">
<ele>102.0</ele>
<time>2026-09-01T11:57:06.657Z</time>
</trkpt>
<trkpt lat="49.5041225" lon="1.29766">
<ele>101.0</ele>
<time>2026-09-01T11:57:10.877Z</time>
</trkpt>
<trkpt lat="49.5040894" lon="1.2977032">
<ele>101.0</ele>
<time>2026-09-01T11:57:15.117Z</time>
</trkpt>
<trkpt lat="49.504047" lon="1.2977361">
<ele>101.0</ele>
<time>2026-09-01T11:57:19.515Z</time>
</trkpt>
<trkpt lat="49.5040093" lon="1.2977576">
<ele>101.0</ele>
<time>2026-09-01T11:57:23.963Z</time>
</trkpt>
<trkpt lat="49.5039686" lon="1.2977759">
<ele>101.0</ele>
<time>2026-09-01T11:57:28.322Z</time>
</trkpt>
<trkpt lat="49.5039292" lon="1.2978053">
<ele>101.0</ele>
<time>2026-09-01T11:57:32.621Z</time>
</trkpt>
<trkpt lat="49.5038934" lon="1.2978526">
<ele>101.0</ele>
<time>2026-09-01T11:57:36.880Z</time>
</trkpt>
<trkpt lat="49.5038531" lon="1.2978976">
<ele>101.0</ele>
<time>2026-09-01T11:57:41.110Z</time>
</trkpt>
<trkpt lat="49.5038035" lon="1.2979263">
<ele>100.0</ele>
<time>2026-09-01T11:57:45.895Z</time>
</trkpt>
<trkpt lat="49.5037618" lon="1.2979704">
<ele>100.0</ele>
<time>2026-09-01T11:57:50.055Z</time>
</trkpt>
<trkpt lat="49.5037213" lon="1.2980265">
<ele>101.0</ele>
<time>2026-09-01T11:57:54.076Z</time>
</trkpt>
<trkpt lat="49.5036886" lon="1.2980914">
<ele>101.0</ele>
<time>2026-09-01T11:57:58.376Z</time>
</trkpt>
<trkpt lat="49.5036544" lon="1.2981499">
<ele>101.0</ele>
<time>2026-09-01T11:58:03.042Z</time>
</trkpt>
<trkpt lat="49.5036133" lon="1.2982138">
<ele>100.0</ele>
<time>2026-09-01T11:58:07.560Z</time>
</trkpt>
<trkpt lat="49.5035764" lon="1.2982794">
<ele>100.0</ele>
<time>2026-09-01T11:58:12.117Z</time>
</trkpt>
<trkpt lat="49.5035451" lon="1.2983389">
<ele>100.0</ele>
<time>2026-09-01T11:58:16.237Z</time>
</trkpt>
<trkpt lat="49.503516" lon="1.298396">
<ele>100.0</ele>
<time>2026-09-01T11:58:20.437Z</time>
</trkpt>
<trkpt lat="49.5034751" lon="1.2984551">
<ele>100.0</ele>
<time>2026-09-01T11:58:25.044Z</time>
</trkpt>
<trkpt lat="49.5034459" lon="1.2985169">
<ele>101.0</ele>
<time>2026-09-01T11:58:29.661Z</time>
</trkpt>
<trkpt lat="49.5034137" lon="1.2985717">
<ele>101.0</ele>
<time>2026-09-01T11:58:33.900Z</time>
</trkpt>
<trkpt lat="49.5033956" lon="1.2986233">
<ele>101.0</ele>
<time>2026-09-01T11:58:37.921Z</time>
</trkpt>
<trkpt lat="49.5033519" lon="1.2986824">
<ele>101.0</ele>
<time>2026-09-01T11:58:42.499Z</time>
</trkpt>
<trkpt lat="49.5033152" lon="1.298732">
<ele>101.0</ele>
<time>2026-09-01T11:58:46.559Z</time>
</trkpt>
<trkpt lat="49.503278" lon="1.2987744">
<ele>100.0</ele>
<time>2026-09-01T11:58:50.600Z</time>
</trkpt>
<trkpt lat="49.5032481" lon="1.298831">
<ele>100.0</ele>
<time>2026-09-01T11:58:54.681Z</time>
</trkpt>
<trkpt lat="49.5032187" lon="1.2988939">
<ele>100.0</ele>
<time>2026-09-01T11:58:59.114Z</time>
</trkpt>
<trkpt lat="49.5031985" lon="1.2989629">
<ele>100.0</ele>
<time>2026-09-01T11:59:03.339Z</time>
</trkpt>
<trkpt lat="49.5032277" lon="1.2990214">
<ele>100.0</ele>
<time>2026-09-01T11:59:07.678Z</time>
</trkpt>
<trkpt lat="49.5032627" lon="1.2990875">
<ele>100.0</ele>
<time>2026-09-01T11:59:12.113Z</time>
</trkpt>
<trkpt lat="49.5032926" lon="1.2991526">
<ele>100.0</ele>
<time>2026-09-01T11:59:16.524Z</time>
</trkpt>
<trkpt lat="49.5033275" lon="1.2991964">
<ele>100.0</ele>
<time>2026-09-01T11:59:20.664Z</time>
</trkpt>
<trkpt lat="49.5033606" lon="1.2992329">
<ele>100.0</ele>
<time>2026-09-01T11:59:24.884Z</time>
</trkpt>
<trkpt lat="49.5033967" lon="1.2992826">
<ele>100.0</ele>
<time>2026-09-01T11:59:28.895Z</time>
</trkpt>
<trkpt lat="49.5034286" lon="1.2993595">
<ele>99.0</ele>
<time>2026-09-01T11:59:33.542Z</time>
</trkpt>
<trkpt lat="49.5034618" lon="1.2994121">
<ele>99.0</ele>
<time>2026-09-01T11:59:37.662Z</time>
</trkpt>
<trkpt lat="49.5034902" lon="1.2994672">
<ele>99.0</ele>
<time>2026-09-01T11:59:41.823Z</time>
</trkpt>
<trkpt lat="49.5035027" lon="1.2995486">
<ele>99.0</ele>
<time>2026-09-01T11:59:46.320Z</time>
</trkpt>
<trkpt lat="49.5035446" lon="1.2996028">
<ele>98.0</ele>
<time>2026-09-01T11:59:50.897Z</time>
</trkpt>
<trkpt lat="49.5035777" lon="1.2996503">
<ele>98.0</ele>
<time>2026-09-01T11:59:55.524Z</time>
</trkpt>
<trkpt lat="49.5036151" lon="1.2996955">
<ele>98.0</ele>
<time>2026-09-01T12:00:00.081Z</time>
</trkpt>
<trkpt lat="49.5036577" lon="1.2997167">
<ele>98.0</ele>
<time>2026-09-01T12:00:04.083Z</time>
</trkpt>
<trkpt lat="49.5036969" lon="1.2997432">
<ele>98.0</ele>
<time>2026-09-01T12:00:08.322Z</time>
</trkpt>
<trkpt lat="49.5037335" lon="1.2998017">
<ele>98.0</ele>
<time>2026-09-01T12:00:12.979Z</time>
</trkpt>
<trkpt lat="49.503775" lon="1.2998491">
<ele>97.0</ele>
<time>2026-09-01T12:00:17.020Z</time>
</trkpt>
<trkpt lat="49.5038128" lon="1.2999132">
<ele>96.0</ele>
<time>2026-09-01T12:00:21.113Z</time>
</trkpt>
<trkpt lat="49.5038323" lon="1.2999882">
<ele>96.0</ele>
<time>2026-09-01T12:00:25.102Z</time>
</trkpt>
<trkpt lat="49.5038374" lon="1.3000801">
<ele>96.0</ele>
<time>2026-09-01T12:00:29.719Z</time>
</trkpt>
<trkpt lat="49.503854" lon="1.3001571">
<ele>96.0</ele>
<time>2026-09-01T12:00:33.839Z</time>
</trkpt>
<trkpt lat="49.5038742" lon="1.300249">
<ele>96.0</ele>
<time>2026-09-01T12:00:38.436Z</time>
</trkpt>
<trkpt lat="49.5038799" lon="1.3003213">
<ele>96.0</ele>
<time>2026-09-01T12:00:42.477Z</time>
</trkpt>
<trkpt lat="49.5038659" lon="1.3003906">
<ele>96.0</ele>
<time>2026-09-01T12:00:46.538Z</time>
</trkpt>
<trkpt lat="49.5038493" lon="1.3004707">
<ele>95.0</ele>
<time>2026-09-01T12:00:51.113Z</time>
</trkpt>
<trkpt lat="49.503859" lon="1.3005284">
<ele>95.0</ele>
<time>2026-09-01T12:00:55.315Z</time>
</trkpt>
<trkpt lat="49.5038798" lon="1.3005657">
<ele>95.0</ele>
<time>2026-09-01T12:00:59.396Z</time>
</trkpt>
<trkpt lat="49.5038473" lon="1.3006364">
<ele>95.0</ele>
<time>2026-09-01T12:01:03.397Z</time>
</trkpt>
<trkpt lat="49.5038051" lon="1.3007065">
<ele>95.0</ele>
<time>2026-09-01T12:01:07.458Z</time>
</trkpt>
<trkpt lat="49.5037808" lon="1.3007876">
<ele>95.0</ele>
<time>2026-09-01T12:01:11.538Z</time>
</trkpt>
<trkpt lat="49.5037652" lon="1.3008692">
<ele>95.0</ele>
<time>2026-09-01T12:01:15.758Z</time>
</trkpt>
<trkpt lat="49.5037428" lon="1.3009478">
<ele>96.0</ele>
<time>2026-09-01T12:01:20.335Z</time>
</trkpt>
<trkpt lat="49.5037239" lon="1.301017">
<ele>95.0</ele>
<time>2026-09-01T12:01:24.555Z</time>
</trkpt>
<trkpt lat="49.5037266" lon="1.301087">
<ele>95.0</ele>
<time>2026-09-01T12:01:29.023Z</time>
</trkpt>
<trkpt lat="49.5037246" lon="1.3011571">
<ele>95.0</ele>
<time>2026-09-01T12:01:33.084Z</time>
</trkpt>
<trkpt lat="49.5037196" lon="1.3012214">
<ele>95.0</ele>
<time>2026-09-01T12:01:37.244Z</time>
</trkpt>
<trkpt lat="49.5037297" lon="1.3012974">
<ele>94.0</ele>
<time>2026-09-01T12:01:41.444Z</time>
</trkpt>
<trkpt lat="49.5037326" lon="1.3013715">
<ele>94.0</ele>
<time>2026-09-01T12:01:45.504Z</time>
</trkpt>
<trkpt lat="49.5037233" lon="1.3014538">
<ele>94.0</ele>
<time>2026-09-01T12:01:49.724Z</time>
</trkpt>
<trkpt lat="49.5037115" lon="1.3015389">
<ele>94.0</ele>
<time>2026-09-01T12:01:54.381Z</time>
</trkpt>
<trkpt lat="49.5037077" lon="1.3016139">
<ele>94.0</ele>
<time>2026-09-01T12:01:58.958Z</time>
</trkpt>
<trkpt lat="49.5036904" lon="1.3017261">
<ele>94.0</ele>
<time>2026-09-01T12:02:03.555Z</time>
</trkpt>
<trkpt lat="49.5036741" lon="1.3018306">
<ele>94.0</ele>
<time>2026-09-01T12:02:08.107Z</time>
</trkpt>
<trkpt lat="49.5036708" lon="1.3019191">
<ele>94.0</ele>
<time>2026-09-01T12:02:12.163Z</time>
</trkpt>
<trkpt lat="49.5036715" lon="1.3019999">
<ele>94.0</ele>
<time>2026-09-01T12:02:16.502Z</time>
</trkpt>
<trkpt lat="49.5036637" lon="1.302077">
<ele>94.0</ele>
<time>2026-09-01T12:02:20.523Z</time>
</trkpt>
<trkpt lat="49.5036642" lon="1.3021463">
<ele>95.0</ele>
<time>2026-09-01T12:02:24.683Z</time>
</trkpt>
<trkpt lat="49.5036681" lon="1.3022196">
<ele>95.0</ele>
<time>2026-09-01T12:02:29.111Z</time>
</trkpt>
<trkpt lat="49.5036548" lon="1.3023174">
<ele>95.0</ele>
<time>2026-09-01T12:02:33.738Z</time>
</trkpt>
<trkpt lat="49.5036401" lon="1.3024089">
<ele>96.0</ele>
<time>2026-09-01T12:02:38.355Z</time>
</trkpt>
<trkpt lat="49.5036159" lon="1.3024963">
<ele>96.0</ele>
<time>2026-09-01T12:02:42.803Z</time>
</trkpt>
<trkpt lat="49.5035853" lon="1.3025608">
<ele>96.0</ele>
<time>2026-09-01T12:02:46.884Z</time>
</trkpt>
<trkpt lat="49.5035679" lon="1.3026252">
<ele>96.0</ele>
<time>2026-09-01T12:02:51.044Z</time>
</trkpt>
<trkpt lat="49.5035486" lon="1.3026702">
<ele>97.0</ele>
<time>2026-09-01T12:02:55.075Z</time>
</trkpt>
<trkpt lat="49.5035309" lon="1.3027177">
<ele>97.0</ele>
<time>2026-09-01T12:02:59.364Z</time>
</trkpt>
<trkpt lat="49.5035212" lon="1.3027761">
<ele>97.0</ele>
<time>2026-09-01T12:03:03.604Z</time>
</trkpt>
<trkpt lat="49.5035196" lon="1.3028284">
<ele>97.0</ele>
<time>2026-09-01T12:03:08.022Z</time>
</trkpt>
<trkpt lat="49.5035155" lon="1.3028937">
<ele>97.0</ele>
<time>2026-09-01T12:03:12.063Z</time>
</trkpt>
<trkpt lat="49.5034977" lon="1.3029623">
<ele>99.0</ele>
<time>2026-09-01T12:03:16.113Z</time>
</trkpt>
<trkpt lat="49.5034731" lon="1.3030353">
<ele>99.0</ele>
<time>2026-09-01T12:03:21.098Z</time>
</trkpt>
<trkpt lat="49.5034516" lon="1.3030775">
<ele>96.0</ele>
<time>2026-09-01T12:03:25.358Z</time>
</trkpt>
<trkpt lat="49.5034302" lon="1.3031395">
<ele>96.0</ele>
<time>2026-09-01T12:03:29.677Z</time>
</trkpt>
<trkpt lat="49.5034142" lon="1.3032114">
<ele>99.0</ele>
<time>2026-09-01T12:03:33.857Z</time>
</trkpt>
<trkpt lat="49.5033994" lon="1.3032793">
<ele>99.0</ele>
<time>2026-09-01T12:03:38.107Z</time>
</trkpt>
<trkpt lat="49.5033873" lon="1.3033498">
<ele>99.0</ele>
<time>2026-09-01T12:03:42.157Z</time>
</trkpt>
<trkpt lat="49.5033684" lon="1.3034126">
<ele>99.0</ele>
<time>2026-09-01T12:03:46.436Z</time>
</trkpt>
<trkpt lat="49.5033445" lon="1.3034702">
<ele>99.0</ele>
<time>2026-09-01T12:03:50.636Z</time>
</trkpt>
<trkpt lat="49.5033174" lon="1.3035367">
<ele>101.0</ele>
<time>2026-09-01T12:03:55.104Z</time>
</trkpt>
<trkpt lat="49.5032903" lon="1.3036015">
<ele>101.0</ele>
<time>2026-09-01T12:03:59.423Z</time>
</trkpt>
<trkpt lat="49.5032633" lon="1.3036718">
<ele>101.0</ele>
<time>2026-09-01T12:04:03.822Z</time>
</trkpt>
<trkpt lat="49.503242" lon="1.3037335">
<ele>101.0</ele>
<time>2026-09-01T12:04:07.942Z</time>
</trkpt>
<trkpt lat="49.5032246" lon="1.3037953">
<ele>102.0</ele>
<time>2026-09-01T12:04:12.105Z</time>
</trkpt>
<trkpt lat="49.5032223" lon="1.3038465">
<ele>102.0</ele>
<time>2026-09-01T12:04:16.109Z</time>
</trkpt>
<trkpt lat="49.5032217" lon="1.3039099">
<ele>102.0</ele>
<time>2026-09-01T12:04:20.383Z</time>
</trkpt>
<trkpt lat="49.5032251" lon="1.3039896">
<ele>102.0</ele>
<time>2026-09-01T12:04:24.543Z</time>
</trkpt>
<trkpt lat="49.5032303" lon="1.3040811">
<ele>101.0</ele>
<time>2026-09-01T12:04:28.882Z</time>
</trkpt>
<trkpt lat="49.5032543" lon="1.3041419">
<ele>101.0</ele>
<time>2026-09-01T12:04:33.002Z</time>
</trkpt>
<trkpt lat="49.5032871" lon="1.3041965">
<ele>101.0</ele>
<time>2026-09-01T12:04:37.441Z</time>
</trkpt>
<trkpt lat="49.5033145" lon="1.3042532">
<ele>101.0</ele>
<time>2026-09-01T12:04:41.839Z</time>
</trkpt>
<trkpt lat="49.5033451" lon="1.3042989">
<ele>101.0</ele>
<time>2026-09-01T12:04:46.059Z</time>
</trkpt>
<trkpt lat="49.5033886" lon="1.3043399">
<ele>100.0</ele>
<time>2026-09-01T12:04:50.219Z</time>
</trkpt>
<trkpt lat="49.5034292" lon="1.3043821">
<ele>100.0</ele>
<time>2026-09-01T12:04:54.677Z</time>
</trkpt>
<trkpt lat="49.503457" lon="1.304437">
<ele>100.0</ele>
<time>2026-09-01T12:04:58.937Z</time>
</trkpt>
<trkpt lat="49.5034814" lon="1.3044918">
<ele>102.0</ele>
<time>2026-09-01T12:05:03.115Z</time>
</trkpt>
<trkpt lat="49.5034958" lon="1.3045479">
<ele>102.0</ele>
<time>2026-09-01T12:05:07.114Z</time>
</trkpt>
<trkpt lat="49.5035143" lon="1.3046174">
<ele>102.0</ele>
<time>2026-09-01T12:05:11.377Z</time>
</trkpt>
<trkpt lat="49.5035489" lon="1.3046596">
<ele>102.0</ele>
<time>2026-09-01T12:05:15.538Z</time>
</trkpt>
<trkpt lat="49.5035754" lon="1.3047077">
<ele>102.0</ele>
<time>2026-09-01T12:05:19.658Z</time>
</trkpt>
<trkpt lat="49.5036229" lon="1.3047466">
<ele>102.0</ele>
<time>2026-09-01T12:05:23.878Z</time>
</trkpt>
<trkpt lat="49.503662" lon="1.3047908">
<ele>102.0</ele>
<time>2026-09-01T12:05:28.038Z</time>
</trkpt>
<trkpt lat="49.5037038" lon="1.3048175">
<ele>102.0</ele>
<time>2026-09-01T12:05:32.108Z</time>
</trkpt>
<trkpt lat="49.5037519" lon="1.3048477">
<ele>104.0</ele>
<time>2026-09-01T12:05:36.696Z</time>
</trkpt>
<trkpt lat="49.5037956" lon="1.3048611">
<ele>104.0</ele>
<time>2026-09-01T12:05:40.955Z</time>
</trkpt>
<trkpt lat="49.5038468" lon="1.3048813">
<ele>104.0</ele>
<time>2026-09-01T12:05:45.443Z</time>
</trkpt>
<trkpt lat="49.5039471" lon="1.3047919">
<ele>104.0</ele>
<time>2026-09-01T12:06:56.103Z</time>
</trkpt>
<trkpt lat="49.5039486" lon="1.3047894">
<ele>104.0</ele>
<time>2026-09-01T12:07:00.113Z</time>
</trkpt>
<trkpt lat="49.5039515" lon="1.3047872">
<ele>104.0</ele>
<time>2026-09-01T12:07:06.106Z</time>
</trkpt>
<trkpt lat="49.5039533" lon="1.3047794">
<ele>104.0</ele>
<time>2026-09-01T12:07:10.110Z</time>
</trkpt>
<trkpt lat="49.5039565" lon="1.3047801">
<ele>104.0</ele>
<time>2026-09-01T12:07:15.113Z</time>
</trkpt>
<trkpt lat="49.5039643" lon="1.304787">
<ele>104.0</ele>
<time>2026-09-01T12:07:20.113Z</time>
</trkpt>
<trkpt lat="49.5039995" lon="1.3047955">
<ele>104.0</ele>
<time>2026-09-01T12:07:25.123Z</time>
</trkpt>
<trkpt lat="49.5040269" lon="1.3047895">
<ele>104.0</ele>
<time>2026-09-01T12:07:30.105Z</time>
</trkpt>
<trkpt lat="49.5040668" lon="1.3048122">
<ele>109.0</ele>
<time>2026-09-01T12:07:34.111Z</time>
</trkpt>
<trkpt lat="49.5041065" lon="1.3048091">
<ele>109.0</ele>
<time>2026-09-01T12:07:38.117Z</time>
</trkpt>
<trkpt lat="49.5041559" lon="1.3048538">
<ele>109.0</ele>
<time>2026-09-01T12:07:43.115Z</time>
</trkpt>
<trkpt lat="49.5042146" lon="1.3048924">
<ele>108.0</ele>
<time>2026-09-01T12:07:48.111Z</time>
</trkpt>
<trkpt lat="49.5042605" lon="1.3049206">
<ele>108.0</ele>
<time>2026-09-01T12:07:52.112Z</time>
</trkpt>
<trkpt lat="49.5042968" lon="1.3049518">
<ele>108.0</ele>
<time>2026-09-01T12:07:56.124Z</time>
</trkpt>
<trkpt lat="49.5043333" lon="1.3050265">
<ele>113.0</ele>
<time>2026-09-01T12:08:01.115Z</time>
</trkpt>
<trkpt lat="49.5043743" lon="1.30508">
<ele>113.0</ele>
<time>2026-09-01T12:08:06.112Z</time>
</trkpt>
<trkpt lat="49.5044196" lon="1.3051174">
<ele>113.0</ele>
<time>2026-09-01T12:08:11.117Z</time>
</trkpt>
<trkpt lat="49.5044135" lon="1.3051171">
<ele>113.0</ele>
<time>2026-09-01T12:08:15.119Z</time>
</trkpt>
<trkpt lat="49.5044046" lon="1.3051891">
<ele>113.0</ele>
<time>2026-09-01T12:08:19.917Z</time>
</trkpt>
<trkpt lat="49.5044301" lon="1.3052822">
<ele>113.0</ele>
<time>2026-09-01T12:08:24.097Z</time>
</trkpt>
<trkpt lat="49.5044538" lon="1.3053568">
<ele>113.0</ele>
<time>2026-09-01T12:08:28.198Z</time>
</trkpt>
<trkpt lat="49.5044599" lon="1.30543">
<ele>113.0</ele>
<time>2026-09-01T12:08:32.378Z</time>
</trkpt>
<trkpt lat="49.5044643" lon="1.3055106">
<ele>113.0</ele>
<time>2026-09-01T12:08:36.419Z</time>
</trkpt>
<trkpt lat="49.504472" lon="1.3055893">
<ele>113.0</ele>
<time>2026-09-01T12:08:40.659Z</time>
</trkpt>
<trkpt lat="49.5044907" lon="1.3056708">
<ele>113.0</ele>
<time>2026-09-01T12:08:45.112Z</time>
</trkpt>
<trkpt lat="49.5045158" lon="1.3057217">
<ele>112.0</ele>
<time>2026-09-01T12:08:49.114Z</time>
</trkpt>
<trkpt lat="49.5045383" lon="1.3057843">
<ele>112.0</ele>
<time>2026-09-01T12:08:53.656Z</time>
</trkpt>
<trkpt lat="49.5045507" lon="1.3058656">
<ele>112.0</ele>
<time>2026-09-01T12:08:57.697Z</time>
</trkpt>
<trkpt lat="49.5045644" lon="1.3059681">
<ele>112.0</ele>
<time>2026-09-01T12:09:02.112Z</time>
</trkpt>
<trkpt lat="49.5045828" lon="1.3060541">
<ele>111.0</ele>
<time>2026-09-01T12:09:06.663Z</time>
</trkpt>
<trkpt lat="49.5045882" lon="1.3061322">
<ele>114.0</ele>
<time>2026-09-01T12:09:11.114Z</time>
</trkpt>
<trkpt lat="49.504599" lon="1.3062104">
<ele>114.0</ele>
<time>2026-09-01T12:09:15.698Z</time>
</trkpt>
<trkpt lat="49.5046117" lon="1.3062793">
<ele>113.0</ele>
<time>2026-09-01T12:09:19.739Z</time>
</trkpt>
<trkpt lat="49.5046185" lon="1.3063568">
<ele>113.0</ele>
<time>2026-09-01T12:09:23.880Z</time>
</trkpt>
<trkpt lat="49.5046122" lon="1.3064469">
<ele>113.0</ele>
<time>2026-09-01T12:09:28.556Z</time>
</trkpt>
<trkpt lat="49.5046335" lon="1.3065235">
<ele>113.0</ele>
<time>2026-09-01T12:09:33.124Z</time>
</trkpt>
<trkpt lat="49.5046632" lon="1.3065965">
<ele>113.0</ele>
<time>2026-09-01T12:09:37.780Z</time>
</trkpt>
<trkpt lat="49.5046616" lon="1.3066826">
<ele>113.0</ele>
<time>2026-09-01T12:09:41.822Z</time>
</trkpt>
<trkpt lat="49.5046561" lon="1.306773">
<ele>113.0</ele>
<time>2026-09-01T12:09:46.002Z</time>
</trkpt>
<trkpt lat="49.5046441" lon="1.3068452">
<ele>112.0</ele>
<time>2026-09-01T12:09:50.579Z</time>
</trkpt>
<trkpt lat="49.5046396" lon="1.3069212">
<ele>112.0</ele>
<time>2026-09-01T12:09:54.660Z</time>
</trkpt>
<trkpt lat="49.5046627" lon="1.3069953">
<ele>112.0</ele>
<time>2026-09-01T12:09:58.800Z</time>
</trkpt>
<trkpt lat="49.5046949" lon="1.3070757">
<ele>112.0</ele>
<time>2026-09-01T12:10:03.110Z</time>
</trkpt>
<trkpt lat="49.5047223" lon="1.3071441">
<ele>112.0</ele>
<time>2026-09-01T12:10:07.260Z</time>
</trkpt>
<trkpt lat="49.504743" lon="1.3072264">
<ele>112.0</ele>
<time>2026-09-01T12:10:11.499Z</time>
</trkpt>
<trkpt lat="49.5047587" lon="1.3073104">
<ele>112.0</ele>
<time>2026-09-01T12:10:16.112Z</time>
</trkpt>
<trkpt lat="49.5047836" lon="1.3073851">
<ele>110.0</ele>
<time>2026-09-01T12:10:20.823Z</time>
</trkpt>
<trkpt lat="49.5047877" lon="1.3074579">
<ele>110.0</ele>
<time>2026-09-01T12:10:25.110Z</time>
</trkpt>
<trkpt lat="49.5047941" lon="1.3075646">
<ele>110.0</ele>
<time>2026-09-01T12:10:29.282Z</time>
</trkpt>
<trkpt lat="49.5048094" lon="1.3076617">
<ele>109.0</ele>
<time>2026-09-01T12:10:33.562Z</time>
</trkpt>
<trkpt lat="49.5048416" lon="1.3077275">
<ele>109.0</ele>
<time>2026-09-01T12:10:38.106Z</time>
</trkpt>
<trkpt lat="49.5048616" lon="1.3077868">
<ele>113.0</ele>
<time>2026-09-01T12:10:42.180Z</time>
</trkpt>
<trkpt lat="49.5048845" lon="1.3078552">
<ele>113.0</ele>
<time>2026-09-01T12:10:46.777Z</time>
</trkpt>
<trkpt lat="49.5048985" lon="1.3079259">
<ele>113.0</ele>
<time>2026-09-01T12:10:50.878Z</time>
</trkpt>
<trkpt lat="49.5048848" lon="1.3080019">
<ele>113.0</ele>
<time>2026-09-01T12:10:54.899Z</time>
</trkpt>
<trkpt lat="49.5048672" lon="1.3080853">
<ele>113.0</ele>
<time>2026-09-01T12:10:59.099Z</time>
</trkpt>
<trkpt lat="49.5048745" lon="1.308171">
<ele>113.0</ele>
<time>2026-09-01T12:11:03.657Z</time>
</trkpt>
<trkpt lat="49.5048523" lon="1.308216">
<ele>107.0</ele>
<time>2026-09-01T12:11:07.857Z</time>
</trkpt>
<trkpt lat="49.5048352" lon="1.3082641">
<ele>107.0</ele>
<time>2026-09-01T12:11:12.110Z</time>
</trkpt>
<trkpt lat="49.5047997" lon="1.3083241">
<ele>107.0</ele>
<time>2026-09-01T12:11:16.545Z</time>
</trkpt>
<trkpt lat="49.504758" lon="1.3083673">
<ele>107.0</ele>
<time>2026-09-01T12:11:21.042Z</time>
</trkpt>
<trkpt lat="49.5047205" lon="1.3084063">
<ele>107.0</ele>
<time>2026-09-01T12:11:25.362Z</time>
</trkpt>
<trkpt lat="49.5046753" lon="1.30846">
<ele>107.0</ele>
<time>2026-09-01T12:11:29.840Z</time>
</trkpt>
<trkpt lat="49.5046419" lon="1.3085256">
<ele>106.0</ele>
<time>2026-09-01T12:11:34.318Z</time>
</trkpt>
<trkpt lat="49.5046305" lon="1.3085951">
<ele>106.0</ele>
<time>2026-09-01T12:11:38.359Z</time>
</trkpt>
<trkpt lat="49.5046344" lon="1.3086707">
<ele>106.0</ele>
<time>2026-09-01T12:11:42.718Z</time>
</trkpt>
<trkpt lat="49.5046453" lon="1.3087344">
<ele>106.0</ele>
<time>2026-09-01T12:11:46.898Z</time>
</trkpt>
<trkpt lat="49.5046377" lon="1.3088015">
<ele>106.0</ele>
<time>2026-09-01T12:11:51.114Z</time>
</trkpt>
<trkpt lat="49.5046388" lon="1.3088729">
<ele>106.0</ele>
<time>2026-09-01T12:11:55.258Z</time>
</trkpt>
<trkpt lat="49.5046261" lon="1.308943">
<ele>106.0</ele>
<time>2026-09-01T12:11:59.458Z</time>
</trkpt>
<trkpt lat="49.5046221" lon="1.3090078">
<ele>106.0</ele>
<time>2026-09-01T12:12:03.578Z</time>
</trkpt>
<trkpt lat="49.5046222" lon="1.3090778">
<ele>106.0</ele>
<time>2026-09-01T12:12:07.639Z</time>
</trkpt>
<trkpt lat="49.5046303" lon="1.3091426">
<ele>106.0</ele>
<time>2026-09-01T12:12:11.700Z</time>
</trkpt>
<trkpt lat="49.5046478" lon="1.309206">
<ele>106.0</ele>
<time>2026-09-01T12:12:15.801Z</time>
</trkpt>
<trkpt lat="49.5046408" lon="1.3092958">
<ele>106.0</ele>
<time>2026-09-01T12:12:20.497Z</time>
</trkpt>
<trkpt lat="49.5046371" lon="1.3093792">
<ele>106.0</ele>
<time>2026-09-01T12:12:25.110Z</time>
</trkpt>
<trkpt lat="49.5046142" lon="1.3094616">
<ele>106.0</ele>
<time>2026-09-01T12:12:29.305Z</time>
</trkpt>
<trkpt lat="49.5045881" lon="1.3095436">
<ele>106.0</ele>
<time>2026-09-01T12:12:33.356Z</time>
</trkpt>
<trkpt lat="49.5045859" lon="1.3096012">
<ele>106.0</ele>
<time>2026-09-01T12:12:37.655Z</time>
</trkpt>
<trkpt lat="49.5045743" lon="1.3096659">
<ele>103.0</ele>
<time>2026-09-01T12:12:41.885Z</time>
</trkpt>
<trkpt lat="49.5045558" lon="1.3097421">
<ele>103.0</ele>
<time>2026-09-01T12:12:45.896Z</time>
</trkpt>
<trkpt lat="49.5045489" lon="1.3098213">
<ele>103.0</ele>
<time>2026-09-01T12:12:50.110Z</time>
</trkpt>
<trkpt lat="49.5045369" lon="1.3098975">
<ele>103.0</ele>
<time>2026-09-01T12:12:54.484Z</time>
</trkpt>
<trkpt lat="49.504537" lon="1.3099719">
<ele>103.0</ele>
<time>2026-09-01T12:12:58.863Z</time>
</trkpt>
<trkpt lat="49.5045341" lon="1.3100342">
<ele>103.0</ele>
<time>2026-09-01T12:13:02.944Z</time>
</trkpt>
<trkpt lat="49.504517" lon="1.3100956">
<ele>103.0</ele>
<time>2026-09-01T12:13:07.108Z</time>
</trkpt>
<trkpt lat="49.5044928" lon="1.310166">
<ele>104.0</ele>
<time>2026-09-01T12:13:11.443Z</time>
</trkpt>
<trkpt lat="49.5044715" lon="1.3102404">
<ele>104.0</ele>
<time>2026-09-01T12:13:15.822Z</time>
</trkpt>
<trkpt lat="49.5044442" lon="1.31031">
<ele>104.0</ele>
<time>2026-09-01T12:13:19.863Z</time>
</trkpt>
<trkpt lat="49.504413" lon="1.3103806">
<ele>104.0</ele>
<time>2026-09-01T12:13:24.043Z</time>
</trkpt>
<trkpt lat="49.5043553" lon="1.3104187">
<ele>105.0</ele>
<time>2026-09-01T12:13:28.263Z</time>
</trkpt>
<trkpt lat="49.5042988" lon="1.3104196">
<ele>104.0</ele>
<time>2026-09-01T12:13:32.324Z</time>
</trkpt>
<trkpt lat="49.5042677" lon="1.3104025">
<ele>102.0</ele>
<time>2026-09-01T12:13:36.375Z</time>
</trkpt>
<trkpt lat="49.5042378" lon="1.3103971">
<ele>102.0</ele>
<time>2026-09-01T12:13:40.476Z</time>
</trkpt>
<trkpt lat="49.5041937" lon="1.3103913">
<ele>102.0</ele>
<time>2026-09-01T12:13:44.477Z</time>
</trkpt>
<trkpt lat="49.5041476" lon="1.3103655">
<ele>102.0</ele>
<time>2026-09-01T12:13:48.836Z</time>
</trkpt>
<trkpt lat="49.5041082" lon="1.3103472">
<ele>102.0</ele>
<time>2026-09-01T12:13:52.897Z</time>
</trkpt>
<trkpt lat="49.5040677" lon="1.3103404">
<ele>102.0</ele>
<time>2026-09-01T12:13:57.112Z</time>
</trkpt>
<trkpt lat="49.5040249" lon="1.3103356">
<ele>101.0</ele>
<time>2026-09-01T12:14:01.297Z</time>
</trkpt>
<trkpt lat="49.5039856" lon="1.3103139">
<ele>101.0</ele>
<time>2026-09-01T12:14:05.676Z</time>
</trkpt>
<trkpt lat="49.5039373" lon="1.310275">
<ele>101.0</ele>
<time>2026-09-01T12:14:09.816Z</time>
</trkpt>
<trkpt lat="49.5038836" lon="1.3102742">
<ele>101.0</ele>
<time>2026-09-01T12:14:14.056Z</time>
</trkpt>
<trkpt lat="49.5038363" lon="1.3102993">
<ele>101.0</ele>
<time>2026-09-01T12:14:18.116Z</time>
</trkpt>
<trkpt lat="49.503778" lon="1.3103065">
<ele>101.0</ele>
<time>2026-09-01T12:14:22.843Z</time>
</trkpt>
<trkpt lat="49.5037331" lon="1.3103095">
<ele>99.0</ele>
<time>2026-09-01T12:14:27.113Z</time>
</trkpt>
<trkpt lat="49.5036779" lon="1.3103245">
<ele>99.0</ele>
<time>2026-09-01T12:14:31.700Z</time>
</trkpt>
<trkpt lat="49.5036416" lon="1.3103723">
<ele>99.0</ele>
<time>2026-09-01T12:14:35.840Z</time>
</trkpt>
<trkpt lat="49.503619" lon="1.3104656">
<ele>102.0</ele>
<time>2026-09-01T12:14:40.001Z</time>
</trkpt>
<trkpt lat="49.503582" lon="1.3105215">
<ele>102.0</ele>
<time>2026-09-01T12:14:44.101Z</time>
</trkpt>
<trkpt lat="49.5035328" lon="1.3105815">
<ele>102.0</ele>
<time>2026-09-01T12:14:48.639Z</time>
</trkpt>
<trkpt lat="49.5035048" lon="1.310621">
<ele>102.0</ele>
<time>2026-09-01T12:14:52.700Z</time>
</trkpt>
<trkpt lat="49.5034784" lon="1.3106726">
<ele>102.0</ele>
<time>2026-09-01T12:14:57.277Z</time>
</trkpt>
<trkpt lat="49.5034392" lon="1.3107215">
<ele>101.0</ele>
<time>2026-09-01T12:15:01.825Z</time>
</trkpt>
<trkpt lat="49.503406" lon="1.310768">
<ele>101.0</ele>
<time>2026-09-01T12:15:06.106Z</time>
</trkpt>
<trkpt lat="49.5033706" lon="1.3108392">
<ele>101.0</ele>
<time>2026-09-01T12:15:10.602Z</time>
</trkpt>
<trkpt lat="49.5033153" lon="1.3108867">
<ele>101.0</ele>
<time>2026-09-01T12:15:14.683Z</time>
</trkpt>
<trkpt lat="49.5032706" lon="1.310927">
<ele>101.0</ele>
<time>2026-09-01T12:15:19.116Z</time>
</trkpt>
<trkpt lat="49.5032327" lon="1.3109967">
<ele>105.0</ele>
<time>2026-09-01T12:15:23.539Z</time>
</trkpt>
<trkpt lat="49.5031904" lon="1.3110503">
<ele>101.0</ele>
<time>2026-09-01T12:15:27.660Z</time>
</trkpt>
<trkpt lat="49.5031404" lon="1.3110924">
<ele>101.0</ele>
<time>2026-09-01T12:15:32.111Z</time>
</trkpt>
<trkpt lat="49.5030899" lon="1.3111507">
<ele>101.0</ele>
<time>2026-09-01T12:15:36.378Z</time>
</trkpt>
<trkpt lat="49.5030517" lon="1.3111847">
<ele>101.0</ele>
<time>2026-09-01T12:15:40.578Z</time>
</trkpt>
<trkpt lat="49.5030188" lon="1.3112296">
<ele>101.0</ele>
<time>2026-09-01T12:15:45.111Z</time>
</trkpt>
<trkpt lat="49.5029789" lon="1.3112693">
<ele>104.0</ele>
<time>2026-09-01T12:15:49.216Z</time>
</trkpt>
<trkpt lat="49.5029352" lon="1.3113043">
<ele>104.0</ele>
<time>2026-09-01T12:15:53.535Z</time>
</trkpt>
<trkpt lat="49.5028997" lon="1.3113332">
<ele>102.0</ele>
<time>2026-09-01T12:15:57.755Z</time>
</trkpt>
<trkpt lat="49.5028567" lon="1.311361">
<ele>102.0</ele>
<time>2026-09-01T12:16:02.111Z</time>
</trkpt>
<trkpt lat="49.5028159" lon="1.3114042">
<ele>102.0</ele>
<time>2026-09-01T12:16:06.324Z</time>
</trkpt>
<trkpt lat="49.5027679" lon="1.311443">
<ele>102.0</ele>
<time>2026-09-01T12:16:10.643Z</time>
</trkpt>
<trkpt lat="49.5027186" lon="1.311492">
<ele>102.0</ele>
<time>2026-09-01T12:16:14.843Z</time>
</trkpt>
<trkpt lat="49.5026713" lon="1.3115479">
<ele>105.0</ele>
<time>2026-09-01T12:16:19.114Z</time>
</trkpt>
<trkpt lat="49.5026313" lon="1.3115845">
<ele>103.0</ele>
<time>2026-09-01T12:16:23.521Z</time>
</trkpt>
<trkpt lat="49.5025882" lon="1.3116125">
<ele>103.0</ele>
<time>2026-09-01T12:16:28.098Z</time>
</trkpt>
<trkpt lat="49.5025418" lon="1.3116319">
<ele>103.0</ele>
<time>2026-09-01T12:16:32.377Z</time>
</trkpt>
<trkpt lat="49.5025081" lon="1.3116463">
<ele>103.0</ele>
<time>2026-09-01T12:16:36.875Z</time>
</trkpt>
<trkpt lat="49.5024718" lon="1.311651">
<ele>103.0</ele>
<time>2026-09-01T12:16:41.075Z</time>
</trkpt>
<trkpt lat="49.5024388" lon="1.3116599">
<ele>103.0</ele>
<time>2026-09-01T12:16:45.484Z</time>
</trkpt>
<trkpt lat="49.5023921" lon="1.3116792">
<ele>103.0</ele>
<time>2026-09-01T12:16:49.664Z</time>
</trkpt>
<trkpt lat="49.5023508" lon="1.3117032">
<ele>100.0</ele>
<time>2026-09-01T12:16:53.745Z</time>
</trkpt>
<trkpt lat="49.5022969" lon="1.3117412">
<ele>100.0</ele>
<time>2026-09-01T12:16:57.776Z</time>
</trkpt>
<trkpt lat="49.502239" lon="1.3117895">
<ele>100.0</ele>
<time>2026-09-01T12:17:02.383Z</time>
</trkpt>
<trkpt lat="49.5021989" lon="1.3118227">
<ele>102.0</ele>
<time>2026-09-01T12:17:06.464Z</time>
</trkpt>
<trkpt lat="49.502156" lon="1.3118503">
<ele>102.0</ele>
<time>2026-09-01T12:17:10.584Z</time>
</trkpt>
<trkpt lat="49.5021054" lon="1.3118627">
<ele>102.0</ele>
<time>2026-09-01T12:17:15.109Z</time>
</trkpt>
<trkpt lat="49.5020574" lon="1.3118647">
<ele>98.0</ele>
<time>2026-09-01T12:17:19.302Z</time>
</trkpt>
<trkpt lat="49.5020044" lon="1.3118486">
<ele>98.0</ele>
<time>2026-09-01T12:17:23.979Z</time>
</trkpt>
<trkpt lat="49.5019662" lon="1.311841">
<ele>98.0</ele>
<time>2026-09-01T12:17:28.113Z</time>
</trkpt>
<trkpt lat="49.5019255" lon="1.3118354">
<ele>98.0</ele>
<time>2026-09-01T12:17:32.279Z</time>
</trkpt>
<trkpt lat="49.5018863" lon="1.3118565">
<ele>98.0</ele>
<time>2026-09-01T12:17:36.380Z</time>
</trkpt>
<trkpt lat="49.5018375" lon="1.3118708">
<ele>98.0</ele>
<time>2026-09-01T12:17:40.878Z</time>
</trkpt>
<trkpt lat="49.5017912" lon="1.3118552">
<ele>95.0</ele>
<time>2026-09-01T12:17:44.998Z</time>
</trkpt>
<trkpt lat="49.5017401" lon="1.3118519">
<ele>95.0</ele>
<time>2026-09-01T12:17:49.059Z</time>
</trkpt>
<trkpt lat="49.5016916" lon="1.3118559">
<ele>95.0</ele>
<time>2026-09-01T12:17:53.110Z</time>
</trkpt>
<trkpt lat="49.5016388" lon="1.3118533">
<ele>95.0</ele>
<time>2026-09-01T12:17:57.300Z</time>
</trkpt>
<trkpt lat="49.5015832" lon="1.3118132">
<ele>95.0</ele>
<time>2026-09-01T12:18:01.600Z</time>
</trkpt>
<trkpt lat="49.5015369" lon="1.3117816">
<ele>95.0</ele>
<time>2026-09-01T12:18:05.621Z</time>
</trkpt>
<trkpt lat="49.5014939" lon="1.3117552">
<ele>94.0</ele>
<time>2026-09-01T12:18:09.841Z</time>
</trkpt>
<trkpt lat="49.5014525" lon="1.3117258">
<ele>94.0</ele>
<time>2026-09-01T12:18:13.941Z</time>
</trkpt>
<trkpt lat="49.5014123" lon="1.3116954">
<ele>94.0</ele>
<time>2026-09-01T12:18:18.115Z</time>
</trkpt>
<trkpt lat="49.5013646" lon="1.3116887">
<ele>94.0</ele>
<time>2026-09-01T12:18:22.112Z</time>
</trkpt>
<trkpt lat="49.5013077" lon="1.3117017">
<ele>94.0</ele>
<time>2026-09-01T12:18:26.581Z</time>
</trkpt>
<trkpt lat="49.5012532" lon="1.3117371">
<ele>94.0</ele>
<time>2026-09-01T12:18:30.722Z</time>
</trkpt>
<trkpt lat="49.5012311" lon="1.3117945">
<ele>92.0</ele>
<time>2026-09-01T12:18:35.107Z</time>
</trkpt>
<trkpt lat="49.5012083" lon="1.3118579">
<ele>93.0</ele>
<time>2026-09-01T12:18:39.658Z</time>
</trkpt>
<trkpt lat="49.5011952" lon="1.3119236">
<ele>93.0</ele>
<time>2026-09-01T12:18:44.036Z</time>
</trkpt>
<trkpt lat="49.5011891" lon="1.3119935">
<ele>93.0</ele>
<time>2026-09-01T12:18:48.217Z</time>
</trkpt>
<trkpt lat="49.5011827" lon="1.312083">
<ele>93.0</ele>
<time>2026-09-01T12:18:52.575Z</time>
</trkpt>
<trkpt lat="49.5011766" lon="1.3121651">
<ele>94.0</ele>
<time>2026-09-01T12:18:56.795Z</time>
</trkpt>
<trkpt lat="49.5011534" lon="1.3122402">
<ele>94.0</ele>
<time>2026-09-01T12:19:01.108Z</time>
</trkpt>
<trkpt lat="49.5011317" lon="1.3123107">
<ele>94.0</ele>
<time>2026-09-01T12:19:05.324Z</time>
</trkpt>
<trkpt lat="49.5011464" lon="1.3123837">
<ele>96.0</ele>
<time>2026-09-01T12:19:09.723Z</time>
</trkpt>
<trkpt lat="49.5011689" lon="1.312448">
<ele>96.0</ele>
<time>2026-09-01T12:19:13.863Z</time>
</trkpt>
<trkpt lat="49.5011587" lon="1.3125123">
<ele>96.0</ele>
<time>2026-09-01T12:19:18.116Z</time>
</trkpt>
<trkpt lat="49.5011644" lon="1.3125691">
<ele>96.0</ele>
<time>2026-09-01T12:19:22.402Z</time>
</trkpt>
<trkpt lat="49.5011591" lon="1.3126533">
<ele>98.0</ele>
<time>2026-09-01T12:19:26.999Z</time>
</trkpt>
<trkpt lat="49.5011514" lon="1.3127319">
<ele>98.0</ele>
<time>2026-09-01T12:19:31.299Z</time>
</trkpt>
<trkpt lat="49.5011665" lon="1.3128033">
<ele>98.0</ele>
<time>2026-09-01T12:19:35.638Z</time>
</trkpt>
<trkpt lat="49.5011848" lon="1.312866">
<ele>98.0</ele>
<time>2026-09-01T12:19:39.937Z</time>
</trkpt>
<trkpt lat="49.5011832" lon="1.3129296">
<ele>99.0</ele>
<time>2026-09-01T12:19:44.544Z</time>
</trkpt>
<trkpt lat="49.5011832" lon="1.3129949">
<ele>99.0</ele>
<time>2026-09-01T12:19:48.803Z</time>
</trkpt>
<trkpt lat="49.5011914" lon="1.3130551">
<ele>99.0</ele>
<time>2026-09-01T12:19:53.107Z</time>
</trkpt>
<trkpt lat="49.5011855" lon="1.3131443">
<ele>99.0</ele>
<time>2026-09-01T12:19:57.680Z</time>
</trkpt>
<trkpt lat="49.5011798" lon="1.31323">
<ele>101.0</ele>
<time>2026-09-01T12:20:01.959Z</time>
</trkpt>
<trkpt lat="49.5011614" lon="1.3133071">
<ele>101.0</ele>
<time>2026-09-01T12:20:06.113Z</time>
</trkpt>
<trkpt lat="49.5011581" lon="1.3133855">
<ele>101.0</ele>
<time>2026-09-01T12:20:10.498Z</time>
</trkpt>
<trkpt lat="49.501151" lon="1.3134448">
<ele>101.0</ele>
<time>2026-09-01T12:20:14.837Z</time>
</trkpt>
<trkpt lat="49.5011532" lon="1.3135097">
<ele>102.0</ele>
<time>2026-09-01T12:20:19.105Z</time>
</trkpt>
<trkpt lat="49.5011555" lon="1.3135714">
<ele>102.0</ele>
<time>2026-09-01T12:20:23.475Z</time>
</trkpt>
<trkpt lat="49.5011841" lon="1.3136259">
<ele>102.0</ele>
<time>2026-09-01T12:20:27.576Z</time>
</trkpt>
<trkpt lat="49.5012063" lon="1.313687">
<ele>102.0</ele>
<time>2026-09-01T12:20:31.875Z</time>
</trkpt>
<trkpt lat="49.5012145" lon="1.3137548">
<ele>103.0</ele>
<time>2026-09-01T12:20:36.108Z</time>
</trkpt>
<trkpt lat="49.5012173" lon="1.3138459">
<ele>103.0</ele>
<time>2026-09-01T12:20:40.543Z</time>
</trkpt>
<trkpt lat="49.5012366" lon="1.3139254">
<ele>103.0</ele>
<time>2026-09-01T12:20:45.021Z</time>
</trkpt>
<trkpt lat="49.5012456" lon="1.3140065">
<ele>103.0</ele>
<time>2026-09-01T12:20:49.380Z</time>
</trkpt>
<trkpt lat="49.5012429" lon="1.3140878">
<ele>103.0</ele>
<time>2026-09-01T12:20:53.640Z</time>
</trkpt>
<trkpt lat="49.501239" lon="1.3141698">
<ele>103.0</ele>
<time>2026-09-01T12:20:57.979Z</time>
</trkpt>
<trkpt lat="49.5012372" lon="1.3142512">
<ele>103.0</ele>
<time>2026-09-01T12:21:02.358Z</time>
</trkpt>
<trkpt lat="49.5012428" lon="1.3143286">
<ele>104.0</ele>
<time>2026-09-01T12:21:06.577Z</time>
</trkpt>
<trkpt lat="49.5012451" lon="1.314404">
<ele>104.0</ele>
<time>2026-09-01T12:21:11.095Z</time>
</trkpt>
<trkpt lat="49.5012617" lon="1.3144661">
<ele>101.0</ele>
<time>2026-09-01T12:21:15.384Z</time>
</trkpt>
<trkpt lat="49.5012816" lon="1.3145312">
<ele>101.0</ele>
<time>2026-09-01T12:21:19.823Z</time>
</trkpt>
<trkpt lat="49.5012971" lon="1.3145895">
<ele>102.0</ele>
<time>2026-09-01T12:21:24.440Z</time>
</trkpt>
<trkpt lat="49.5012925" lon="1.3146532">
<ele>102.0</ele>
<time>2026-09-01T12:21:28.799Z</time>
</trkpt>
<trkpt lat="49.5012852" lon="1.3146794">
<ele>102.0</ele>
<time>2026-09-01T12:21:32.979Z</time>
</trkpt>
<trkpt lat="49.5012651" lon="1.3147709">
<ele>102.0</ele>
<time>2026-09-01T12:21:37.114Z</time>
</trkpt>
<trkpt lat="49.501264" lon="1.3148453">
<ele>102.0</ele>
<time>2026-09-01T12:21:41.736Z</time>
</trkpt>
<trkpt lat="49.5012824" lon="1.3149222">
<ele>103.0</ele>
<time>2026-09-01T12:21:46.118Z</time>
</trkpt>
<trkpt lat="49.5013068" lon="1.3149675">
<ele>103.0</ele>
<time>2026-09-01T12:21:50.781Z</time>
</trkpt>
<trkpt lat="49.501325" lon="1.3150292">
<ele>103.0</ele>
<time>2026-09-01T12:21:55.220Z</time>
</trkpt>
<trkpt lat="49.5013675" lon="1.3150974">
<ele>103.0</ele>
<time>2026-09-01T12:21:59.658Z</time>
</trkpt>
<trkpt lat="49.5013783" lon="1.3151792">
<ele>104.0</ele>
<time>2026-09-01T12:22:04.113Z</time>
</trkpt>
<trkpt lat="49.5013893" lon="1.3152468">
<ele>104.0</ele>
<time>2026-09-01T12:22:08.663Z</time>
</trkpt>
<trkpt lat="49.5013833" lon="1.3153364">
<ele>104.0</ele>
<time>2026-09-01T12:22:13.062Z</time>
</trkpt>
<trkpt lat="49.5013912" lon="1.3154046">
<ele>104.0</ele>
<time>2026-09-01T12:22:17.580Z</time>
</trkpt>
<trkpt lat="49.5014153" lon="1.3154793">
<ele>105.0</ele>
<time>2026-09-01T12:22:22.078Z</time>
</trkpt>
<trkpt lat="49.5014552" lon="1.3155419">
<ele>105.0</ele>
<time>2026-09-01T12:22:26.575Z</time>
</trkpt>
<trkpt lat="49.5014656" lon="1.3156097">
<ele>105.0</ele>
<time>2026-09-01T12:22:30.497Z</time>
</trkpt>
<trkpt lat="49.5014801" lon="1.3156807">
<ele>105.0</ele>
<time>2026-09-01T12:22:34.936Z</time>
</trkpt>
<trkpt lat="49.5014935" lon="1.3157499">
<ele>106.0</ele>
<time>2026-09-01T12:22:39.483Z</time>
</trkpt>
<trkpt lat="49.5015036" lon="1.315817">
<ele>106.0</ele>
<time>2026-09-01T12:22:43.882Z</time>
</trkpt>
<trkpt lat="49.5015104" lon="1.3158841">
<ele>106.0</ele>
<time>2026-09-01T12:22:48.399Z</time>
</trkpt>
<trkpt lat="49.5015316" lon="1.3159502">
<ele>103.0</ele>
<time>2026-09-01T12:22:52.798Z</time>
</trkpt>
<trkpt lat="49.5015547" lon="1.3160137">
<ele>104.0</ele>
<time>2026-09-01T12:22:57.112Z</time>
</trkpt>
<trkpt lat="49.5015952" lon="1.3160713">
<ele>104.0</ele>
<time>2026-09-01T12:23:01.724Z</time>
</trkpt>
<trkpt lat="49.5016229" lon="1.3161234">
<ele>104.0</ele>
<time>2026-09-01T12:23:06.114Z</time>
</trkpt>
<trkpt lat="49.5016426" lon="1.3161978">
<ele>104.0</ele>
<time>2026-09-01T12:23:10.759Z</time>
</trkpt>
<trkpt lat="49.5016536" lon="1.316266">
<ele>108.0</ele>
<time>2026-09-01T12:23:15.396Z</time>
</trkpt>
<trkpt lat="49.501658" lon="1.3163419">
<ele>108.0</ele>
<time>2026-09-01T12:23:19.844Z</time>
</trkpt>
<trkpt lat="49.5016701" lon="1.3163995">
<ele>108.0</ele>
<time>2026-09-01T12:23:23.876Z</time>
</trkpt>
<trkpt lat="49.5017052" lon="1.3164413">
<ele>108.0</ele>
<time>2026-09-01T12:23:27.917Z</time>
</trkpt>
<trkpt lat="49.5017394" lon="1.3164694">
<ele>108.0</ele>
<time>2026-09-01T12:23:32.110Z</time>
</trkpt>
<trkpt lat="49.5017681" lon="1.316509">
<ele>108.0</ele>
<time>2026-09-01T12:23:36.664Z</time>
</trkpt>
<trkpt lat="49.50179" lon="1.3165701">
<ele>111.0</ele>
<time>2026-09-01T12:23:41.113Z</time>
</trkpt>
<trkpt lat="49.5018074" lon="1.3166369">
<ele>108.0</ele>
<time>2026-09-01T12:23:45.362Z</time>
</trkpt>
<trkpt lat="49.5018364" lon="1.3166976">
<ele>108.0</ele>
<time>2026-09-01T12:23:49.999Z</time>
</trkpt>
<trkpt lat="49.5018562" lon="1.3167644">
<ele>108.0</ele>
<time>2026-09-01T12:23:54.377Z</time>
</trkpt>
<trkpt lat="49.5018804" lon="1.3168268">
<ele>111.0</ele>
<time>2026-09-01T12:23:58.935Z</time>
</trkpt>
<trkpt lat="49.5018815" lon="1.316902">
<ele>111.0</ele>
<time>2026-09-01T12:24:03.442Z</time>
</trkpt>
<trkpt lat="49.5019132" lon="1.3169565">
<ele>111.0</ele>
<time>2026-09-01T12:24:07.762Z</time>
</trkpt>
<trkpt lat="49.5019451" lon="1.3170161">
<ele>111.0</ele>
<time>2026-09-01T12:24:12.111Z</time>
</trkpt>
<trkpt lat="49.5019639" lon="1.3170789">
<ele>111.0</ele>
<time>2026-09-01T12:24:16.102Z</time>
</trkpt>
<trkpt lat="49.5019975" lon="1.3171344">
<ele>114.0</ele>
<time>2026-09-01T12:24:20.620Z</time>
</trkpt>
<trkpt lat="49.5020366" lon="1.3171906">
<ele>114.0</ele>
<time>2026-09-01T12:24:24.959Z</time>
</trkpt>
<trkpt lat="49.5020726" lon="1.3172551">
<ele>114.0</ele>
<time>2026-09-01T12:24:29.496Z</time>
</trkpt>
<trkpt lat="49.5021044" lon="1.3173132">
<ele>110.0</ele>
<time>2026-09-01T12:24:33.795Z</time>
</trkpt>
<trkpt lat="49.5021426" lon="1.3173688">
<ele>112.0</ele>
<time>2026-09-01T12:24:38.102Z</time>
</trkpt>
<trkpt lat="49.5021823" lon="1.3174259">
<ele>112.0</ele>
<time>2026-09-01T12:24:42.662Z</time>
</trkpt>
<trkpt lat="49.5022156" lon="1.317484">
<ele>112.0</ele>
<time>2026-09-01T12:24:47.041Z</time>
</trkpt>
<trkpt lat="49.502241" lon="1.3175446">
<ele>112.0</ele>
<time>2026-09-01T12:24:51.360Z</time>
</trkpt>
<trkpt lat="49.5022759" lon="1.317588">
<ele>112.0</ele>
<time>2026-09-01T12:24:55.758Z</time>
</trkpt>
<trkpt lat="49.502314" lon="1.3176299">
<ele>112.0</ele>
<time>2026-09-01T12:25:00.038Z</time>
</trkpt>
<trkpt lat="49.5023586" lon="1.3176693">
<ele>116.0</ele>
<time>2026-09-01T12:25:04.476Z</time>
</trkpt>
<trkpt lat="49.5024005" lon="1.3177121">
<ele>113.0</ele>
<time>2026-09-01T12:25:08.885Z</time>
</trkpt>
<trkpt lat="49.5024302" lon="1.3177754">
<ele>113.0</ele>
<time>2026-09-01T12:25:13.105Z</time>
</trkpt>
<trkpt lat="49.5024647" lon="1.317828">
<ele>113.0</ele>
<time>2026-09-01T12:25:17.662Z</time>
</trkpt>
<trkpt lat="49.5025092" lon="1.3178596">
<ele>113.0</ele>
<time>2026-09-01T12:25:22.107Z</time>
</trkpt>
<trkpt lat="49.5025638" lon="1.3178783">
<ele>113.0</ele>
<time>2026-09-01T12:25:26.578Z</time>
</trkpt>
<trkpt lat="49.5026224" lon="1.3179028">
<ele>113.0</ele>
<time>2026-09-01T12:25:31.096Z</time>
</trkpt>
<trkpt lat="49.5026728" lon="1.3179254">
<ele>115.0</ele>
<time>2026-09-01T12:25:35.564Z</time>
</trkpt>
<trkpt lat="49.5027156" lon="1.3179455">
<ele>115.0</ele>
<time>2026-09-01T12:25:39.962Z</time>
</trkpt>
<trkpt lat="49.5027608" lon="1.3179512">
<ele>115.0</ele>
<time>2026-09-01T12:25:44.639Z</time>
</trkpt>
<trkpt lat="49.5027987" lon="1.317964">
<ele>115.0</ele>
<time>2026-09-01T12:25:49.106Z</time>
</trkpt>
<trkpt lat="49.5028411" lon="1.3179612">
<ele>115.0</ele>
<time>2026-09-01T12:25:53.962Z</time>
</trkpt>
<trkpt lat="49.5028797" lon="1.3179386">
<ele>115.0</ele>
<time>2026-09-01T12:25:58.599Z</time>
</trkpt>
<trkpt lat="49.5029217" lon="1.3179171">
<ele>116.0</ele>
<time>2026-09-01T12:26:03.017Z</time>
</trkpt>
<trkpt lat="49.5029715" lon="1.3179229">
<ele>116.0</ele>
<time>2026-09-01T12:26:07.704Z</time>
</trkpt>
<trkpt lat="49.5030197" lon="1.317939">
<ele>116.0</ele>
<time>2026-09-01T12:26:12.043Z</time>
</trkpt>
<trkpt lat="49.5030742" lon="1.3179571">
<ele>116.0</ele>
<time>2026-09-01T12:26:16.640Z</time>
</trkpt>
<trkpt lat="49.5031252" lon="1.317952">
<ele>116.0</ele>
<time>2026-09-01T12:26:21.108Z</time>
</trkpt>
<trkpt lat="49.5031655" lon="1.3179778">
<ele>116.0</ele>
<time>2026-09-01T12:26:25.179Z</time>
</trkpt>
<trkpt lat="49.5032112" lon="1.3179923">
<ele>117.0</ele>
<time>2026-09-01T12:26:29.915Z</time>
</trkpt>
<trkpt lat="49.5032635" lon="1.3179818">
<ele>117.0</ele>
<time>2026-09-01T12:26:34.343Z</time>
</trkpt>
<trkpt lat="49.5033105" lon="1.317976">
<ele>117.0</ele>
<time>2026-09-01T12:26:38.980Z</time>
</trkpt>
<trkpt lat="49.5033593" lon="1.3180254">
<ele>117.0</ele>
<time>2026-09-01T12:26:43.478Z</time>
</trkpt>
<trkpt lat="49.5034069" lon="1.3180573">
<ele>117.0</ele>
<time>2026-09-01T12:26:48.075Z</time>
</trkpt>
<trkpt lat="49.5034481" lon="1.3180646">
<ele>117.0</ele>
<time>2026-09-01T12:26:52.109Z</time>
</trkpt>
<trkpt lat="49.5034943" lon="1.318078">
<ele>120.0</ele>
<time>2026-09-01T12:26:56.564Z</time>
</trkpt>
<trkpt lat="49.5035331" lon="1.3180769">
<ele>120.0</ele>
<time>2026-09-01T12:27:00.576Z</time>
</trkpt>
<trkpt lat="49.5035751" lon="1.3180897">
<ele>120.0</ele>
<time>2026-09-01T12:27:04.676Z</time>
</trkpt>
<trkpt lat="49.503608" lon="1.3180891">
<ele>120.0</ele>
<time>2026-09-01T12:27:09.109Z</time>
</trkpt>
<trkpt lat="49.5036518" lon="1.3180952">
<ele>120.0</ele>
<time>2026-09-01T12:27:13.364Z</time>
</trkpt>
<trkpt lat="49.5036998" lon="1.3181082">
<ele>120.0</ele>
<time>2026-09-01T12:27:17.584Z</time>
</trkpt>
<trkpt lat="49.5037439" lon="1.318129">
<ele>120.0</ele>
<time>2026-09-01T12:27:21.883Z</time>
</trkpt>
<trkpt lat="49.5037845" lon="1.3181655">
<ele>122.0</ele>
<time>2026-09-01T12:27:26.107Z</time>
</trkpt>
<trkpt lat="49.5038209" lon="1.318222">
<ele>121.0</ele>
<time>2026-09-01T12:27:30.641Z</time>
</trkpt>
<trkpt lat="49.5038612" lon="1.3182605">
<ele>121.0</ele>
<time>2026-09-01T12:27:35.039Z</time>
</trkpt>
<trkpt lat="49.5039029" lon="1.3182894">
<ele>121.0</ele>
<time>2026-09-01T12:27:39.438Z</time>
</trkpt>
<trkpt lat="49.5039396" lon="1.3183259">
<ele>121.0</ele>
<time>2026-09-01T12:27:43.896Z</time>
</trkpt>
<trkpt lat="49.5039623" lon="1.3183872">
<ele>121.0</ele>
<time>2026-09-01T12:27:48.324Z</time>
</trkpt>
<trkpt lat="49.5039915" lon="1.3184471">
<ele>121.0</ele>
<time>2026-09-01T12:27:52.842Z</time>
</trkpt>
<trkpt lat="49.5040235" lon="1.3185065">
<ele>120.0</ele>
<time>2026-09-01T12:27:57.240Z</time>
</trkpt>
<trkpt lat="49.5040569" lon="1.3185692">
<ele>122.0</ele>
<time>2026-09-01T12:28:01.857Z</time>
</trkpt>
<trkpt lat="49.5040899" lon="1.3186134">
<ele>122.0</ele>
<time>2026-09-01T12:28:06.296Z</time>
</trkpt>
<trkpt lat="49.5041238" lon="1.3186764">
<ele>122.0</ele>
<time>2026-09-01T12:28:10.883Z</time>
</trkpt>
<trkpt lat="49.5041526" lon="1.3187466">
<ele>122.0</ele>
<time>2026-09-01T12:28:15.301Z</time>
</trkpt>
<trkpt lat="49.5041669" lon="1.3188249">
<ele>121.0</ele>
<time>2026-09-01T12:28:19.839Z</time>
</trkpt>
<trkpt lat="49.5041694" lon="1.3188975">
<ele>121.0</ele>
<time>2026-09-01T12:28:24.237Z</time>
</trkpt>
<trkpt lat="49.5041788" lon="1.3189729">
<ele>121.0</ele>
<time>2026-09-01T12:28:28.964Z</time>
</trkpt>
<trkpt lat="49.5041882" lon="1.3190384">
<ele>121.0</ele>
<time>2026-09-01T12:28:33.422Z</time>
</trkpt>
<trkpt lat="49.5041912" lon="1.3191046">
<ele>121.0</ele>
<time>2026-09-01T12:28:37.463Z</time>
</trkpt>
<trkpt lat="49.5041959" lon="1.3191784">
<ele>121.0</ele>
<time>2026-09-01T12:28:42.080Z</time>
</trkpt>
<trkpt lat="49.5042108" lon="1.319237">
<ele>121.0</ele>
<time>2026-09-01T12:28:46.399Z</time>
</trkpt>
<trkpt lat="49.5042161" lon="1.319305">
<ele>121.0</ele>
<time>2026-09-01T12:28:50.976Z</time>
</trkpt>
<trkpt lat="49.5042014" lon="1.319376">
<ele>120.0</ele>
<time>2026-09-01T12:28:55.603Z</time>
</trkpt>
<trkpt lat="49.5041887" lon="1.3194222">
<ele>120.0</ele>
<time>2026-09-01T12:29:00.111Z</time>
</trkpt>
<trkpt lat="49.5042611" lon="1.319473">
<ele>120.0</ele>
<time>2026-09-01T12:32:50.098Z</time>
</trkpt>
<trkpt lat="49.5042612" lon="1.3194802">
<ele>120.0</ele>
<time>2026-09-01T12:32:54.457Z</time>
</trkpt>
<trkpt lat="49.5042569" lon="1.3195334">
<ele>120.0</ele>
<time>2026-09-01T12:32:59.106Z</time>
</trkpt>
<trkpt lat="49.5042442" lon="1.3196149">
<ele>119.0</ele>
<time>2026-09-01T12:33:03.622Z</time>
</trkpt>
<trkpt lat="49.5042317" lon="1.3196845">
<ele>119.0</ele>
<time>2026-09-01T12:33:07.683Z</time>
</trkpt>
<trkpt lat="49.5042216" lon="1.3197533">
<ele>119.0</ele>
<time>2026-09-01T12:33:12.002Z</time>
</trkpt>
<trkpt lat="49.5042162" lon="1.3198237">
<ele>119.0</ele>
<time>2026-09-01T12:33:16.115Z</time>
</trkpt>
<trkpt lat="49.5042162" lon="1.3198955">
<ele>121.0</ele>
<time>2026-09-01T12:33:20.998Z</time>
</trkpt>
<trkpt lat="49.5042035" lon="1.3199631">
<ele>121.0</ele>
<time>2026-09-01T12:33:25.105Z</time>
</trkpt>
<trkpt lat="49.5041916" lon="1.3200267">
<ele>121.0</ele>
<time>2026-09-01T12:33:29.457Z</time>
</trkpt>
<trkpt lat="49.5041868" lon="1.3201064">
<ele>121.0</ele>
<time>2026-09-01T12:33:33.479Z</time>
</trkpt>
<trkpt lat="49.504197" lon="1.32018">
<ele>123.0</ele>
<time>2026-09-01T12:33:37.639Z</time>
</trkpt>
<trkpt lat="49.5042078" lon="1.3202548">
<ele>123.0</ele>
<time>2026-09-01T12:33:41.799Z</time>
</trkpt>
<trkpt lat="49.5042145" lon="1.3203216">
<ele>123.0</ele>
<time>2026-09-01T12:33:45.821Z</time>
</trkpt>
<trkpt lat="49.5042157" lon="1.3203809">
<ele>123.0</ele>
<time>2026-09-01T12:33:49.961Z</time>
</trkpt>
<trkpt lat="49.5042221" lon="1.3204524">
<ele>124.0</ele>
<time>2026-09-01T12:33:54.399Z</time>
</trkpt>
<trkpt lat="49.5042238" lon="1.3205308">
<ele>124.0</ele>
<time>2026-09-01T12:33:59.096Z</time>
</trkpt>
<trkpt lat="49.5042312" lon="1.3205867">
<ele>124.0</ele>
<time>2026-09-01T12:34:03.485Z</time>
</trkpt>
<trkpt lat="49.5042325" lon="1.3206318">
<ele>124.0</ele>
<time>2026-09-01T12:34:07.704Z</time>
</trkpt>
<trkpt lat="49.5042372" lon="1.3206801">
<ele>124.0</ele>
<time>2026-09-01T12:34:11.815Z</time>
</trkpt>
<trkpt lat="49.5042327" lon="1.3207323">
<ele>125.0</ele>
<time>2026-09-01T12:34:15.936Z</time>
</trkpt>
<trkpt lat="49.504249" lon="1.3207855">
<ele>125.0</ele>
<time>2026-09-01T12:34:20.463Z</time>
</trkpt>
<trkpt lat="49.5042643" lon="1.3208523">
<ele>125.0</ele>
<time>2026-09-01T12:34:25.021Z</time>
</trkpt>
<trkpt lat="49.5042884" lon="1.3209234">
<ele>125.0</ele>
<time>2026-09-01T12:34:29.598Z</time>
</trkpt>
<trkpt lat="49.5043264" lon="1.3209851">
<ele>127.0</ele>
<time>2026-09-01T12:34:34.100Z</time>
</trkpt>
<trkpt lat="49.5043553" lon="1.3210273">
<ele>127.0</ele>
<time>2026-09-01T12:34:38.105Z</time>
</trkpt>
<trkpt lat="49.5043925" lon="1.3210708">
<ele>127.0</ele>
<time>2026-09-01T12:34:42.516Z</time>
</trkpt>
<trkpt lat="49.5044088" lon="1.3211387">
<ele>127.0</ele>
<time>2026-09-01T12:34:47.107Z</time>
</trkpt>
<trkpt lat="49.5044245" lon="1.3212023">
<ele>127.0</ele>
<time>2026-09-01T12:34:51.840Z</time>
</trkpt>
<trkpt lat="49.5044386" lon="1.3212596">
<ele>127.0</ele>
<time>2026-09-01T12:34:55.921Z</time>
</trkpt>
<trkpt lat="49.50446" lon="1.3213122">
<ele>127.0</ele>
<time>2026-09-01T12:35:00.617Z</time>
</trkpt>
<trkpt lat="49.5044832" lon="1.3213745">
<ele>127.0</ele>
<time>2026-09-01T12:35:05.102Z</time>
</trkpt>
<trkpt lat="49.5045008" lon="1.3214491">
<ele>127.0</ele>
<time>2026-09-01T12:35:09.921Z</time>
</trkpt>
<trkpt lat="49.5045179" lon="1.3215197">
<ele>127.0</ele>
<time>2026-09-01T12:35:14.439Z</time>
</trkpt>
<trkpt lat="49.5045394" lon="1.3215862">
<ele>129.0</ele>
<time>2026-09-01T12:35:19.103Z</time>
</trkpt>
<trkpt lat="49.5045528" lon="1.3216488">
<ele>129.0</ele>
<time>2026-09-01T12:35:23.108Z</time>
</trkpt>
<trkpt lat="49.5045721" lon="1.3217238">
<ele>129.0</ele>
<time>2026-09-01T12:35:27.883Z</time>
</trkpt>
<trkpt lat="49.5045919" lon="1.3217899">
<ele>133.0</ele>
<time>2026-09-01T12:35:32.103Z</time>
</trkpt>
<trkpt lat="49.5046177" lon="1.3218574">
<ele>133.0</ele>
<time>2026-09-01T12:35:36.799Z</time>
</trkpt>
<trkpt lat="49.504642" lon="1.3219254">
<ele>133.0</ele>
<time>2026-09-01T12:35:40.741Z</time>
</trkpt>
<trkpt lat="49.5046614" lon="1.3219823">
<ele>133.0</ele>
<time>2026-09-01T12:35:44.921Z</time>
</trkpt>
<trkpt lat="49.5046859" lon="1.3220268">
<ele>133.0</ele>
<time>2026-09-01T12:35:48.962Z</time>
</trkpt>
<trkpt lat="49.5047143" lon="1.322064">
<ele>133.0</ele>
<time>2026-09-01T12:35:53.101Z</time>
</trkpt>
<trkpt lat="49.5047479" lon="1.3220906">
<ele>133.0</ele>
<time>2026-09-01T12:35:57.106Z</time>
</trkpt>
<trkpt lat="49.5047834" lon="1.3221124">
<ele>133.0</ele>
<time>2026-09-01T12:36:01.344Z</time>
</trkpt>
<trkpt lat="49.5048075" lon="1.3221448">
<ele>133.0</ele>
<time>2026-09-01T12:36:05.395Z</time>
</trkpt>
<trkpt lat="49.5048324" lon="1.3221829">
<ele>133.0</ele>
<time>2026-09-01T12:36:09.536Z</time>
</trkpt>
<trkpt lat="49.504848" lon="1.3222347">
<ele>133.0</ele>
<time>2026-09-01T12:36:13.696Z</time>
</trkpt>
<trkpt lat="49.5048684" lon="1.3223061">
<ele>135.0</ele>
<time>2026-09-01T12:36:18.097Z</time>
</trkpt>
<trkpt lat="49.5048947" lon="1.3223753">
<ele>134.0</ele>
<time>2026-09-01T12:36:22.404Z</time>
</trkpt>
<trkpt lat="49.5049064" lon="1.3224436">
<ele>134.0</ele>
<time>2026-09-01T12:36:26.475Z</time>
</trkpt>
<trkpt lat="49.5049148" lon="1.3224942">
<ele>134.0</ele>
<time>2026-09-01T12:36:30.615Z</time>
</trkpt>
<trkpt lat="49.5049259" lon="1.3225561">
<ele>134.0</ele>
<time>2026-09-01T12:36:34.875Z</time>
</trkpt>
<trkpt lat="49.504941" lon="1.322632">
<ele>134.0</ele>
<time>2026-09-01T12:36:39.035Z</time>
</trkpt>
<trkpt lat="49.5049491" lon="1.3226956">
<ele>132.0</ele>
<time>2026-09-01T12:36:43.109Z</time>
</trkpt>
<trkpt lat="49.5049625" lon="1.3227623">
<ele>132.0</ele>
<time>2026-09-01T12:36:47.108Z</time>
</trkpt>
<trkpt lat="49.5049667" lon="1.3228489">
<ele>132.0</ele>
<time>2026-09-01T12:36:51.943Z</time>
</trkpt>
<trkpt lat="49.504973" lon="1.3229366">
<ele>132.0</ele>
<time>2026-09-01T12:36:56.600Z</time>
</trkpt>
<trkpt lat="49.504979" lon="1.3230173">
<ele>132.0</ele>
<time>2026-09-01T12:37:00.661Z</time>
</trkpt>
<trkpt lat="49.5049874" lon="1.3231065">
<ele>132.0</ele>
<time>2026-09-01T12:37:05.278Z</time>
</trkpt>
<trkpt lat="49.504987" lon="1.3231651">
<ele>132.0</ele>
<time>2026-09-01T12:37:09.379Z</time>
</trkpt>
<trkpt lat="49.5049823" lon="1.32322">
<ele>132.0</ele>
<time>2026-09-01T12:37:13.460Z</time>
</trkpt>
<trkpt lat="49.5049799" lon="1.3232722">
<ele>132.0</ele>
<time>2026-09-01T12:37:17.680Z</time>
</trkpt>
<trkpt lat="49.5049756" lon="1.3233231">
<ele>132.0</ele>
<time>2026-09-01T12:37:21.682Z</time>
</trkpt>
<trkpt lat="49.5049557" lon="1.3233705">
<ele>132.0</ele>
<time>2026-09-01T12:37:25.842Z</time>
</trkpt>
<trkpt lat="49.5049535" lon="1.3234386">
<ele>132.0</ele>
<time>2026-09-01T12:37:30.399Z</time>
</trkpt>
<trkpt lat="49.5049411" lon="1.323504">
<ele>134.0</ele>
<time>2026-09-01T12:37:34.838Z</time>
</trkpt>
<trkpt lat="49.5049259" lon="1.3235628">
<ele>134.0</ele>
<time>2026-09-01T12:37:38.879Z</time>
</trkpt>
<trkpt lat="49.5049238" lon="1.3236249">
<ele>134.0</ele>
<time>2026-09-01T12:37:43.059Z</time>
</trkpt>
<trkpt lat="49.5049236" lon="1.3236877">
<ele>134.0</ele>
<time>2026-09-01T12:37:47.105Z</time>
</trkpt>
<trkpt lat="49.5049313" lon="1.3237512">
<ele>136.0</ele>
<time>2026-09-01T12:37:51.105Z</time>
</trkpt>
<trkpt lat="49.5049377" lon="1.3238117">
<ele>136.0</ele>
<time>2026-09-01T12:37:55.322Z</time>
</trkpt>
<trkpt lat="49.5049335" lon="1.3238661">
<ele>136.0</ele>
<time>2026-09-01T12:37:59.423Z</time>
</trkpt>
<trkpt lat="49.5049391" lon="1.3239308">
<ele>136.0</ele>
<time>2026-09-01T12:38:04.110Z</time>
</trkpt>
<trkpt lat="49.5049587" lon="1.3239906">
<ele>136.0</ele>
<time>2026-09-01T12:38:08.112Z</time>
</trkpt>
<trkpt lat="49.5049957" lon="1.3240468">
<ele>138.0</ele>
<time>2026-09-01T12:38:12.519Z</time>
</trkpt>
<trkpt lat="49.5050321" lon="1.3240902">
<ele>138.0</ele>
<time>2026-09-01T12:38:16.660Z</time>
</trkpt>
<trkpt lat="49.5050638" lon="1.3241056">
<ele>138.0</ele>
<time>2026-09-01T12:38:21.111Z</time>
</trkpt>
<trkpt lat="49.5050925" lon="1.3241382">
<ele>138.0</ele>
<time>2026-09-01T12:38:25.111Z</time>
</trkpt>
<trkpt lat="49.5051161" lon="1.3241899">
<ele>138.0</ele>
<time>2026-09-01T12:38:29.439Z</time>
</trkpt>
<trkpt lat="49.5051296" lon="1.3242653">
<ele>138.0</ele>
<time>2026-09-01T12:38:33.758Z</time>
</trkpt>
<trkpt lat="49.505155" lon="1.3243273">
<ele>143.0</ele>
<time>2026-09-01T12:38:38.077Z</time>
</trkpt>
<trkpt lat="49.5051866" lon="1.3243587">
<ele>143.0</ele>
<time>2026-09-01T12:38:42.106Z</time>
</trkpt>
<trkpt lat="49.5052254" lon="1.324386">
<ele>143.0</ele>
<time>2026-09-01T12:38:46.676Z</time>
</trkpt>
<trkpt lat="49.5052569" lon="1.324414">
<ele>143.0</ele>
<time>2026-09-01T12:38:51.102Z</time>
</trkpt>
<trkpt lat="49.5052829" lon="1.3244342">
<ele>143.0</ele>
<time>2026-09-01T12:38:55.102Z</time>
</trkpt>
<trkpt lat="49.5053183" lon="1.3244456">
<ele>143.0</ele>
<time>2026-09-01T12:38:59.683Z</time>
</trkpt>
<trkpt lat="49.5053517" lon="1.3244607">
<ele>143.0</ele>
<time>2026-09-01T12:39:03.824Z</time>
</trkpt>
<trkpt lat="49.5053808" lon="1.3244677">
<ele>143.0</ele>
<time>2026-09-01T12:39:08.101Z</time>
</trkpt>
<trkpt lat="49.5054175" lon="1.3245037">
<ele>146.0</ele>
<time>2026-09-01T12:39:12.860Z</time>
</trkpt>
<trkpt lat="49.5054625" lon="1.3245184">
<ele>146.0</ele>
<time>2026-09-01T12:39:17.477Z</time>
</trkpt>
<trkpt lat="49.5055014" lon="1.3245471">
<ele>146.0</ele>
<time>2026-09-01T12:39:22.044Z</time>
</trkpt>
<trkpt lat="49.5055258" lon="1.3245866">
<ele>146.0</ele>
<time>2026-09-01T12:39:26.443Z</time>
</trkpt>
<trkpt lat="49.5055371" lon="1.3246477">
<ele>146.0</ele>
<time>2026-09-01T12:39:30.981Z</time>
</trkpt>
<trkpt lat="49.5055509" lon="1.3246885">
<ele>146.0</ele>
<time>2026-09-01T12:39:35.105Z</time>
</trkpt>
<trkpt lat="49.505573" lon="1.3247206">
<ele>146.0</ele>
<time>2026-09-01T12:39:40.036Z</time>
</trkpt>
<trkpt lat="49.5055993" lon="1.3247465">
<ele>146.0</ele>
<time>2026-09-01T12:39:44.415Z</time>
</trkpt>
<trkpt lat="49.5056335" lon="1.3247747">
<ele>146.0</ele>
<time>2026-09-01T12:39:48.784Z</time>
</trkpt>
<trkpt lat="49.5056619" lon="1.3248135">
<ele>146.0</ele>
<time>2026-09-01T12:39:53.105Z</time>
</trkpt>
<trkpt lat="49.5056873" lon="1.3248576">
<ele>146.0</ele>
<time>2026-09-01T12:39:57.363Z</time>
</trkpt>
<trkpt lat="49.5057106" lon="1.3249052">
<ele>147.0</ele>
<time>2026-09-01T12:40:01.622Z</time>
</trkpt>
<trkpt lat="49.5057495" lon="1.324928">
<ele>147.0</ele>
<time>2026-09-01T12:40:05.783Z</time>
</trkpt>
<trkpt lat="49.5057889" lon="1.3249375">
<ele>147.0</ele>
<time>2026-09-01T12:40:10.082Z</time>
</trkpt>
<trkpt lat="49.5058265" lon="1.3249368">
<ele>147.0</ele>
<time>2026-09-01T12:40:14.421Z</time>
</trkpt>
<trkpt lat="49.5058655" lon="1.3249259">
<ele>147.0</ele>
<time>2026-09-01T12:40:18.721Z</time>
</trkpt>
<trkpt lat="49.505912" lon="1.3249353">
<ele>147.0</ele>
<time>2026-09-01T12:40:23.107Z</time>
</trkpt>
<trkpt lat="49.5059533" lon="1.3249287">
<ele>147.0</ele>
<time>2026-09-01T12:40:27.320Z</time>
</trkpt>
<trkpt lat="49.5059986" lon="1.3248827">
<ele>149.0</ele>
<time>2026-09-01T12:40:31.817Z</time>
</trkpt>
<trkpt lat="49.5060352" lon="1.3248821">
<ele>149.0</ele>
<time>2026-09-01T12:40:36.355Z</time>
</trkpt>
<trkpt lat="49.5060701" lon="1.3249133">
<ele>149.0</ele>
<time>2026-09-01T12:40:40.863Z</time>
</trkpt>
<trkpt lat="49.5060874" lon="1.3249546">
<ele>149.0</ele>
<time>2026-09-01T12:40:45.111Z</time>
</trkpt>
<trkpt lat="49.506107" lon="1.3250089">
<ele>149.0</ele>
<time>2026-09-01T12:40:49.919Z</time>
</trkpt>
<trkpt lat="49.5061369" lon="1.325029">
<ele>149.0</ele>
<time>2026-09-01T12:40:54.317Z</time>
</trkpt>
<trkpt lat="49.5061657" lon="1.325076">
<ele>149.0</ele>
<time>2026-09-01T12:40:58.925Z</time>
</trkpt>
<trkpt lat="49.5061898" lon="1.3251385">
<ele>149.0</ele>
<time>2026-09-01T12:41:03.542Z</time>
</trkpt>
<trkpt lat="49.5062185" lon="1.3251802">
<ele>149.0</ele>
<time>2026-09-01T12:41:07.662Z</time>
</trkpt>
<trkpt lat="49.5062396" lon="1.3252517">
<ele>149.0</ele>
<time>2026-09-01T12:41:12.103Z</time>
</trkpt>
<trkpt lat="49.5062559" lon="1.3253283">
<ele>150.0</ele>
<time>2026-09-01T12:41:16.857Z</time>
</trkpt>
<trkpt lat="49.5062789" lon="1.3253931">
<ele>150.0</ele>
<time>2026-09-01T12:41:21.464Z</time>
</trkpt>
<trkpt lat="49.5063058" lon="1.3254375">
<ele>150.0</ele>
<time>2026-09-01T12:41:26.002Z</time>
</trkpt>
<trkpt lat="49.506334" lon="1.3254859">
<ele>150.0</ele>
<time>2026-09-01T12:41:30.043Z</time>
</trkpt>
<trkpt lat="49.5063688" lon="1.3255097">
<ele>150.0</ele>
<time>2026-09-01T12:41:35.110Z</time>
</trkpt>
<trkpt lat="49.5063994" lon="1.3255232">
<ele>150.0</ele>
<time>2026-09-01T12:43:40.105Z</time>
</trkpt>
<trkpt lat="49.506427" lon="1.3255106">
<ele>150.0</ele>
<time>2026-09-01T12:43:45.098Z</time>
</trkpt>
<trkpt lat="49.5064328" lon="1.325491">
<ele>150.0</ele>
<time>2026-09-01T12:43:50.107Z</time>
</trkpt>
<trkpt lat="49.5064353" lon="1.3254926">
<ele>150.0</ele>
<time>2026-09-01T12:43:55.099Z</time>
</trkpt>
<trkpt lat="49.5064611" lon="1.3254641">
<ele>150.0</ele>
<time>2026-09-01T12:43:59.360Z</time>
</trkpt>
<trkpt lat="49.5065194" lon="1.3254613">
<ele>150.0</ele>
<time>2026-09-01T12:44:03.739Z</time>
</trkpt>
<trkpt lat="49.5065694" lon="1.3254491">
<ele>150.0</ele>
<time>2026-09-01T12:44:07.900Z</time>
</trkpt>
<trkpt lat="49.5066115" lon="1.325414">
<ele>150.0</ele>
<time>2026-09-01T12:44:12Z</time>
</trkpt>
<trkpt lat="49.5066713" lon="1.3253756">
<ele>150.0</ele>
<time>2026-09-01T12:44:16.657Z</time>
</trkpt>
<trkpt lat="49.5067268" lon="1.3253459">
<ele>150.0</ele>
<time>2026-09-01T12:44:21.104Z</time>
</trkpt>
<trkpt lat="49.5067677" lon="1.3253194">
<ele>150.0</ele>
<time>2026-09-01T12:44:25.316Z</time>
</trkpt>
<trkpt lat="49.5067977" lon="1.3252843">
<ele>150.0</ele>
<time>2026-09-01T12:44:29.595Z</time>
</trkpt>
<trkpt lat="49.5068424" lon="1.3252346">
<ele>151.0</ele>
<time>2026-09-01T12:44:34.108Z</time>
</trkpt>
<trkpt lat="49.5068895" lon="1.3252073">
<ele>151.0</ele>
<time>2026-09-01T12:44:38.224Z</time>
</trkpt>
<trkpt lat="49.5069476" lon="1.3251978">
<ele>151.0</ele>
<time>2026-09-01T12:44:42.464Z</time>
</trkpt>
<trkpt lat="49.5069976" lon="1.3251837">
<ele>151.0</ele>
<time>2026-09-01T12:44:46.565Z</time>
</trkpt>
<trkpt lat="49.5070461" lon="1.3251737">
<ele>151.0</ele>
<time>2026-09-01T12:44:50.655Z</time>
</trkpt>
<trkpt lat="49.5070902" lon="1.3251609">
<ele>152.0</ele>
<time>2026-09-01T12:44:55.100Z</time>
</trkpt>
<trkpt lat="49.5071364" lon="1.3251376">
<ele>152.0</ele>
<time>2026-09-01T12:44:59.463Z</time>
</trkpt>
<trkpt lat="49.5071805" lon="1.3251058">
<ele>152.0</ele>
<time>2026-09-01T12:45:03.683Z</time>
</trkpt>
<trkpt lat="49.5072438" lon="1.3250697">
<ele>152.0</ele>
<time>2026-09-01T12:45:08.260Z</time>
</trkpt>
<trkpt lat="49.507293" lon="1.3250324">
<ele>152.0</ele>
<time>2026-09-01T12:45:12.877Z</time>
</trkpt>
<trkpt lat="49.5073344" lon="1.3249881">
<ele>152.0</ele>
<time>2026-09-01T12:45:17.475Z</time>
</trkpt>
<trkpt lat="49.5073759" lon="1.324956">
<ele>153.0</ele>
<time>2026-09-01T12:45:21.457Z</time>
</trkpt>
<trkpt lat="49.5074259" lon="1.3249219">
<ele>153.0</ele>
<time>2026-09-01T12:45:25.677Z</time>
</trkpt>
<trkpt lat="49.5074759" lon="1.3248836">
<ele>153.0</ele>
<time>2026-09-01T12:45:30.102Z</time>
</trkpt>
<trkpt lat="49.5075206" lon="1.3248499">
<ele>153.0</ele>
<time>2026-09-01T12:45:34.176Z</time>
</trkpt>
<trkpt lat="49.5075707" lon="1.3248032">
<ele>153.0</ele>
<time>2026-09-01T12:45:38.744Z</time>
</trkpt>
<trkpt lat="49.5076175" lon="1.324781">
<ele>153.0</ele>
<time>2026-09-01T12:45:42.825Z</time>
</trkpt>
<trkpt lat="49.5076681" lon="1.3247493">
<ele>154.0</ele>
<time>2026-09-01T12:45:47.343Z</time>
</trkpt>
<trkpt lat="49.507709" lon="1.3247128">
<ele>154.0</ele>
<time>2026-09-01T12:45:51.324Z</time>
</trkpt>
<trkpt lat="49.5077545" lon="1.3246695">
<ele>154.0</ele>
<time>2026-09-01T12:45:55.455Z</time>
</trkpt>
<trkpt lat="49.5077994" lon="1.3246284">
<ele>154.0</ele>
<time>2026-09-01T12:46:00.082Z</time>
</trkpt>
<trkpt lat="49.5078468" lon="1.3245889">
<ele>154.0</ele>
<time>2026-09-01T12:46:04.659Z</time>
</trkpt>
<trkpt lat="49.5078946" lon="1.3245634">
<ele>153.0</ele>
<time>2026-09-01T12:46:09.107Z</time>
</trkpt>
<trkpt lat="49.5079435" lon="1.3245181">
<ele>154.0</ele>
<time>2026-09-01T12:46:13.824Z</time>
</trkpt>
<trkpt lat="49.5079828" lon="1.324451">
<ele>154.0</ele>
<time>2026-09-01T12:46:18.402Z</time>
</trkpt>
<trkpt lat="49.5080519" lon="1.3244101">
<ele>154.0</ele>
<time>2026-09-01T12:46:23.019Z</time>
</trkpt>
<trkpt lat="49.5081114" lon="1.3243838">
<ele>154.0</ele>
<time>2026-09-01T12:46:27.497Z</time>
</trkpt>
<trkpt lat="49.5081615" lon="1.3243544">
<ele>154.0</ele>
<time>2026-09-01T12:46:32.085Z</time>
</trkpt>
<trkpt lat="49.5082067" lon="1.3243161">
<ele>154.0</ele>
<time>2026-09-01T12:46:36.642Z</time>
</trkpt>
<trkpt lat="49.508255" lon="1.3242835">
<ele>152.0</ele>
<time>2026-09-01T12:46:41.107Z</time>
</trkpt>
<trkpt lat="49.5082977" lon="1.3242453">
<ele>152.0</ele>
<time>2026-09-01T12:46:45.201Z</time>
</trkpt>
<trkpt lat="49.5083498" lon="1.3242203">
<ele>152.0</ele>
<time>2026-09-01T12:46:49.719Z</time>
</trkpt>
<trkpt lat="49.5083942" lon="1.3241896">
<ele>152.0</ele>
<time>2026-09-01T12:46:53.761Z</time>
</trkpt>
<trkpt lat="49.5084467" lon="1.3241568">
<ele>152.0</ele>
<time>2026-09-01T12:46:58.318Z</time>
</trkpt>
<trkpt lat="49.5084996" lon="1.3241213">
<ele>153.0</ele>
<time>2026-09-01T12:47:02.915Z</time>
</trkpt>
<trkpt lat="49.508551" lon="1.3240942">
<ele>153.0</ele>
<time>2026-09-01T12:47:07.523Z</time>
</trkpt>
<trkpt lat="49.5086018" lon="1.3240653">
<ele>153.0</ele>
<time>2026-09-01T12:47:12.041Z</time>
</trkpt>
<trkpt lat="49.5086459" lon="1.3240341">
<ele>153.0</ele>
<time>2026-09-01T12:47:16.062Z</time>
</trkpt>
<trkpt lat="49.5087009" lon="1.3240161">
<ele>152.0</ele>
<time>2026-09-01T12:47:20.064Z</time>
</trkpt>
<trkpt lat="49.5087362" lon="1.3239889">
<ele>152.0</ele>
<time>2026-09-01T12:47:24.098Z</time>
</trkpt>
<trkpt lat="49.5087782" lon="1.3239569">
<ele>154.0</ele>
<time>2026-09-01T12:47:28.702Z</time>
</trkpt>
<trkpt lat="49.5088238" lon="1.3239358">
<ele>154.0</ele>
<time>2026-09-01T12:47:32.764Z</time>
</trkpt>
<trkpt lat="49.5088749" lon="1.3239073">
<ele>154.0</ele>
<time>2026-09-01T12:47:37.421Z</time>
</trkpt>
<trkpt lat="49.5089274" lon="1.3238782">
<ele>154.0</ele>
<time>2026-09-01T12:47:42.018Z</time>
</trkpt>
<trkpt lat="49.5089758" lon="1.3238577">
<ele>154.0</ele>
<time>2026-09-01T12:47:46.059Z</time>
</trkpt>
<trkpt lat="49.5090246" lon="1.3238373">
<ele>154.0</ele>
<time>2026-09-01T12:47:50.107Z</time>
</trkpt>
<trkpt lat="49.5090773" lon="1.3238117">
<ele>155.0</ele>
<time>2026-09-01T12:47:54.718Z</time>
</trkpt>
<trkpt lat="49.5091268" lon="1.3237822">
<ele>155.0</ele>
<time>2026-09-01T12:47:59.365Z</time>
</trkpt>
<trkpt lat="49.5091812" lon="1.3237643">
<ele>155.0</ele>
<time>2026-09-01T12:48:03.883Z</time>
</trkpt>
<trkpt lat="49.5092449" lon="1.3237562">
<ele>155.0</ele>
<time>2026-09-01T12:48:08.460Z</time>
</trkpt>
<trkpt lat="49.5093065" lon="1.323757">
<ele>155.0</ele>
<time>2026-09-01T12:48:12.998Z</time>
</trkpt>
<trkpt lat="49.5093673" lon="1.3237556">
<ele>155.0</ele>
<time>2026-09-01T12:48:17.575Z</time>
</trkpt>
<trkpt lat="49.5094268" lon="1.3237259">
<ele>156.0</ele>
<time>2026-09-01T12:48:22.115Z</time>
</trkpt>
<trkpt lat="49.5094814" lon="1.3236901">
<ele>156.0</ele>
<time>2026-09-01T12:48:26.283Z</time>
</trkpt>
<trkpt lat="49.5095384" lon="1.3236805">
<ele>156.0</ele>
<time>2026-09-01T12:48:30.762Z</time>
</trkpt>
<trkpt lat="49.5095839" lon="1.323664">
<ele>156.0</ele>
<time>2026-09-01T12:48:34.942Z</time>
</trkpt>
<trkpt lat="49.5096462" lon="1.3236656">
<ele>156.0</ele>
<time>2026-09-01T12:48:39.480Z</time>
</trkpt>
<trkpt lat="49.5097024" lon="1.3236647">
<ele>156.0</ele>
<time>2026-09-01T12:48:43.501Z</time>
</trkpt>
<trkpt lat="49.5097537" lon="1.3236515">
<ele>156.0</ele>
<time>2026-09-01T12:48:47.642Z</time>
</trkpt>
<trkpt lat="49.509812" lon="1.3236256">
<ele>156.0</ele>
<time>2026-09-01T12:48:52.103Z</time>
</trkpt>
<trkpt lat="49.5098543" lon="1.3235898">
<ele>156.0</ele>
<time>2026-09-01T12:48:56.380Z</time>
</trkpt>
<trkpt lat="49.5098967" lon="1.3235776">
<ele>156.0</ele>
<time>2026-09-01T12:49:00.600Z</time>
</trkpt>
<trkpt lat="49.5099346" lon="1.3235682">
<ele>156.0</ele>
<time>2026-09-01T12:49:04.681Z</time>
</trkpt>
<trkpt lat="49.5099819" lon="1.3235778">
<ele>156.0</ele>
<time>2026-09-01T12:49:08.702Z</time>
</trkpt>
<trkpt lat="49.5100359" lon="1.3235841">
<ele>156.0</ele>
<time>2026-09-01T12:49:13.220Z</time>
</trkpt>
<trkpt lat="49.5100849" lon="1.3235849">
<ele>156.0</ele>
<time>2026-09-01T12:49:17.837Z</time>
</trkpt>
<trkpt lat="49.5101343" lon="1.3235892">
<ele>156.0</ele>
<time>2026-09-01T12:49:22.395Z</time>
</trkpt>
<trkpt lat="49.5101857" lon="1.3235953">
<ele>156.0</ele>
<time>2026-09-01T12:49:26.456Z</time>
</trkpt>
<trkpt lat="49.5102358" lon="1.3236055">
<ele>156.0</ele>
<time>2026-09-01T12:49:30.776Z</time>
</trkpt>
<trkpt lat="49.51029" lon="1.3236255">
<ele>156.0</ele>
<time>2026-09-01T12:49:35.423Z</time>
</trkpt>
<trkpt lat="49.5103345" lon="1.3236428">
<ele>156.0</ele>
<time>2026-09-01T12:49:39.464Z</time>
</trkpt>
<trkpt lat="49.5103795" lon="1.3236693">
<ele>156.0</ele>
<time>2026-09-01T12:49:43.704Z</time>
</trkpt>
<trkpt lat="49.510436" lon="1.3236907">
<ele>157.0</ele>
<time>2026-09-01T12:49:47.755Z</time>
</trkpt>
<trkpt lat="49.5105061" lon="1.3236417">
<ele>157.0</ele>
<time>2026-09-01T12:50:05.102Z</time>
</trkpt>
<trkpt lat="49.5105076" lon="1.3236375">
<ele>157.0</ele>
<time>2026-09-01T12:50:09.104Z</time>
</trkpt>
<trkpt lat="49.5105507" lon="1.3236531">
<ele>157.0</ele>
<time>2026-09-01T12:50:13.104Z</time>
</trkpt>
<trkpt lat="49.5106039" lon="1.3236915">
<ele>157.0</ele>
<time>2026-09-01T12:50:17.464Z</time>
</trkpt>
<trkpt lat="49.5106542" lon="1.3237207">
<ele>157.0</ele>
<time>2026-09-01T12:50:21.704Z</time>
</trkpt>
<trkpt lat="49.5107035" lon="1.3237321">
<ele>157.0</ele>
<time>2026-09-01T12:50:25.865Z</time>
</trkpt>
<trkpt lat="49.5107544" lon="1.3237404">
<ele>157.0</ele>
<time>2026-09-01T12:50:29.936Z</time>
</trkpt>
<trkpt lat="49.5108006" lon="1.3237278">
<ele>157.0</ele>
<time>2026-09-01T12:50:33.937Z</time>
</trkpt>
<trkpt lat="49.5108471" lon="1.3237261">
<ele>157.0</ele>
<time>2026-09-01T12:50:38.105Z</time>
</trkpt>
<trkpt lat="49.5108967" lon="1.3237223">
<ele>157.0</ele>
<time>2026-09-01T12:50:42.278Z</time>
</trkpt>
<trkpt lat="49.5109505" lon="1.3237393">
<ele>157.0</ele>
<time>2026-09-01T12:50:46.438Z</time>
</trkpt>
<trkpt lat="49.5110081" lon="1.3237547">
<ele>157.0</ele>
<time>2026-09-01T12:50:50.976Z</time>
</trkpt>
<trkpt lat="49.5110564" lon="1.3237655">
<ele>157.0</ele>
<time>2026-09-01T12:50:55.057Z</time>
</trkpt>
<trkpt lat="49.5111148" lon="1.3237694">
<ele>157.0</ele>
<time>2026-09-01T12:50:59.764Z</time>
</trkpt>
<trkpt lat="49.5111671" lon="1.323781">
<ele>157.0</ele>
<time>2026-09-01T12:51:03.964Z</time>
</trkpt>
<trkpt lat="49.5112164" lon="1.3237848">
<ele>157.0</ele>
<time>2026-09-01T12:51:08.105Z</time>
</trkpt>
<trkpt lat="49.5112567" lon="1.3238068">
<ele>157.0</ele>
<time>2026-09-01T12:51:12.107Z</time>
</trkpt>
<trkpt lat="49.5112928" lon="1.3238467">
<ele>157.0</ele>
<time>2026-09-01T12:51:16.157Z</time>
</trkpt>
<trkpt lat="49.5113233" lon="1.3238914">
<ele>157.0</ele>
<time>2026-09-01T12:51:20.437Z</time>
</trkpt>
<trkpt lat="49.5113334" lon="1.3239459">
<ele>157.0</ele>
<time>2026-09-01T12:51:24.558Z</time>
</trkpt>
<trkpt lat="49.5113436" lon="1.3240116">
<ele>157.0</ele>
<time>2026-09-01T12:51:28.778Z</time>
</trkpt>
<trkpt lat="49.51135" lon="1.3240794">
<ele>157.0</ele>
<time>2026-09-01T12:51:32.799Z</time>
</trkpt>
<trkpt lat="49.5113611" lon="1.3241548">
<ele>157.0</ele>
<time>2026-09-01T12:51:37.059Z</time>
</trkpt>
<trkpt lat="49.5113733" lon="1.324222">
<ele>157.0</ele>
<time>2026-09-01T12:51:41.061Z</time>
</trkpt>
<trkpt lat="49.5113936" lon="1.3242934">
<ele>157.0</ele>
<time>2026-09-01T12:51:45.102Z</time>
</trkpt>
<trkpt lat="49.5114118" lon="1.3243528">
<ele>158.0</ele>
<time>2026-09-01T12:51:49.183Z</time>
</trkpt>
<trkpt lat="49.5114202" lon="1.324422">
<ele>158.0</ele>
<time>2026-09-01T12:51:53.463Z</time>
</trkpt>
<trkpt lat="49.5114244" lon="1.3245066">
<ele>158.0</ele>
<time>2026-09-01T12:51:58.080Z</time>
</trkpt>
<trkpt lat="49.5114234" lon="1.3245942">
<ele>158.0</ele>
<time>2026-09-01T12:52:02.757Z</time>
</trkpt>
<trkpt lat="49.5114233" lon="1.3246671">
<ele>158.0</ele>
<time>2026-09-01T12:52:06.838Z</time>
</trkpt>
<trkpt lat="49.5114349" lon="1.3247442">
<ele>158.0</ele>
<time>2026-09-01T12:52:11.100Z</time>
</trkpt>
<trkpt lat="49.5114505" lon="1.3248144">
<ele>158.0</ele>
<time>2026-09-01T12:52:15.098Z</time>
</trkpt>
<trkpt lat="49.5114632" lon="1.3248798">
<ele>158.0</ele>
<time>2026-09-01T12:52:19.098Z</time>
</trkpt>
<trkpt lat="49.51148" lon="1.3249418">
<ele>158.0</ele>
<time>2026-09-01T12:52:23.380Z</time>
</trkpt>
<trkpt lat="49.5114883" lon="1.3250067">
<ele>158.0</ele>
<time>2026-09-01T12:52:27.620Z</time>
</trkpt>
<trkpt lat="49.5114921" lon="1.3250729">
<ele>158.0</ele>
<time>2026-09-01T12:52:31.721Z</time>
</trkpt>
<trkpt lat="49.5115001" lon="1.325147">
<ele>158.0</ele>
<time>2026-09-01T12:52:35.961Z</time>
</trkpt>
<trkpt lat="49.5115026" lon="1.3252231">
<ele>158.0</ele>
<time>2026-09-01T12:52:40.082Z</time>
</trkpt>
<trkpt lat="49.5115015" lon="1.3253046">
<ele>158.0</ele>
<time>2026-09-01T12:52:44.401Z</time>
</trkpt>
<trkpt lat="49.5114923" lon="1.3253851">
<ele>158.0</ele>
<time>2026-09-01T12:52:48.403Z</time>
</trkpt>
<trkpt lat="49.5114843" lon="1.3254625">
<ele>159.0</ele>
<time>2026-09-01T12:52:52.662Z</time>
</trkpt>
<trkpt lat="49.5114857" lon="1.3255271">
<ele>159.0</ele>
<time>2026-09-01T12:52:56.783Z</time>
</trkpt>
<trkpt lat="49.5114864" lon="1.3255982">
<ele>159.0</ele>
<time>2026-09-01T12:53:00.944Z</time>
</trkpt>
<trkpt lat="49.5114866" lon="1.3256777">
<ele>159.0</ele>
<time>2026-09-01T12:53:05.541Z</time>
</trkpt>
<trkpt lat="49.5114858" lon="1.3257477">
<ele>159.0</ele>
<time>2026-09-01T12:53:09.642Z</time>
</trkpt>
<trkpt lat="49.5115246" lon="1.3258528">
<ele>159.0</ele>
<time>2026-09-01T12:55:52.099Z</time>
</trkpt>
<trkpt lat="49.5115297" lon="1.3258562">
<ele>160.0</ele>
<time>2026-09-01T12:55:56.106Z</time>
</trkpt>
<trkpt lat="49.5115334" lon="1.3258703">
<ele>160.0</ele>
<time>2026-09-01T12:56:02.102Z</time>
</trkpt>
<trkpt lat="49.5115523" lon="1.3258985">
<ele>160.0</ele>
<time>2026-09-01T12:56:06.102Z</time>
</trkpt>
<trkpt lat="49.511576" lon="1.3259601">
<ele>160.0</ele>
<time>2026-09-01T12:56:10.944Z</time>
</trkpt>
<trkpt lat="49.5116201" lon="1.3260382">
<ele>160.0</ele>
<time>2026-09-01T12:56:15.363Z</time>
</trkpt>
<trkpt lat="49.5116686" lon="1.3261086">
<ele>160.0</ele>
<time>2026-09-01T12:56:19.901Z</time>
</trkpt>
<trkpt lat="49.5117172" lon="1.3261712">
<ele>160.0</ele>
<time>2026-09-01T12:56:24.379Z</time>
</trkpt>
<trkpt lat="49.5117528" lon="1.3262394">
<ele>160.0</ele>
<time>2026-09-01T12:56:28.996Z</time>
</trkpt>
<trkpt lat="49.5117847" lon="1.3263029">
<ele>161.0</ele>
<time>2026-09-01T12:56:33.603Z</time>
</trkpt>
<trkpt lat="49.5118137" lon="1.3263639">
<ele>162.0</ele>
<time>2026-09-01T12:56:38.099Z</time>
</trkpt>
<trkpt lat="49.5118431" lon="1.3264318">
<ele>162.0</ele>
<time>2026-09-01T12:56:42.098Z</time>
</trkpt>
<trkpt lat="49.5118655" lon="1.3264986">
<ele>162.0</ele>
<time>2026-09-01T12:56:46.107Z</time>
</trkpt>
<trkpt lat="49.5118863" lon="1.3265664">
<ele>161.0</ele>
<time>2026-09-01T12:56:50.176Z</time>
</trkpt>
<trkpt lat="49.511915" lon="1.3266357">
<ele>161.0</ele>
<time>2026-09-01T12:56:54.803Z</time>
</trkpt>
<trkpt lat="49.5119516" lon="1.3266811">
<ele>161.0</ele>
<time>2026-09-01T12:56:58.884Z</time>
</trkpt>
<trkpt lat="49.5119993" lon="1.3267243">
<ele>161.0</ele>
<time>2026-09-01T12:57:03.481Z</time>
</trkpt>
<trkpt lat="49.5120546" lon="1.3267401">
<ele>161.0</ele>
<time>2026-09-01T12:57:08.019Z</time>
</trkpt>
<trkpt lat="49.5120986" lon="1.3267668">
<ele>161.0</ele>
<time>2026-09-01T12:57:12.100Z</time>
</trkpt>
<trkpt lat="49.5121451" lon="1.3267853">
<ele>161.0</ele>
<time>2026-09-01T12:57:16.420Z</time>
</trkpt>
<trkpt lat="49.5121846" lon="1.3268078">
<ele>162.0</ele>
<time>2026-09-01T12:57:20.421Z</time>
</trkpt>
<trkpt lat="49.5122282" lon="1.3268335">
<ele>162.0</ele>
<time>2026-09-01T12:57:24.621Z</time>
</trkpt>
<trkpt lat="49.5122783" lon="1.3268748">
<ele>162.0</ele>
<time>2026-09-01T12:57:29.105Z</time>
</trkpt>
<trkpt lat="49.5123235" lon="1.3269138">
<ele>162.0</ele>
<time>2026-09-01T12:57:33.340Z</time>
</trkpt>
<trkpt lat="49.5123756" lon="1.326948">
<ele>161.0</ele>
<time>2026-09-01T12:57:37.401Z</time>
</trkpt>
<trkpt lat="49.5124342" lon="1.3269706">
<ele>161.0</ele>
<time>2026-09-01T12:57:41.998Z</time>
</trkpt>
<trkpt lat="49.5124789" lon="1.3270184">
<ele>161.0</ele>
<time>2026-09-01T12:57:46.596Z</time>
</trkpt>
<trkpt lat="49.5125253" lon="1.3270702">
<ele>161.0</ele>
<time>2026-09-01T12:57:51.100Z</time>
</trkpt>
<trkpt lat="49.51257" lon="1.3271168">
<ele>161.0</ele>
<time>2026-09-01T12:57:55.110Z</time>
</trkpt>
<trkpt lat="49.5126172" lon="1.3271683">
<ele>161.0</ele>
<time>2026-09-01T12:57:59.742Z</time>
</trkpt>
<trkpt lat="49.5126522" lon="1.3272281">
<ele>160.0</ele>
<time>2026-09-01T12:58:03.923Z</time>
</trkpt>
<trkpt lat="49.512689" lon="1.327283">
<ele>160.0</ele>
<time>2026-09-01T12:58:07.904Z</time>
</trkpt>
<trkpt lat="49.5127314" lon="1.3273349">
<ele>160.0</ele>
<time>2026-09-01T12:58:12.101Z</time>
</trkpt>
<trkpt lat="49.5127686" lon="1.3273794">
<ele>161.0</ele>
<time>2026-09-01T12:58:16.216Z</time>
</trkpt>
<trkpt lat="49.5128151" lon="1.3274016">
<ele>161.0</ele>
<time>2026-09-01T12:58:20.823Z</time>
</trkpt>
<trkpt lat="49.5128487" lon="1.3274323">
<ele>161.0</ele>
<time>2026-09-01T12:58:25.098Z</time>
</trkpt>
<trkpt lat="49.5128942" lon="1.3274568">
<ele>161.0</ele>
<time>2026-09-01T12:58:29.601Z</time>
</trkpt>
<trkpt lat="49.5129292" lon="1.327498">
<ele>160.0</ele>
<time>2026-09-01T12:58:34.100Z</time>
</trkpt>
<trkpt lat="49.5129686" lon="1.3275245">
<ele>160.0</ele>
<time>2026-09-01T12:58:38.617Z</time>
</trkpt>
<trkpt lat="49.5129969" lon="1.3275569">
<ele>160.0</ele>
<time>2026-09-01T12:58:43.100Z</time>
</trkpt>
<trkpt lat="49.5130303" lon="1.3275863">
<ele>160.0</ele>
<time>2026-09-01T12:58:47.682Z</time>
</trkpt>
<trkpt lat="49.5130657" lon="1.3276105">
<ele>160.0</ele>
<time>2026-09-01T12:58:52.106Z</time>
</trkpt>
<trkpt lat="49.5131148" lon="1.3276243">
<ele>160.0</ele>
<time>2026-09-01T12:58:56.222Z</time>
</trkpt>
<trkpt lat="49.5131671" lon="1.3276416">
<ele>161.0</ele>
<time>2026-09-01T12:59:00.521Z</time>
</trkpt>
<trkpt lat="49.5132066" lon="1.327675">
<ele>161.0</ele>
<time>2026-09-01T12:59:04.602Z</time>
</trkpt>
<trkpt lat="49.5132438" lon="1.3277271">
<ele>161.0</ele>
<time>2026-09-01T12:59:08.882Z</time>
</trkpt>
<trkpt lat="49.5132798" lon="1.327775">
<ele>161.0</ele>
<time>2026-09-01T12:59:13.003Z</time>
</trkpt>
<trkpt lat="49.5133129" lon="1.3278127">
<ele>161.0</ele>
<time>2026-09-01T12:59:17.109Z</time>
</trkpt>
<trkpt lat="49.5133582" lon="1.3278512">
<ele>161.0</ele>
<time>2026-09-01T12:59:21.383Z</time>
</trkpt>
<trkpt lat="49.5134164" lon="1.3278732">
<ele>161.0</ele>
<time>2026-09-01T12:59:25.524Z</time>
</trkpt>
<trkpt lat="49.5134638" lon="1.3279052">
<ele>161.0</ele>
<time>2026-09-01T12:59:29.575Z</time>
</trkpt>
<trkpt lat="49.5135137" lon="1.3279185">
<ele>160.0</ele>
<time>2026-09-01T12:59:33.775Z</time>
</trkpt>
<trkpt lat="49.5135554" lon="1.327896">
<ele>161.0</ele>
<time>2026-09-01T12:59:37.797Z</time>
</trkpt>
<trkpt lat="49.5135805" lon="1.3278781">
<ele>161.0</ele>
<time>2026-09-01T12:59:42.099Z</time>
</trkpt>
<trkpt lat="49.5136168" lon="1.3278949">
<ele>161.0</ele>
<time>2026-09-01T12:59:46.743Z</time>
</trkpt>
<trkpt lat="49.5136632" lon="1.3279024">
<ele>161.0</ele>
<time>2026-09-01T12:59:51.100Z</time>
</trkpt>
<trkpt lat="49.5137107" lon="1.3279102">
<ele>161.0</ele>
<time>2026-09-01T12:59:55.422Z</time>
</trkpt>
<trkpt lat="49.5137563" lon="1.3279166">
<ele>161.0</ele>
<time>2026-09-01T12:59:59.662Z</time>
</trkpt>
<trkpt lat="49.5138075" lon="1.3279285">
<ele>160.0</ele>
<time>2026-09-01T13:00:03.683Z</time>
</trkpt>
<trkpt lat="49.5138595" lon="1.3279383">
<ele>160.0</ele>
<time>2026-09-01T13:00:07.824Z</time>
</trkpt>
<trkpt lat="49.5139198" lon="1.3279394">
<ele>160.0</ele>
<time>2026-09-01T13:00:12.461Z</time>
</trkpt>
<trkpt lat="49.5139767" lon="1.3279443">
<ele>160.0</ele>
<time>2026-09-01T13:00:17.059Z</time>
</trkpt>
<trkpt lat="49.5140225" lon="1.3279474">
<ele>160.0</ele>
<time>2026-09-01T13:00:21.109Z</time>
</trkpt>
<trkpt lat="49.5140764" lon="1.3279654">
<ele>160.0</ele>
<time>2026-09-01T13:00:25.737Z</time>
</trkpt>
<trkpt lat="49.5141244" lon="1.3279735">
<ele>160.0</ele>
<time>2026-09-01T13:00:29.818Z</time>
</trkpt>
<trkpt lat="49.5141695" lon="1.3279663">
<ele>160.0</ele>
<time>2026-09-01T13:00:33.919Z</time>
</trkpt>
<trkpt lat="49.514214" lon="1.3279679">
<ele>160.0</ele>
<time>2026-09-01T13:00:38.080Z</time>
</trkpt>
<trkpt lat="49.5142677" lon="1.3279657">
<ele>160.0</ele>
<time>2026-09-01T13:00:42.816Z</time>
</trkpt>
<trkpt lat="49.5143148" lon="1.3279661">
<ele>160.0</ele>
<time>2026-09-01T13:00:46.897Z</time>
</trkpt>
<trkpt lat="49.5143668" lon="1.3279743">
<ele>160.0</ele>
<time>2026-09-01T13:00:51.058Z</time>
</trkpt>
<trkpt lat="49.5144296" lon="1.3279822">
<ele>160.0</ele>
<time>2026-09-01T13:00:55.635Z</time>
</trkpt>
<trkpt lat="49.514493" lon="1.3279873">
<ele>160.0</ele>
<time>2026-09-01T13:01:00.282Z</time>
</trkpt>
<trkpt lat="49.5145457" lon="1.32798">
<ele>160.0</ele>
<time>2026-09-01T13:01:04.383Z</time>
</trkpt>
<trkpt lat="49.5146001" lon="1.3279672">
<ele>160.0</ele>
<time>2026-09-01T13:01:08.881Z</time>
</trkpt>
<trkpt lat="49.5146504" lon="1.3279514">
<ele>160.0</ele>
<time>2026-09-01T13:01:12.962Z</time>
</trkpt>
<trkpt lat="49.5146982" lon="1.3279429">
<ele>160.0</ele>
<time>2026-09-01T13:01:17.004Z</time>
</trkpt>
<trkpt lat="49.5147411" lon="1.3279333">
<ele>160.0</ele>
<time>2026-09-01T13:01:21.105Z</time>
</trkpt>
<trkpt lat="49.5147907" lon="1.3279362">
<ele>160.0</ele>
<time>2026-09-01T13:01:25.196Z</time>
</trkpt>
<trkpt lat="49.5148396" lon="1.3279252">
<ele>160.0</ele>
<time>2026-09-01T13:01:29.257Z</time>
</trkpt>
<trkpt lat="49.5148834" lon="1.3279108">
<ele>159.0</ele>
<time>2026-09-01T13:01:33.298Z</time>
</trkpt>
<trkpt lat="49.5149325" lon="1.327908">
<ele>159.0</ele>
<time>2026-09-01T13:01:37.459Z</time>
</trkpt>
<trkpt lat="49.5149967" lon="1.3279037">
<ele>159.0</ele>
<time>2026-09-01T13:01:41.957Z</time>
</trkpt>
<trkpt lat="49.515059" lon="1.3279007">
<ele>159.0</ele>
<time>2026-09-01T13:01:46.564Z</time>
</trkpt>
<trkpt lat="49.5151046" lon="1.3278812">
<ele>159.0</ele>
<time>2026-09-01T13:01:50.675Z</time>
</trkpt>
<trkpt lat="49.515148" lon="1.3278655">
<ele>157.0</ele>
<time>2026-09-01T13:01:54.816Z</time>
</trkpt>
<trkpt lat="49.5151936" lon="1.3278474">
<ele>157.0</ele>
<time>2026-09-01T13:01:58.877Z</time>
</trkpt>
<trkpt lat="49.5152311" lon="1.3278194">
<ele>157.0</ele>
<time>2026-09-01T13:02:03.077Z</time>
</trkpt>
<trkpt lat="49.5152802" lon="1.3277987">
<ele>157.0</ele>
<time>2026-09-01T13:02:07.704Z</time>
</trkpt>
<trkpt lat="49.5153287" lon="1.3277838">
<ele>157.0</ele>
<time>2026-09-01T13:02:11.696Z</time>
</trkpt>
<trkpt lat="49.5153737" lon="1.3277663">
<ele>157.0</ele>
<time>2026-09-01T13:02:15.678Z</time>
</trkpt>
<trkpt lat="49.5154222" lon="1.3277671">
<ele>156.0</ele>
<time>2026-09-01T13:02:20.099Z</time>
</trkpt>
<trkpt lat="49.5154682" lon="1.3277605">
<ele>156.0</ele>
<time>2026-09-01T13:02:24.317Z</time>
</trkpt>
<trkpt lat="49.5155134" lon="1.3277441">
<ele>156.0</ele>
<time>2026-09-01T13:02:28.656Z</time>
</trkpt>
<trkpt lat="49.5155542" lon="1.3277154">
<ele>156.0</ele>
<time>2026-09-01T13:02:32.936Z</time>
</trkpt>
<trkpt lat="49.5155939" lon="1.3276897">
<ele>156.0</ele>
<time>2026-09-01T13:02:37.057Z</time>
</trkpt>
<trkpt lat="49.5156446" lon="1.3276786">
<ele>156.0</ele>
<time>2026-09-01T13:02:41.684Z</time>
</trkpt>
<trkpt lat="49.51569" lon="1.327669">
<ele>156.0</ele>
<time>2026-09-01T13:02:45.695Z</time>
</trkpt>
<trkpt lat="49.5157464" lon="1.3276593">
<ele>156.0</ele>
<time>2026-09-01T13:02:50.342Z</time>
</trkpt>
<trkpt lat="49.5157996" lon="1.3276419">
<ele>156.0</ele>
<time>2026-09-01T13:02:54.364Z</time>
</trkpt>
<trkpt lat="49.5158503" lon="1.3276156">
<ele>155.0</ele>
<time>2026-09-01T13:02:58.435Z</time>
</trkpt>
<trkpt lat="49.5159028" lon="1.327588">
<ele>155.0</ele>
<time>2026-09-01T13:03:02.963Z</time>
</trkpt>
<trkpt lat="49.5159525" lon="1.3275614">
<ele>155.0</ele>
<time>2026-09-01T13:03:07.064Z</time>
</trkpt>
<trkpt lat="49.5160079" lon="1.3275442">
<ele>155.0</ele>
<time>2026-09-01T13:03:11.681Z</time>
</trkpt>
<trkpt lat="49.5160606" lon="1.3275314">
<ele>155.0</ele>
<time>2026-09-01T13:03:16.101Z</time>
</trkpt>
<trkpt lat="49.5161105" lon="1.3275296">
<ele>155.0</ele>
<time>2026-09-01T13:03:20.141Z</time>
</trkpt>
<trkpt lat="49.5161664" lon="1.3275165">
<ele>155.0</ele>
<time>2026-09-01T13:03:24.620Z</time>
</trkpt>
<trkpt lat="49.5162178" lon="1.3274858">
<ele>155.0</ele>
<time>2026-09-01T13:03:29.098Z</time>
</trkpt>
<trkpt lat="49.5162629" lon="1.3274558">
<ele>154.0</ele>
<time>2026-09-01T13:03:33.102Z</time>
</trkpt>
<trkpt lat="49.5163063" lon="1.3274221">
<ele>154.0</ele>
<time>2026-09-01T13:03:37.260Z</time>
</trkpt>
<trkpt lat="49.5163611" lon="1.3274092">
<ele>154.0</ele>
<time>2026-09-01T13:03:41.758Z</time>
</trkpt>
<trkpt lat="49.5164132" lon="1.3273971">
<ele>154.0</ele>
<time>2026-09-01T13:03:45.780Z</time>
</trkpt>
<trkpt lat="49.5164722" lon="1.3273778">
<ele>154.0</ele>
<time>2026-09-01T13:03:50.397Z</time>
</trkpt>
<trkpt lat="49.5165271" lon="1.327357">
<ele>154.0</ele>
<time>2026-09-01T13:03:55.084Z</time>
</trkpt>
<trkpt lat="49.516582" lon="1.3273314">
<ele>153.0</ele>
<time>2026-09-01T13:03:59.642Z</time>
</trkpt>
<trkpt lat="49.5166385" lon="1.3273154">
<ele>153.0</ele>
<time>2026-09-01T13:04:04.099Z</time>
</trkpt>
<trkpt lat="49.516692" lon="1.3272881">
<ele>153.0</ele>
<time>2026-09-01T13:04:08.658Z</time>
</trkpt>
<trkpt lat="49.5167439" lon="1.3272712">
<ele>153.0</ele>
<time>2026-09-01T13:04:13.105Z</time>
</trkpt>
<trkpt lat="49.5167935" lon="1.3272606">
<ele>153.0</ele>
<time>2026-09-01T13:04:17.197Z</time>
</trkpt>
<trkpt lat="49.5168424" lon="1.3272479">
<ele>153.0</ele>
<time>2026-09-01T13:04:21.417Z</time>
</trkpt>
<trkpt lat="49.5168965" lon="1.3272293">
<ele>153.0</ele>
<time>2026-09-01T13:04:26.065Z</time>
</trkpt>
<trkpt lat="49.5169551" lon="1.327214">
<ele>153.0</ele>
<time>2026-09-01T13:04:30.722Z</time>
</trkpt>
<trkpt lat="49.5170048" lon="1.3271806">
<ele>153.0</ele>
<time>2026-09-01T13:04:35.339Z</time>
</trkpt>
<trkpt lat="49.5170574" lon="1.3271474">
<ele>153.0</ele>
<time>2026-09-01T13:04:39.897Z</time>
</trkpt>
<trkpt lat="49.5171135" lon="1.3271287">
<ele>154.0</ele>
<time>2026-09-01T13:04:44.504Z</time>
</trkpt>
<trkpt lat="49.5171621" lon="1.3271164">
<ele>154.0</ele>
<time>2026-09-01T13:04:48.516Z</time>
</trkpt>
<trkpt lat="49.5172588" lon="1.3270375">
<ele>153.0</ele>
<time>2026-09-01T13:05:17.104Z</time>
</trkpt>
<trkpt lat="49.5172618" lon="1.3270408">
<ele>153.0</ele>
<time>2026-09-01T13:05:21.107Z</time>
</trkpt>
<trkpt lat="49.5172678" lon="1.3270398">
<ele>153.0</ele>
<time>2026-09-01T13:05:26.103Z</time>
</trkpt>
<trkpt lat="49.5172724" lon="1.3270372">
<ele>153.0</ele>
<time>2026-09-01T13:05:32.104Z</time>
</trkpt>
<trkpt lat="49.5172831" lon="1.3270148">
<ele>153.0</ele>
<time>2026-09-01T13:05:36.943Z</time>
</trkpt>
<trkpt lat="49.5173084" lon="1.3269589">
<ele>153.0</ele>
<time>2026-09-01T13:05:50.103Z</time>
</trkpt>
<trkpt lat="49.5173203" lon="1.3269403">
<ele>153.0</ele>
<time>2026-09-01T13:05:54.104Z</time>
</trkpt>
<trkpt lat="49.5173482" lon="1.3268747">
<ele>153.0</ele>
<time>2026-09-01T13:05:58.381Z</time>
</trkpt>
<trkpt lat="49.5173727" lon="1.3268019">
<ele>154.0</ele>
<time>2026-09-01T13:06:03.098Z</time>
</trkpt>
<trkpt lat="49.5174005" lon="1.3267566">
<ele>154.0</ele>
<time>2026-09-01T13:06:07.477Z</time>
</trkpt>
<trkpt lat="49.5174511" lon="1.3266616">
<ele>154.0</ele>
<time>2026-09-01T13:06:21.100Z</time>
</trkpt>
<trkpt lat="49.5174503" lon="1.326659">
<ele>154.0</ele>
<time>2026-09-01T13:06:27.103Z</time>
</trkpt>
<trkpt lat="49.5174486" lon="1.3266434">
<ele>154.0</ele>
<time>2026-09-01T13:06:31.278Z</time>
</trkpt>
<trkpt lat="49.5174091" lon="1.3265601">
<ele>154.0</ele>
<time>2026-09-01T13:06:35.836Z</time>
</trkpt>
<trkpt lat="49.5173641" lon="1.3265007">
<ele>153.0</ele>
<time>2026-09-01T13:06:39.977Z</time>
</trkpt>
<trkpt lat="49.5173211" lon="1.3264477">
<ele>152.0</ele>
<time>2026-09-01T13:06:44.098Z</time>
</trkpt>
<trkpt lat="49.5172786" lon="1.3264014">
<ele>152.0</ele>
<time>2026-09-01T13:06:48.079Z</time>
</trkpt>
<trkpt lat="49.5172358" lon="1.3263395">
<ele>152.0</ele>
<time>2026-09-01T13:06:52.717Z</time>
</trkpt>
<trkpt lat="49.5171948" lon="1.3262845">
<ele>152.0</ele>
<time>2026-09-01T13:06:57.225Z</time>
</trkpt>
<trkpt lat="49.5171572" lon="1.3262183">
<ele>152.0</ele>
<time>2026-09-01T13:07:01.703Z</time>
</trkpt>
<trkpt lat="49.517125" lon="1.3261509">
<ele>152.0</ele>
<time>2026-09-01T13:07:05.744Z</time>
</trkpt>
<trkpt lat="49.5170893" lon="1.326088">
<ele>152.0</ele>
<time>2026-09-01T13:07:10.099Z</time>
</trkpt>
<trkpt lat="49.5170536" lon="1.32603">
<ele>151.0</ele>
<time>2026-09-01T13:07:14.741Z</time>
</trkpt>
<trkpt lat="49.5170198" lon="1.325957">
<ele>151.0</ele>
<time>2026-09-01T13:07:19.279Z</time>
</trkpt>
<trkpt lat="49.5169739" lon="1.3259073">
<ele>151.0</ele>
<time>2026-09-01T13:07:23.777Z</time>
</trkpt>
<trkpt lat="49.5169308" lon="1.3258451">
<ele>151.0</ele>
<time>2026-09-01T13:07:28.344Z</time>
</trkpt>
<trkpt lat="49.5168916" lon="1.3257935">
<ele>151.0</ele>
<time>2026-09-01T13:07:32.396Z</time>
</trkpt>
<trkpt lat="49.5168684" lon="1.3257187">
<ele>151.0</ele>
<time>2026-09-01T13:07:36.805Z</time>
</trkpt>
<trkpt lat="49.5168362" lon="1.3256747">
<ele>150.0</ele>
<time>2026-09-01T13:07:40.777Z</time>
</trkpt>
<trkpt lat="49.5168043" lon="1.3256915">
<ele>149.0</ele>
<time>2026-09-01T13:07:45.017Z</time>
</trkpt>
<trkpt lat="49.5167656" lon="1.3256487">
<ele>149.0</ele>
<time>2026-09-01T13:07:49.099Z</time>
</trkpt>
<trkpt lat="49.5167429" lon="1.3255116">
<ele>149.0</ele>
<time>2026-09-01T13:08:42.099Z</time>
</trkpt>
<trkpt lat="49.5167471" lon="1.3255041">
<ele>149.0</ele>
<time>2026-09-01T13:08:46.343Z</time>
</trkpt>
<trkpt lat="49.5167811" lon="1.3254777">
<ele>149.0</ele>
<time>2026-09-01T13:08:51Z</time>
</trkpt>
<trkpt lat="49.5168265" lon="1.3254399">
<ele>150.0</ele>
<time>2026-09-01T13:08:55.001Z</time>
</trkpt>
<trkpt lat="49.5168718" lon="1.3253849">
<ele>150.0</ele>
<time>2026-09-01T13:08:59.400Z</time>
</trkpt>
<trkpt lat="49.5168978" lon="1.3253297">
<ele>150.0</ele>
<time>2026-09-01T13:09:03.680Z</time>
</trkpt>
<trkpt lat="49.5169298" lon="1.3252745">
<ele>150.0</ele>
<time>2026-09-01T13:09:07.940Z</time>
</trkpt>
<trkpt lat="49.5169727" lon="1.3252148">
<ele>150.0</ele>
<time>2026-09-01T13:09:12.094Z</time>
</trkpt>
<trkpt lat="49.5170125" lon="1.3251725">
<ele>150.0</ele>
<time>2026-09-01T13:09:16.100Z</time>
</trkpt>
<trkpt lat="49.5170486" lon="1.3251225">
<ele>150.0</ele>
<time>2026-09-01T13:09:20.561Z</time>
</trkpt>
<trkpt lat="49.5170941" lon="1.3250753">
<ele>151.0</ele>
<time>2026-09-01T13:09:25.100Z</time>
</trkpt>
<trkpt lat="49.51715" lon="1.3250427">
<ele>151.0</ele>
<time>2026-09-01T13:09:29.636Z</time>
</trkpt>
<trkpt lat="49.517182" lon="1.3249929">
<ele>151.0</ele>
<time>2026-09-01T13:09:34.106Z</time>
</trkpt>
<trkpt lat="49.5171998" lon="1.3249332">
<ele>151.0</ele>
<time>2026-09-01T13:09:38.742Z</time>
</trkpt>
<trkpt lat="49.5172162" lon="1.3249045">
<ele>151.0</ele>
<time>2026-09-01T13:09:42.784Z</time>
</trkpt>
<trkpt lat="49.5172417" lon="1.3248832">
<ele>151.0</ele>
<time>2026-09-01T13:09:46.885Z</time>
</trkpt>
<trkpt lat="49.5172542" lon="1.3248413">
<ele>152.0</ele>
<time>2026-09-01T13:09:50.936Z</time>
</trkpt>
<trkpt lat="49.5172713" lon="1.324787">
<ele>152.0</ele>
<time>2026-09-01T13:09:55.017Z</time>
</trkpt>
<trkpt lat="49.5173149" lon="1.3247552">
<ele>152.0</ele>
<time>2026-09-01T13:09:59.297Z</time>
</trkpt>
<trkpt lat="49.5173581" lon="1.3247207">
<ele>152.0</ele>
<time>2026-09-01T13:10:04.043Z</time>
</trkpt>
<trkpt lat="49.5173861" lon="1.3246956">
<ele>153.0</ele>
<time>2026-09-01T13:10:08.601Z</time>
</trkpt>
<trkpt lat="49.5174199" lon="1.3246586">
<ele>153.0</ele>
<time>2026-09-01T13:10:13.020Z</time>
</trkpt>
<trkpt lat="49.5174414" lon="1.3246215">
<ele>153.0</ele>
<time>2026-09-01T13:10:17.098Z</time>
</trkpt>
<trkpt lat="49.5174729" lon="1.3245765">
<ele>155.0</ele>
<time>2026-09-01T13:10:21.738Z</time>
</trkpt>
<trkpt lat="49.5174953" lon="1.3245319">
<ele>155.0</ele>
<time>2026-09-01T13:10:25.879Z</time>
</trkpt>
<trkpt lat="49.5175214" lon="1.3244879">
<ele>155.0</ele>
<time>2026-09-01T13:10:30.103Z</time>
</trkpt>
<trkpt lat="49.5175554" lon="1.3244421">
<ele>155.0</ele>
<time>2026-09-01T13:10:34.657Z</time>
</trkpt>
<trkpt lat="49.5175812" lon="1.3244046">
<ele>155.0</ele>
<time>2026-09-01T13:10:38.877Z</time>
</trkpt>
<trkpt lat="49.5176259" lon="1.3243731">
<ele>155.0</ele>
<time>2026-09-01T13:10:43.101Z</time>
</trkpt>
<trkpt lat="49.5176621" lon="1.3243391">
<ele>155.0</ele>
<time>2026-09-01T13:10:47.377Z</time>
</trkpt>
<trkpt lat="49.5176858" lon="1.3242939">
<ele>156.0</ele>
<time>2026-09-01T13:10:51.398Z</time>
</trkpt>
<trkpt lat="49.5177071" lon="1.3242494">
<ele>156.0</ele>
<time>2026-09-01T13:10:55.658Z</time>
</trkpt>
<trkpt lat="49.5177423" lon="1.3242155">
<ele>156.0</ele>
<time>2026-09-01T13:10:59.878Z</time>
</trkpt>
<trkpt lat="49.5177826" lon="1.324188">
<ele>156.0</ele>
<time>2026-09-01T13:11:03.999Z</time>
</trkpt>
<trkpt lat="49.5178162" lon="1.3241574">
<ele>156.0</ele>
<time>2026-09-01T13:11:08.080Z</time>
</trkpt>
<trkpt lat="49.5178463" lon="1.3241056">
<ele>156.0</ele>
<time>2026-09-01T13:11:12.578Z</time>
</trkpt>
<trkpt lat="49.5178797" lon="1.3240711">
<ele>156.0</ele>
<time>2026-09-01T13:11:17.101Z</time>
</trkpt>
<trkpt lat="49.5179056" lon="1.3240326">
<ele>156.0</ele>
<time>2026-09-01T13:11:21.396Z</time>
</trkpt>
<trkpt lat="49.5179252" lon="1.3239749">
<ele>157.0</ele>
<time>2026-09-01T13:11:25.676Z</time>
</trkpt>
<trkpt lat="49.5179439" lon="1.3239176">
<ele>157.0</ele>
<time>2026-09-01T13:11:29.797Z</time>
</trkpt>
<trkpt lat="49.517964" lon="1.3238526">
<ele>157.0</ele>
<time>2026-09-01T13:11:34.056Z</time>
</trkpt>
<trkpt lat="49.5180028" lon="1.323801">
<ele>157.0</ele>
<time>2026-09-01T13:11:38.644Z</time>
</trkpt>
<trkpt lat="49.5180306" lon="1.3237581">
<ele>157.0</ele>
<time>2026-09-01T13:11:42.864Z</time>
</trkpt>
<trkpt lat="49.5180318" lon="1.3237403">
<ele>158.0</ele>
<time>2026-09-01T13:11:47.104Z</time>
</trkpt>
<trkpt lat="49.518024" lon="1.323671">
<ele>158.0</ele>
<time>2026-09-01T13:11:51.821Z</time>
</trkpt>
<trkpt lat="49.5180575" lon="1.3236261">
<ele>158.0</ele>
<time>2026-09-01T13:11:56.103Z</time>
</trkpt>
<trkpt lat="49.5180924" lon="1.3235574">
<ele>158.0</ele>
<time>2026-09-01T13:12:00.579Z</time>
</trkpt>
<trkpt lat="49.5181222" lon="1.3234977">
<ele>158.0</ele>
<time>2026-09-01T13:12:04.978Z</time>
</trkpt>
<trkpt lat="49.5181593" lon="1.3234469">
<ele>158.0</ele>
<time>2026-09-01T13:12:09.496Z</time>
</trkpt>
<trkpt lat="49.5181901" lon="1.3233935">
<ele>158.0</ele>
<time>2026-09-01T13:12:13.835Z</time>
</trkpt>
<trkpt lat="49.5182229" lon="1.3233373">
<ele>159.0</ele>
<time>2026-09-01T13:12:18.075Z</time>
</trkpt>
<trkpt lat="49.5182524" lon="1.3232807">
<ele>159.0</ele>
<time>2026-09-01T13:12:22.099Z</time>
</trkpt>
<trkpt lat="49.5182892" lon="1.3232171">
<ele>159.0</ele>
<time>2026-09-01T13:12:26.436Z</time>
</trkpt>
<trkpt lat="49.5183317" lon="1.3231718">
<ele>159.0</ele>
<time>2026-09-01T13:12:30.656Z</time>
</trkpt>
<trkpt lat="49.518369" lon="1.3231221">
<ele>159.0</ele>
<time>2026-09-01T13:12:34.797Z</time>
</trkpt>
<trkpt lat="49.5183972" lon="1.3230729">
<ele>159.0</ele>
<time>2026-09-01T13:12:39.102Z</time>
</trkpt>
<trkpt lat="49.5184289" lon="1.3230181">
<ele>159.0</ele>
<time>2026-09-01T13:12:43.336Z</time>
</trkpt>
<trkpt lat="49.5184611" lon="1.3229517">
<ele>159.0</ele>
<time>2026-09-01T13:12:47.556Z</time>
</trkpt>
<trkpt lat="49.5184928" lon="1.3229025">
<ele>160.0</ele>
<time>2026-09-01T13:12:51.578Z</time>
</trkpt>
<trkpt lat="49.5185285" lon="1.3228442">
<ele>160.0</ele>
<time>2026-09-01T13:12:55.798Z</time>
</trkpt>
<trkpt lat="49.5185557" lon="1.3227981">
<ele>160.0</ele>
<time>2026-09-01T13:12:59.879Z</time>
</trkpt>
<trkpt lat="49.5185894" lon="1.3227482">
<ele>160.0</ele>
<time>2026-09-01T13:13:04.099Z</time>
</trkpt>
<trkpt lat="49.5186218" lon="1.3227082">
<ele>160.0</ele>
<time>2026-09-01T13:13:08.099Z</time>
</trkpt>
<trkpt lat="49.5186388" lon="1.3226439">
<ele>160.0</ele>
<time>2026-09-01T13:13:12.361Z</time>
</trkpt>
<trkpt lat="49.5186558" lon="1.3225759">
<ele>160.0</ele>
<time>2026-09-01T13:13:16.581Z</time>
</trkpt>
<trkpt lat="49.518686" lon="1.3225008">
<ele>160.0</ele>
<time>2026-09-01T13:13:20.682Z</time>
</trkpt>
<trkpt lat="49.5187262" lon="1.3224542">
<ele>160.0</ele>
<time>2026-09-01T13:13:24.783Z</time>
</trkpt>
<trkpt lat="49.5187697" lon="1.3224204">
<ele>162.0</ele>
<time>2026-09-01T13:13:28.944Z</time>
</trkpt>
<trkpt lat="49.5187882" lon="1.322362">
<ele>162.0</ele>
<time>2026-09-01T13:13:33.105Z</time>
</trkpt>
<trkpt lat="49.5188244" lon="1.3222889">
<ele>161.0</ele>
<time>2026-09-01T13:13:37.781Z</time>
</trkpt>
<trkpt lat="49.5188582" lon="1.3222238">
<ele>161.0</ele>
<time>2026-09-01T13:13:41.981Z</time>
</trkpt>
<trkpt lat="49.5188822" lon="1.3221722">
<ele>161.0</ele>
<time>2026-09-01T13:13:46.102Z</time>
</trkpt>
<trkpt lat="49.5189147" lon="1.3221236">
<ele>161.0</ele>
<time>2026-09-01T13:13:50.263Z</time>
</trkpt>
<trkpt lat="49.5189488" lon="1.3220632">
<ele>160.0</ele>
<time>2026-09-01T13:13:54.403Z</time>
</trkpt>
<trkpt lat="49.5189831" lon="1.3220053">
<ele>160.0</ele>
<time>2026-09-01T13:13:58.604Z</time>
</trkpt>
<trkpt lat="49.5190047" lon="1.3219646">
<ele>160.0</ele>
<time>2026-09-01T13:14:02.635Z</time>
</trkpt>
<trkpt lat="49.5190516" lon="1.3219351">
<ele>162.0</ele>
<time>2026-09-01T13:14:06.855Z</time>
</trkpt>
<trkpt lat="49.5190951" lon="1.3218892">
<ele>162.0</ele>
<time>2026-09-01T13:14:10.936Z</time>
</trkpt>
<trkpt lat="49.5191307" lon="1.3218369">
<ele>162.0</ele>
<time>2026-09-01T13:14:15.095Z</time>
</trkpt>
<trkpt lat="49.5191693" lon="1.321764">
<ele>161.0</ele>
<time>2026-09-01T13:14:19.317Z</time>
</trkpt>
<trkpt lat="49.5192111" lon="1.3216993">
<ele>161.0</ele>
<time>2026-09-01T13:14:23.358Z</time>
</trkpt>
<trkpt lat="49.5192468" lon="1.3216496">
<ele>161.0</ele>
<time>2026-09-01T13:14:27.400Z</time>
</trkpt>
<trkpt lat="49.5192713" lon="1.3216011">
<ele>161.0</ele>
<time>2026-09-01T13:14:31.481Z</time>
</trkpt>
<trkpt lat="49.5192954" lon="1.3215552">
<ele>161.0</ele>
<time>2026-09-01T13:14:35.542Z</time>
</trkpt>
<trkpt lat="49.5193109" lon="1.3215061">
<ele>160.0</ele>
<time>2026-09-01T13:14:39.643Z</time>
</trkpt>
<trkpt lat="49.5193239" lon="1.3214349">
<ele>160.0</ele>
<time>2026-09-01T13:14:43.804Z</time>
</trkpt>
<trkpt lat="49.5193576" lon="1.3213866">
<ele>160.0</ele>
<time>2026-09-01T13:14:47.944Z</time>
</trkpt>
<trkpt lat="49.5193961" lon="1.3213491">
<ele>160.0</ele>
<time>2026-09-01T13:14:51.976Z</time>
</trkpt>
<trkpt lat="49.519442" lon="1.3213068">
<ele>160.0</ele>
<time>2026-09-01T13:14:56.097Z</time>
</trkpt>
<trkpt lat="49.5194983" lon="1.3212291">
<ele>157.0</ele>
<time>2026-09-01T13:15:00.784Z</time>
</trkpt>
<trkpt lat="49.5195302" lon="1.3211494">
<ele>157.0</ele>
<time>2026-09-01T13:15:04.835Z</time>
</trkpt>
<trkpt lat="49.519551" lon="1.3210762">
<ele>157.0</ele>
<time>2026-09-01T13:15:09.095Z</time>
</trkpt>
<trkpt lat="49.5195809" lon="1.321031">
<ele>157.0</ele>
<time>2026-09-01T13:15:13.315Z</time>
</trkpt>
<trkpt lat="49.5196098" lon="1.3209949">
<ele>157.0</ele>
<time>2026-09-01T13:15:17.724Z</time>
</trkpt>
<trkpt lat="49.5196545" lon="1.3209774">
<ele>157.0</ele>
<time>2026-09-01T13:15:21.864Z</time>
</trkpt>
<trkpt lat="49.5196891" lon="1.3209207">
<ele>155.0</ele>
<time>2026-09-01T13:15:26.090Z</time>
</trkpt>
<trkpt lat="49.5197146" lon="1.3208587">
<ele>155.0</ele>
<time>2026-09-01T13:15:30.583Z</time>
</trkpt>
<trkpt lat="49.5197365" lon="1.3208013">
<ele>155.0</ele>
<time>2026-09-01T13:15:35.021Z</time>
</trkpt>
<trkpt lat="49.5197551" lon="1.3207367">
<ele>155.0</ele>
<time>2026-09-01T13:15:39.182Z</time>
</trkpt>
<trkpt lat="49.5197852" lon="1.3206738">
<ele>154.0</ele>
<time>2026-09-01T13:15:43.362Z</time>
</trkpt>
<trkpt lat="49.5198167" lon="1.3206118">
<ele>154.0</ele>
<time>2026-09-01T13:15:47.582Z</time>
</trkpt>
<trkpt lat="49.5198416" lon="1.32055">
<ele>154.0</ele>
<time>2026-09-01T13:15:51.644Z</time>
</trkpt>
<trkpt lat="49.5198748" lon="1.3204899">
<ele>155.0</ele>
<time>2026-09-01T13:15:56.095Z</time>
</trkpt>
<trkpt lat="49.5199024" lon="1.3204396">
<ele>155.0</ele>
<time>2026-09-01T13:16:00.481Z</time>
</trkpt>
<trkpt lat="49.5199131" lon="1.3203767">
<ele>155.0</ele>
<time>2026-09-01T13:16:05.096Z</time>
</trkpt>
<trkpt lat="49.5199278" lon="1.3203305">
<ele>155.0</ele>
<time>2026-09-01T13:16:09.099Z</time>
</trkpt>
<trkpt lat="49.5199619" lon="1.3202849">
<ele>155.0</ele>
<time>2026-09-01T13:16:13.519Z</time>
</trkpt>
<trkpt lat="49.5199966" lon="1.3202318">
<ele>155.0</ele>
<time>2026-09-01T13:16:17.679Z</time>
</trkpt>
<trkpt lat="49.5200329" lon="1.3201777">
<ele>155.0</ele>
<time>2026-09-01T13:16:21.800Z</time>
</trkpt>
<trkpt lat="49.5200632" lon="1.3201242">
<ele>154.0</ele>
<time>2026-09-01T13:16:25.881Z</time>
</trkpt>
<trkpt lat="49.5200925" lon="1.3200638">
<ele>154.0</ele>
<time>2026-09-01T13:16:30.082Z</time>
</trkpt>
<trkpt lat="49.5201332" lon="1.320012">
<ele>154.0</ele>
<time>2026-09-01T13:16:34.094Z</time>
</trkpt>
<trkpt lat="49.5201614" lon="1.3199557">
<ele>155.0</ele>
<time>2026-09-01T13:16:38.363Z</time>
</trkpt>
<trkpt lat="49.5201883" lon="1.3198944">
<ele>155.0</ele>
<time>2026-09-01T13:16:42.663Z</time>
</trkpt>
<trkpt lat="49.520216" lon="1.3198494">
<ele>155.0</ele>
<time>2026-09-01T13:16:46.644Z</time>
</trkpt>
<trkpt lat="49.520251" lon="1.3197931">
<ele>155.0</ele>
<time>2026-09-01T13:16:51.024Z</time>
</trkpt>
<trkpt lat="49.5202826" lon="1.3197355">
<ele>155.0</ele>
<time>2026-09-01T13:16:55.099Z</time>
</trkpt>
<trkpt lat="49.5203177" lon="1.3196702">
<ele>155.0</ele>
<time>2026-09-01T13:16:59.523Z</time>
</trkpt>
<trkpt lat="49.5203538" lon="1.3196166">
<ele>155.0</ele>
<time>2026-09-01T13:17:03.744Z</time>
</trkpt>
<trkpt lat="49.5203856" lon="1.3195576">
<ele>154.0</ele>
<time>2026-09-01T13:17:08.063Z</time>
</trkpt>
<trkpt lat="49.5204189" lon="1.3195017">
<ele>154.0</ele>
<time>2026-09-01T13:17:12.283Z</time>
</trkpt>
<trkpt lat="49.5204525" lon="1.3194403">
<ele>154.0</ele>
<time>2026-09-01T13:17:16.444Z</time>
</trkpt>
<trkpt lat="49.5204861" lon="1.3193865">
<ele>154.0</ele>
<time>2026-09-01T13:17:20.515Z</time>
</trkpt>
<trkpt lat="49.5205207" lon="1.3193299">
<ele>154.0</ele>
<time>2026-09-01T13:17:24.805Z</time>
</trkpt>
<trkpt lat="49.5205479" lon="1.3192687">
<ele>153.0</ele>
<time>2026-09-01T13:17:28.836Z</time>
</trkpt>
<trkpt lat="49.5205819" lon="1.3192112">
<ele>153.0</ele>
<time>2026-09-01T13:17:32.977Z</time>
</trkpt>
<trkpt lat="49.5206189" lon="1.3191461">
<ele>153.0</ele>
<time>2026-09-01T13:17:37.683Z</time>
</trkpt>
<trkpt lat="49.5206485" lon="1.3190909">
<ele>153.0</ele>
<time>2026-09-01T13:17:41.943Z</time>
</trkpt>
<trkpt lat="49.5206814" lon="1.3190445">
<ele>153.0</ele>
<time>2026-09-01T13:17:46.097Z</time>
</trkpt>
<trkpt lat="49.5207169" lon="1.3189837">
<ele>152.0</ele>
<time>2026-09-01T13:17:50.820Z</time>
</trkpt>
<trkpt lat="49.5207407" lon="1.318918">
<ele>152.0</ele>
<time>2026-09-01T13:17:55.021Z</time>
</trkpt>
<trkpt lat="49.5207693" lon="1.3188624">
<ele>152.0</ele>
<time>2026-09-01T13:17:59.103Z</time>
</trkpt>
<trkpt lat="49.5208" lon="1.3188007">
<ele>152.0</ele>
<time>2026-09-01T13:18:03.262Z</time>
</trkpt>
<trkpt lat="49.5208308" lon="1.3187397">
<ele>152.0</ele>
<time>2026-09-01T13:18:07.542Z</time>
</trkpt>
<trkpt lat="49.5208588" lon="1.3186829">
<ele>152.0</ele>
<time>2026-09-01T13:18:11.683Z</time>
</trkpt>
<trkpt lat="49.5208911" lon="1.3186224">
<ele>152.0</ele>
<time>2026-09-01T13:18:15.724Z</time>
</trkpt>
<trkpt lat="49.5209242" lon="1.3185674">
<ele>152.0</ele>
<time>2026-09-01T13:18:19.676Z</time>
</trkpt>
<trkpt lat="49.5209659" lon="1.3185026">
<ele>152.0</ele>
<time>2026-09-01T13:18:24.383Z</time>
</trkpt>
<trkpt lat="49.5209984" lon="1.3184448">
<ele>151.0</ele>
<time>2026-09-01T13:18:28.504Z</time>
</trkpt>
<trkpt lat="49.5210336" lon="1.3183826">
<ele>151.0</ele>
<time>2026-09-01T13:18:32.704Z</time>
</trkpt>
<trkpt lat="49.5210657" lon="1.318328">
<ele>151.0</ele>
<time>2026-09-01T13:18:36.885Z</time>
</trkpt>
<trkpt lat="49.5211031" lon="1.3182736">
<ele>151.0</ele>
<time>2026-09-01T13:18:41.363Z</time>
</trkpt>
<trkpt lat="49.5211408" lon="1.31822">
<ele>151.0</ele>
<time>2026-09-01T13:18:45.345Z</time>
</trkpt>
<trkpt lat="49.5211749" lon="1.3181657">
<ele>152.0</ele>
<time>2026-09-01T13:18:49.555Z</time>
</trkpt>
<trkpt lat="49.5212046" lon="1.3181123">
<ele>152.0</ele>
<time>2026-09-01T13:18:53.676Z</time>
</trkpt>
<trkpt lat="49.5212367" lon="1.3180588">
<ele>152.0</ele>
<time>2026-09-01T13:18:58.035Z</time>
</trkpt>
<trkpt lat="49.5212625" lon="1.3180005">
<ele>152.0</ele>
<time>2026-09-01T13:19:02.275Z</time>
</trkpt>
<trkpt lat="49.5212841" lon="1.3179283">
<ele>152.0</ele>
<time>2026-09-01T13:19:06.545Z</time>
</trkpt>
<trkpt lat="49.5213094" lon="1.3178686">
<ele>153.0</ele>
<time>2026-09-01T13:19:10.556Z</time>
</trkpt>
<trkpt lat="49.5213416" lon="1.317812">
<ele>153.0</ele>
<time>2026-09-01T13:19:14.935Z</time>
</trkpt>
<trkpt lat="49.5213583" lon="1.3177589">
<ele>153.0</ele>
<time>2026-09-01T13:19:19.056Z</time>
</trkpt>
<trkpt lat="49.5213868" lon="1.3177074">
<ele>153.0</ele>
<time>2026-09-01T13:19:23.564Z</time>
</trkpt>
<trkpt lat="49.5214205" lon="1.3176504">
<ele>153.0</ele>
<time>2026-09-01T13:19:27.745Z</time>
</trkpt>
<trkpt lat="49.5214275" lon="1.317645">
<ele>153.0</ele>
<time>2026-09-01T13:19:32.099Z</time>
</trkpt>
<trkpt lat="49.5214241" lon="1.3176257">
<ele>154.0</ele>
<time>2026-09-01T13:19:36.364Z</time>
</trkpt>
<trkpt lat="49.5214546" lon="1.3175541">
<ele>154.0</ele>
<time>2026-09-01T13:19:40.584Z</time>
</trkpt>
<trkpt lat="49.5214883" lon="1.3174916">
<ele>154.0</ele>
<time>2026-09-01T13:19:45.095Z</time>
</trkpt>
<trkpt lat="49.5215296" lon="1.3174368">
<ele>154.0</ele>
<time>2026-09-01T13:19:49.898Z</time>
</trkpt>
<trkpt lat="49.521553" lon="1.3173903">
<ele>154.0</ele>
<time>2026-09-01T13:19:53.939Z</time>
</trkpt>
<trkpt lat="49.5215882" lon="1.3173369">
<ele>156.0</ele>
<time>2026-09-01T13:19:58.398Z</time>
</trkpt>
<trkpt lat="49.5216207" lon="1.3172853">
<ele>156.0</ele>
<time>2026-09-01T13:20:02.797Z</time>
</trkpt>
<trkpt lat="49.5216486" lon="1.3172278">
<ele>156.0</ele>
<time>2026-09-01T13:20:07.464Z</time>
</trkpt>
<trkpt lat="49.5216741" lon="1.3171737">
<ele>156.0</ele>
<time>2026-09-01T13:20:11.783Z</time>
</trkpt>
<trkpt lat="49.5217069" lon="1.3171135">
<ele>156.0</ele>
<time>2026-09-01T13:20:16.111Z</time>
</trkpt>
<trkpt lat="49.5217551" lon="1.3170719">
<ele>158.0</ele>
<time>2026-09-01T13:20:20.700Z</time>
</trkpt>
<trkpt lat="49.5217897" lon="1.3170234">
<ele>158.0</ele>
<time>2026-09-01T13:20:25.019Z</time>
</trkpt>
<trkpt lat="49.5218232" lon="1.3169632">
<ele>156.0</ele>
<time>2026-09-01T13:20:29.220Z</time>
</trkpt>
<trkpt lat="49.5218578" lon="1.3169006">
<ele>156.0</ele>
<time>2026-09-01T13:20:33.519Z</time>
</trkpt>
<trkpt lat="49.5219017" lon="1.3168561">
<ele>156.0</ele>
<time>2026-09-01T13:20:37.720Z</time>
</trkpt>
<trkpt lat="49.5219459" lon="1.3168109">
<ele>156.0</ele>
<time>2026-09-01T13:20:42.101Z</time>
</trkpt>
<trkpt lat="49.5219844" lon="1.3167616">
<ele>158.0</ele>
<time>2026-09-01T13:20:46.358Z</time>
</trkpt>
<trkpt lat="49.5220199" lon="1.316713">
<ele>158.0</ele>
<time>2026-09-01T13:20:50.678Z</time>
</trkpt>
<trkpt lat="49.5220596" lon="1.3166736">
<ele>158.0</ele>
<time>2026-09-01T13:20:55.057Z</time>
</trkpt>
<trkpt lat="49.522092" lon="1.3166267">
<ele>156.0</ele>
<time>2026-09-01T13:20:59.376Z</time>
</trkpt>
<trkpt lat="49.5221273" lon="1.3165774">
<ele>156.0</ele>
<time>2026-09-01T13:21:03.815Z</time>
</trkpt>
<trkpt lat="49.5221504" lon="1.3165158">
<ele>157.0</ele>
<time>2026-09-01T13:21:08.055Z</time>
</trkpt>
<trkpt lat="49.5221864" lon="1.3164691">
<ele>157.0</ele>
<time>2026-09-01T13:21:12.523Z</time>
</trkpt>
<trkpt lat="49.5222296" lon="1.3164178">
<ele>157.0</ele>
<time>2026-09-01T13:21:16.823Z</time>
</trkpt>
<trkpt lat="49.5222789" lon="1.3163766">
<ele>157.0</ele>
<time>2026-09-01T13:21:21.063Z</time>
</trkpt>
<trkpt lat="49.5223225" lon="1.3163306">
<ele>157.0</ele>
<time>2026-09-01T13:21:25.343Z</time>
</trkpt>
<trkpt lat="49.522361" lon="1.3162873">
<ele>157.0</ele>
<time>2026-09-01T13:21:29.543Z</time>
</trkpt>
<trkpt lat="49.5224018" lon="1.3162429">
<ele>156.0</ele>
<time>2026-09-01T13:21:33.942Z</time>
</trkpt>
<trkpt lat="49.5224424" lon="1.3162049">
<ele>156.0</ele>
<time>2026-09-01T13:21:38.202Z</time>
</trkpt>
<trkpt lat="49.522485" lon="1.3161614">
<ele>156.0</ele>
<time>2026-09-01T13:21:42.620Z</time>
</trkpt>
<trkpt lat="49.5225234" lon="1.3161096">
<ele>156.0</ele>
<time>2026-09-01T13:21:47.103Z</time>
</trkpt>
<trkpt lat="49.5225592" lon="1.3160769">
<ele>156.0</ele>
<time>2026-09-01T13:21:51.577Z</time>
</trkpt>
<trkpt lat="49.522588" lon="1.3160254">
<ele>156.0</ele>
<time>2026-09-01T13:21:56.035Z</time>
</trkpt>
<trkpt lat="49.5226221" lon="1.3159827">
<ele>156.0</ele>
<time>2026-09-01T13:22:00.102Z</time>
</trkpt>
<trkpt lat="49.5226667" lon="1.3159526">
<ele>156.0</ele>
<time>2026-09-01T13:22:04.357Z</time>
</trkpt>
<trkpt lat="49.5226765" lon="1.315892">
<ele>156.0</ele>
<time>2026-09-01T13:22:08.517Z</time>
</trkpt>
<trkpt lat="49.5227267" lon="1.3158513">
<ele>156.0</ele>
<time>2026-09-01T13:22:12.697Z</time>
</trkpt>
<trkpt lat="49.5227516" lon="1.3157914">
<ele>156.0</ele>
<time>2026-09-01T13:22:16.838Z</time>
</trkpt>
<trkpt lat="49.5227974" lon="1.3157482">
<ele>156.0</ele>
<time>2026-09-01T13:22:21.088Z</time>
</trkpt>
<trkpt lat="49.5228375" lon="1.3157002">
<ele>156.0</ele>
<time>2026-09-01T13:22:26.004Z</time>
</trkpt>
<trkpt lat="49.5228663" lon="1.3156685">
<ele>155.0</ele>
<time>2026-09-01T13:22:30.422Z</time>
</trkpt>
<trkpt lat="49.5229027" lon="1.3156344">
<ele>155.0</ele>
<time>2026-09-01T13:22:34.762Z</time>
</trkpt>
<trkpt lat="49.5229377" lon="1.3155978">
<ele>156.0</ele>
<time>2026-09-01T13:22:38.863Z</time>
</trkpt>
<trkpt lat="49.5229749" lon="1.3155563">
<ele>156.0</ele>
<time>2026-09-01T13:22:43.302Z</time>
</trkpt>
<trkpt lat="49.5230015" lon="1.315498">
<ele>156.0</ele>
<time>2026-09-01T13:22:47.959Z</time>
</trkpt>
<trkpt lat="49.5230226" lon="1.3154547">
<ele>156.0</ele>
<time>2026-09-01T13:22:52.105Z</time>
</trkpt>
<trkpt lat="49.5230648" lon="1.315392">
<ele>155.0</ele>
<time>2026-09-01T13:22:56.519Z</time>
</trkpt>
<trkpt lat="49.5231103" lon="1.3153389">
<ele>155.0</ele>
<time>2026-09-01T13:23:00.679Z</time>
</trkpt>
<trkpt lat="49.5231636" lon="1.3152997">
<ele>155.0</ele>
<time>2026-09-01T13:23:04.939Z</time>
</trkpt>
<trkpt lat="49.5232202" lon="1.3152807">
<ele>155.0</ele>
<time>2026-09-01T13:23:09.080Z</time>
</trkpt>
<trkpt lat="49.5232807" lon="1.3152561">
<ele>155.0</ele>
<time>2026-09-01T13:23:13.916Z</time>
</trkpt>
<trkpt lat="49.5233221" lon="1.3152141">
<ele>155.0</ele>
<time>2026-09-01T13:23:18.077Z</time>
</trkpt>
<trkpt lat="49.5233672" lon="1.3151735">
<ele>155.0</ele>
<time>2026-09-01T13:23:22.277Z</time>
</trkpt>
<trkpt lat="49.5234094" lon="1.3151231">
<ele>155.0</ele>
<time>2026-09-01T13:23:26.497Z</time>
</trkpt>
<trkpt lat="49.5234407" lon="1.3150684">
<ele>155.0</ele>
<time>2026-09-01T13:23:30.578Z</time>
</trkpt>
<trkpt lat="49.5234806" lon="1.3150233">
<ele>155.0</ele>
<time>2026-09-01T13:23:34.779Z</time>
</trkpt>
<trkpt lat="49.5235223" lon="1.3149824">
<ele>155.0</ele>
<time>2026-09-01T13:23:38.910Z</time>
</trkpt>
<trkpt lat="49.5235607" lon="1.3149322">
<ele>155.0</ele>
<time>2026-09-01T13:23:43.099Z</time>
</trkpt>
<trkpt lat="49.5236039" lon="1.3148881">
<ele>155.0</ele>
<time>2026-09-01T13:23:47.241Z</time>
</trkpt>
<trkpt lat="49.5236426" lon="1.3148405">
<ele>154.0</ele>
<time>2026-09-01T13:23:51.401Z</time>
</trkpt>
<trkpt lat="49.5236792" lon="1.3147912">
<ele>154.0</ele>
<time>2026-09-01T13:23:55.522Z</time>
</trkpt>
<trkpt lat="49.5237162" lon="1.3147493">
<ele>154.0</ele>
<time>2026-09-01T13:23:59.643Z</time>
</trkpt>
<trkpt lat="49.5237517" lon="1.3147015">
<ele>154.0</ele>
<time>2026-09-01T13:24:03.923Z</time>
</trkpt>
<trkpt lat="49.5237871" lon="1.3146513">
<ele>154.0</ele>
<time>2026-09-01T13:24:08.097Z</time>
</trkpt>
<trkpt lat="49.5238336" lon="1.3146089">
<ele>154.0</ele>
<time>2026-09-01T13:24:12.442Z</time>
</trkpt>
<trkpt lat="49.5238769" lon="1.3145711">
<ele>154.0</ele>
<time>2026-09-01T13:24:16.424Z</time>
</trkpt>
<trkpt lat="49.5239235" lon="1.3145165">
<ele>154.0</ele>
<time>2026-09-01T13:24:21.095Z</time>
</trkpt>
<trkpt lat="49.5239546" lon="1.3144726">
<ele>154.0</ele>
<time>2026-09-01T13:24:25.093Z</time>
</trkpt>
<trkpt lat="49.5239799" lon="1.3144165">
<ele>154.0</ele>
<time>2026-09-01T13:24:29.283Z</time>
</trkpt>
<trkpt lat="49.5240195" lon="1.3143762">
<ele>154.0</ele>
<time>2026-09-01T13:24:33.345Z</time>
</trkpt>
<trkpt lat="49.5240603" lon="1.3143355">
<ele>154.0</ele>
<time>2026-09-01T13:24:37.455Z</time>
</trkpt>
<trkpt lat="49.5240994" lon="1.314291">
<ele>153.0</ele>
<time>2026-09-01T13:24:41.576Z</time>
</trkpt>
<trkpt lat="49.5241454" lon="1.3142524">
<ele>153.0</ele>
<time>2026-09-01T13:24:45.737Z</time>
</trkpt>
<trkpt lat="49.5241873" lon="1.3142077">
<ele>153.0</ele>
<time>2026-09-01T13:24:49.798Z</time>
</trkpt>
<trkpt lat="49.5242298" lon="1.314161">
<ele>153.0</ele>
<time>2026-09-01T13:24:53.879Z</time>
</trkpt>
<trkpt lat="49.5242683" lon="1.3141127">
<ele>153.0</ele>
<time>2026-09-01T13:24:58.020Z</time>
</trkpt>
<trkpt lat="49.5243078" lon="1.3140688">
<ele>153.0</ele>
<time>2026-09-01T13:25:02.102Z</time>
</trkpt>
<trkpt lat="49.5243527" lon="1.3140085">
<ele>153.0</ele>
<time>2026-09-01T13:25:06.778Z</time>
</trkpt>
<trkpt lat="49.5243918" lon="1.3139563">
<ele>153.0</ele>
<time>2026-09-01T13:25:11.100Z</time>
</trkpt>
<trkpt lat="49.5244333" lon="1.3139037">
<ele>153.0</ele>
<time>2026-09-01T13:25:15.655Z</time>
</trkpt>
<trkpt lat="49.5244694" lon="1.3138517">
<ele>153.0</ele>
<time>2026-09-01T13:25:19.895Z</time>
</trkpt>
<trkpt lat="49.5245037" lon="1.3138024">
<ele>153.0</ele>
<time>2026-09-01T13:25:24.094Z</time>
</trkpt>
<trkpt lat="49.5245366" lon="1.3137499">
<ele>153.0</ele>
<time>2026-09-01T13:25:28.425Z</time>
</trkpt>
<trkpt lat="49.5245678" lon="1.3136938">
<ele>153.0</ele>
<time>2026-09-01T13:25:32.664Z</time>
</trkpt>
<trkpt lat="49.5246074" lon="1.3136399">
<ele>153.0</ele>
<time>2026-09-01T13:25:36.865Z</time>
</trkpt>
<trkpt lat="49.5246391" lon="1.3135777">
<ele>153.0</ele>
<time>2026-09-01T13:25:41.075Z</time>
</trkpt>
<trkpt lat="49.5246733" lon="1.3135253">
<ele>153.0</ele>
<time>2026-09-01T13:25:45.097Z</time>
</trkpt>
<trkpt lat="49.5246999" lon="1.3134607">
<ele>152.0</ele>
<time>2026-09-01T13:25:49.436Z</time>
</trkpt>
<trkpt lat="49.5247267" lon="1.3133937">
<ele>152.0</ele>
<time>2026-09-01T13:25:53.556Z</time>
</trkpt>
<trkpt lat="49.5247463" lon="1.3133302">
<ele>152.0</ele>
<time>2026-09-01T13:25:57.836Z</time>
</trkpt>
<trkpt lat="49.5247829" lon="1.3132792">
<ele>152.0</ele>
<time>2026-09-01T13:26:02.076Z</time>
</trkpt>
<trkpt lat="49.5248115" lon="1.3132271">
<ele>152.0</ele>
<time>2026-09-01T13:26:06.237Z</time>
</trkpt>
<trkpt lat="49.5248399" lon="1.313169">
<ele>151.0</ele>
<time>2026-09-01T13:26:10.476Z</time>
</trkpt>
<trkpt lat="49.5248756" lon="1.3131116">
<ele>150.0</ele>
<time>2026-09-01T13:26:14.637Z</time>
</trkpt>
<trkpt lat="49.5249046" lon="1.3130545">
<ele>150.0</ele>
<time>2026-09-01T13:26:18.798Z</time>
</trkpt>
<trkpt lat="49.5249358" lon="1.3130141">
<ele>150.0</ele>
<time>2026-09-01T13:26:22.918Z</time>
</trkpt>
<trkpt lat="49.5249584" lon="1.3129588">
<ele>150.0</ele>
<time>2026-09-01T13:26:27.099Z</time>
</trkpt>
<trkpt lat="49.5249775" lon="1.3128943">
<ele>148.0</ele>
<time>2026-09-01T13:26:31.319Z</time>
</trkpt>
<trkpt lat="49.5249969" lon="1.3128288">
<ele>148.0</ele>
<time>2026-09-01T13:26:35.479Z</time>
</trkpt>
<trkpt lat="49.5250228" lon="1.3127627">
<ele>148.0</ele>
<time>2026-09-01T13:26:39.679Z</time>
</trkpt>
<trkpt lat="49.5250587" lon="1.3126933">
<ele>148.0</ele>
<time>2026-09-01T13:26:43.880Z</time>
</trkpt>
<trkpt lat="49.5250969" lon="1.3126405">
<ele>148.0</ele>
<time>2026-09-01T13:26:48.080Z</time>
</trkpt>
<trkpt lat="49.5251279" lon="1.3125823">
<ele>147.0</ele>
<time>2026-09-01T13:26:52.113Z</time>
</trkpt>
<trkpt lat="49.5251621" lon="1.312519">
<ele>146.0</ele>
<time>2026-09-01T13:26:56.421Z</time>
</trkpt>
<trkpt lat="49.525193" lon="1.3124517">
<ele>146.0</ele>
<time>2026-09-01T13:27:00.581Z</time>
</trkpt>
<trkpt lat="49.5252184" lon="1.3123851">
<ele>146.0</ele>
<time>2026-09-01T13:27:04.742Z</time>
</trkpt>
<trkpt lat="49.5252479" lon="1.3123216">
<ele>145.0</ele>
<time>2026-09-01T13:27:08.922Z</time>
</trkpt>
<trkpt lat="49.5252821" lon="1.3122642">
<ele>145.0</ele>
<time>2026-09-01T13:27:13.003Z</time>
</trkpt>
<trkpt lat="49.5253077" lon="1.3122028">
<ele>145.0</ele>
<time>2026-09-01T13:27:17.095Z</time>
</trkpt>
<trkpt lat="49.5253345" lon="1.3121422">
<ele>145.0</ele>
<time>2026-09-01T13:27:21.364Z</time>
</trkpt>
<trkpt lat="49.5253555" lon="1.3120822">
<ele>143.0</ele>
<time>2026-09-01T13:27:25.505Z</time>
</trkpt>
<trkpt lat="49.5253824" lon="1.3120446">
<ele>143.0</ele>
<time>2026-09-01T13:27:29.536Z</time>
</trkpt>
<trkpt lat="49.5254284" lon="1.3120112">
<ele>142.0</ele>
<time>2026-09-01T13:27:33.776Z</time>
</trkpt>
<trkpt lat="49.5254724" lon="1.3119881">
<ele>142.0</ele>
<time>2026-09-01T13:27:38.090Z</time>
</trkpt>
<trkpt lat="49.5254559" lon="1.3119728">
<ele>142.0</ele>
<time>2026-09-01T13:29:11.101Z</time>
</trkpt>
<trkpt lat="49.5254649" lon="1.3119466">
<ele>142.0</ele>
<time>2026-09-01T13:29:15.475Z</time>
</trkpt>
<trkpt lat="49.525501" lon="1.3118904">
<ele>142.0</ele>
<time>2026-09-01T13:29:19.725Z</time>
</trkpt>
<trkpt lat="49.5255378" lon="1.311842">
<ele>142.0</ele>
<time>2026-09-01T13:29:23.836Z</time>
</trkpt>
<trkpt lat="49.525574" lon="1.3118027">
<ele>141.0</ele>
<time>2026-09-01T13:29:27.976Z</time>
</trkpt>
<trkpt lat="49.525619" lon="1.3117672">
<ele>141.0</ele>
<time>2026-09-01T13:29:32.098Z</time>
</trkpt>
<trkpt lat="49.5256445" lon="1.3117138">
<ele>141.0</ele>
<time>2026-09-01T13:29:36.297Z</time>
</trkpt>
<trkpt lat="49.5256777" lon="1.3116716">
<ele>141.0</ele>
<time>2026-09-01T13:29:40.458Z</time>
</trkpt>
<trkpt lat="49.5257142" lon="1.3116391">
<ele>138.0</ele>
<time>2026-09-01T13:29:44.598Z</time>
</trkpt>
<trkpt lat="49.5257647" lon="1.3115976">
<ele>138.0</ele>
<time>2026-09-01T13:29:49.102Z</time>
</trkpt>
<trkpt lat="49.5257982" lon="1.3115499">
<ele>138.0</ele>
<time>2026-09-01T13:29:53.106Z</time>
</trkpt>
<trkpt lat="49.5258319" lon="1.3115087">
<ele>136.0</ele>
<time>2026-09-01T13:29:57.338Z</time>
</trkpt>
<trkpt lat="49.5258746" lon="1.3114737">
<ele>136.0</ele>
<time>2026-09-01T13:30:01.478Z</time>
</trkpt>
<trkpt lat="49.5259117" lon="1.3114419">
<ele>136.0</ele>
<time>2026-09-01T13:30:05.560Z</time>
</trkpt>
<trkpt lat="49.5259429" lon="1.3114057">
<ele>136.0</ele>
<time>2026-09-01T13:30:09.581Z</time>
</trkpt>
<trkpt lat="49.5259675" lon="1.3113499">
<ele>136.0</ele>
<time>2026-09-01T13:30:13.642Z</time>
</trkpt>
<trkpt lat="49.5259886" lon="1.3112855">
<ele>134.0</ele>
<time>2026-09-01T13:30:17.743Z</time>
</trkpt>
<trkpt lat="49.5260083" lon="1.3112218">
<ele>136.0</ele>
<time>2026-09-01T13:30:22.086Z</time>
</trkpt>
<trkpt lat="49.5260394" lon="1.3111731">
<ele>136.0</ele>
<time>2026-09-01T13:30:26.541Z</time>
</trkpt>
<trkpt lat="49.5260788" lon="1.311136">
<ele>136.0</ele>
<time>2026-09-01T13:30:30.681Z</time>
</trkpt>
<trkpt lat="49.5261216" lon="1.3110983">
<ele>136.0</ele>
<time>2026-09-01T13:30:34.882Z</time>
</trkpt>
<trkpt lat="49.5261503" lon="1.3110551">
<ele>136.0</ele>
<time>2026-09-01T13:30:39.094Z</time>
</trkpt>
<trkpt lat="49.5261833" lon="1.3110068">
<ele>136.0</ele>
<time>2026-09-01T13:30:43.421Z</time>
</trkpt>
<trkpt lat="49.5262217" lon="1.3109626">
<ele>138.0</ele>
<time>2026-09-01T13:30:47.601Z</time>
</trkpt>
<trkpt lat="49.5262692" lon="1.310921">
<ele>135.0</ele>
<time>2026-09-01T13:30:51.861Z</time>
</trkpt>
<trkpt lat="49.5263081" lon="1.3108986">
<ele>135.0</ele>
<time>2026-09-01T13:31:18.522Z</time>
</trkpt>
<trkpt lat="49.5263253" lon="1.3108335">
<ele>135.0</ele>
<time>2026-09-01T13:31:23.097Z</time>
</trkpt>
<trkpt lat="49.526348" lon="1.3107635">
<ele>135.0</ele>
<time>2026-09-01T13:31:27.339Z</time>
</trkpt>
<trkpt lat="49.526393" lon="1.3107176">
<ele>135.0</ele>
<time>2026-09-01T13:31:31.619Z</time>
</trkpt>
<trkpt lat="49.5264313" lon="1.3106713">
<ele>136.0</ele>
<time>2026-09-01T13:31:35.779Z</time>
</trkpt>
<trkpt lat="49.5264601" lon="1.3106253">
<ele>136.0</ele>
<time>2026-09-01T13:31:40.059Z</time>
</trkpt>
<trkpt lat="49.526507" lon="1.3105881">
<ele>136.0</ele>
<time>2026-09-01T13:31:44.096Z</time>
</trkpt>
<trkpt lat="49.5265447" lon="1.3105494">
<ele>128.0</ele>
<time>2026-09-01T13:31:48.400Z</time>
</trkpt>
<trkpt lat="49.5265773" lon="1.3105107">
<ele>128.0</ele>
<time>2026-09-01T13:31:52.699Z</time>
</trkpt>
<trkpt lat="49.5266137" lon="1.3104788">
<ele>128.0</ele>
<time>2026-09-01T13:31:56.939Z</time>
</trkpt>
<trkpt lat="49.5266462" lon="1.3104392">
<ele>128.0</ele>
<time>2026-09-01T13:32:01.089Z</time>
</trkpt>
<trkpt lat="49.5266794" lon="1.3103937">
<ele>128.0</ele>
<time>2026-09-01T13:32:05.399Z</time>
</trkpt>
<trkpt lat="49.5267034" lon="1.3103442">
<ele>128.0</ele>
<time>2026-09-01T13:32:10.097Z</time>
</trkpt>
<trkpt lat="49.526727" lon="1.3103529">
<ele>128.0</ele>
<time>2026-09-01T13:32:19.096Z</time>
</trkpt>
<trkpt lat="49.5267298" lon="1.3103534">
<ele>128.0</ele>
<time>2026-09-01T13:32:23.094Z</time>
</trkpt>
<trkpt lat="49.5267376" lon="1.3103529">
<ele>128.0</ele>
<time>2026-09-01T13:32:27.096Z</time>
</trkpt>
<trkpt lat="49.5267772" lon="1.3103104">
<ele>128.0</ele>
<time>2026-09-01T13:32:31.881Z</time>
</trkpt>
<trkpt lat="49.526803" lon="1.3102596">
<ele>128.0</ele>
<time>2026-09-01T13:32:36.042Z</time>
</trkpt>
<trkpt lat="49.5268347" lon="1.3102078">
<ele>121.0</ele>
<time>2026-09-01T13:32:40.481Z</time>
</trkpt>
<trkpt lat="49.5268557" lon="1.310142">
<ele>121.0</ele>
<time>2026-09-01T13:32:44.641Z</time>
</trkpt>
<trkpt lat="49.5268648" lon="1.3100932">
<ele>120.0</ele>
<time>2026-09-01T13:32:49.080Z</time>
</trkpt>
<trkpt lat="49.5268565" lon="1.3100429">
<ele>120.0</ele>
<time>2026-09-01T13:32:54.098Z</time>
</trkpt>
<trkpt lat="49.52684" lon="1.3100517">
<ele>120.0</ele>
<time>2026-09-01T13:33:51.100Z</time>
</trkpt>
<trkpt lat="49.5268524" lon="1.3100745">
<ele>120.0</ele>
<time>2026-09-01T13:33:56.095Z</time>
</trkpt>
<trkpt lat="49.5268453" lon="1.3101209">
<ele>120.0</ele>
<time>2026-09-01T13:34:00.092Z</time>
</trkpt>
<trkpt lat="49.526855" lon="1.3101517">
<ele>121.0</ele>
<time>2026-09-01T13:34:04.098Z</time>
</trkpt>
<trkpt lat="49.5268785" lon="1.3101784">
<ele>121.0</ele>
<time>2026-09-01T13:34:09.095Z</time>
</trkpt>
<trkpt lat="49.5269133" lon="1.3102283">
<ele>121.0</ele>
<time>2026-09-01T13:34:13.097Z</time>
</trkpt>
<trkpt lat="49.5269696" lon="1.3102485">
<ele>121.0</ele>
<time>2026-09-01T13:34:18.094Z</time>
</trkpt>
<trkpt lat="49.5269979" lon="1.3102943">
<ele>121.0</ele>
<time>2026-09-01T13:34:22.107Z</time>
</trkpt>
<trkpt lat="49.5270334" lon="1.31038">
<ele>121.0</ele>
<time>2026-09-01T13:34:26.737Z</time>
</trkpt>
<trkpt lat="49.5270749" lon="1.3104147">
<ele>121.0</ele>
<time>2026-09-01T13:34:31.093Z</time>
</trkpt>
<trkpt lat="49.5271264" lon="1.3104408">
<ele>117.0</ele>
<time>2026-09-01T13:34:35.644Z</time>
</trkpt>
<trkpt lat="49.5271603" lon="1.3104759">
<ele>117.0</ele>
<time>2026-09-01T13:34:40.091Z</time>
</trkpt>
<trkpt lat="49.5271893" lon="1.3105236">
<ele>117.0</ele>
<time>2026-09-01T13:34:44.094Z</time>
</trkpt>
<trkpt lat="49.5272276" lon="1.3105692">
<ele>117.0</ele>
<time>2026-09-01T13:34:48.582Z</time>
</trkpt>
<trkpt lat="49.5272527" lon="1.3106063">
<ele>117.0</ele>
<time>2026-09-01T13:34:53.098Z</time>
</trkpt>
<trkpt lat="49.5272929" lon="1.3106472">
<ele>117.0</ele>
<time>2026-09-01T13:34:57.479Z</time>
</trkpt>
<trkpt lat="49.5273336" lon="1.3106825">
<ele>117.0</ele>
<time>2026-09-01T13:35:01.480Z</time>
</trkpt>
<trkpt lat="49.527385" lon="1.3107191">
<ele>114.0</ele>
<time>2026-09-01T13:35:05.820Z</time>
</trkpt>
<trkpt lat="49.5274304" lon="1.3107765">
<ele>114.0</ele>
<time>2026-09-01T13:35:10.357Z</time>
</trkpt>
<trkpt lat="49.5274831" lon="1.3108132">
<ele>114.0</ele>
<time>2026-09-01T13:35:14.816Z</time>
</trkpt>
<trkpt lat="49.5275356" lon="1.3108302">
<ele>114.0</ele>
<time>2026-09-01T13:35:19.304Z</time>
</trkpt>
<trkpt lat="49.5275821" lon="1.3108574">
<ele>114.0</ele>
<time>2026-09-01T13:35:23.375Z</time>
</trkpt>
<trkpt lat="49.5276384" lon="1.3108796">
<ele>114.0</ele>
<time>2026-09-01T13:35:28.022Z</time>
</trkpt>
<trkpt lat="49.5276964" lon="1.3109173">
<ele>112.0</ele>
<time>2026-09-01T13:35:32.381Z</time>
</trkpt>
<trkpt lat="49.5277463" lon="1.3109448">
<ele>112.0</ele>
<time>2026-09-01T13:35:36.403Z</time>
</trkpt>
<trkpt lat="49.5278836" lon="1.3110131">
<ele>113.0</ele>
<time>2026-09-01T13:35:55.092Z</time>
</trkpt>
<trkpt lat="49.5279035" lon="1.3109855">
<ele>113.0</ele>
<time>2026-09-01T13:35:59.559Z</time>
</trkpt>
<trkpt lat="49.5279487" lon="1.3109376">
<ele>111.0</ele>
<time>2026-09-01T13:36:03.640Z</time>
</trkpt>
<trkpt lat="49.5279988" lon="1.3109201">
<ele>111.0</ele>
<time>2026-09-01T13:36:07.979Z</time>
</trkpt>
<trkpt lat="49.5280102" lon="1.3109079">
<ele>111.0</ele>
<time>2026-09-01T13:36:13.091Z</time>
</trkpt>
<trkpt lat="49.5280094" lon="1.3109118">
<ele>111.0</ele>
<time>2026-09-01T13:36:17.620Z</time>
</trkpt>
<trkpt lat="49.5280358" lon="1.3108823">
<ele>111.0</ele>
<time>2026-09-01T13:36:21.960Z</time>
</trkpt>
<trkpt lat="49.528073" lon="1.3108651">
<ele>111.0</ele>
<time>2026-09-01T13:36:26.458Z</time>
</trkpt>
<trkpt lat="49.528112" lon="1.3108454">
<ele>111.0</ele>
<time>2026-09-01T13:36:30.717Z</time>
</trkpt>
<trkpt lat="49.5281421" lon="1.3108118">
<ele>111.0</ele>
<time>2026-09-01T13:36:34.858Z</time>
</trkpt>
<trkpt lat="49.5281697" lon="1.3107956">
<ele>111.0</ele>
<time>2026-09-01T13:36:38.979Z</time>
</trkpt>
<trkpt lat="49.5282023" lon="1.3107704">
<ele>111.0</ele>
<time>2026-09-01T13:36:43.040Z</time>
</trkpt>
<trkpt lat="49.5282379" lon="1.3107659">
<ele>111.0</ele>
<time>2026-09-01T13:36:47.096Z</time>
</trkpt>
<trkpt lat="49.5282821" lon="1.3107768">
<ele>111.0</ele>
<time>2026-09-01T13:36:51.500Z</time>
</trkpt>
<trkpt lat="49.5283293" lon="1.3107907">
<ele>111.0</ele>
<time>2026-09-01T13:36:55.958Z</time>
</trkpt>
<trkpt lat="49.5283757" lon="1.3108243">
<ele>111.0</ele>
<time>2026-09-01T13:37:00.090Z</time>
</trkpt>
<trkpt lat="49.5284216" lon="1.3108462">
<ele>111.0</ele>
<time>2026-09-01T13:37:04.478Z</time>
</trkpt>
<trkpt lat="49.528458" lon="1.3108738">
<ele>111.0</ele>
<time>2026-09-01T13:37:08.499Z</time>
</trkpt>
<trkpt lat="49.5285025" lon="1.3108879">
<ele>110.0</ele>
<time>2026-09-01T13:37:12.799Z</time>
</trkpt>
<trkpt lat="49.5285352" lon="1.3109164">
<ele>110.0</ele>
<time>2026-09-01T13:37:17.297Z</time>
</trkpt>
<trkpt lat="49.5285558" lon="1.3109578">
<ele>110.0</ele>
<time>2026-09-01T13:37:21.676Z</time>
</trkpt>
<trkpt lat="49.5285878" lon="1.3109535">
<ele>110.0</ele>
<time>2026-09-01T13:37:25.975Z</time>
</trkpt>
<trkpt lat="49.528619" lon="1.3109213">
<ele>110.0</ele>
<time>2026-09-01T13:37:30.089Z</time>
</trkpt>
<trkpt lat="49.5286638" lon="1.3108767">
<ele>110.0</ele>
<time>2026-09-01T13:37:35.061Z</time>
</trkpt>
<trkpt lat="49.528695" lon="1.3108237">
<ele>110.0</ele>
<time>2026-09-01T13:37:39.182Z</time>
</trkpt>
<trkpt lat="49.5286962" lon="1.3107974">
<ele>110.0</ele>
<time>2026-09-01T13:41:12.091Z</time>
</trkpt>
<trkpt lat="49.5286937" lon="1.3107736">
<ele>110.0</ele>
<time>2026-09-01T13:41:17.092Z</time>
</trkpt>
<trkpt lat="49.5286898" lon="1.3107659">
<ele>110.0</ele>
<time>2026-09-01T13:41:21.097Z</time>
</trkpt>
<trkpt lat="49.5286979" lon="1.3107012">
<ele>110.0</ele>
<time>2026-09-01T13:41:26.095Z</time>
</trkpt>
<trkpt lat="49.5287184" lon="1.3106273">
<ele>109.0</ele>
<time>2026-09-01T13:41:31.092Z</time>
</trkpt>
<trkpt lat="49.5287369" lon="1.3105522">
<ele>109.0</ele>
<time>2026-09-01T13:41:36.091Z</time>
</trkpt>
<trkpt lat="49.5287629" lon="1.3105046">
<ele>109.0</ele>
<time>2026-09-01T13:41:40.094Z</time>
</trkpt>
<trkpt lat="49.5287802" lon="1.3104153">
<ele>108.0</ele>
<time>2026-09-01T13:41:45.090Z</time>
</trkpt>
<trkpt lat="49.5288022" lon="1.3103447">
<ele>108.0</ele>
<time>2026-09-01T13:41:49.376Z</time>
</trkpt>
<trkpt lat="49.5288208" lon="1.3102747">
<ele>108.0</ele>
<time>2026-09-01T13:41:53.576Z</time>
</trkpt>
<trkpt lat="49.5288353" lon="1.3101899">
<ele>108.0</ele>
<time>2026-09-01T13:41:58.092Z</time>
</trkpt>
<trkpt lat="49.5288583" lon="1.3100959">
<ele>109.0</ele>
<time>2026-09-01T13:42:02.741Z</time>
</trkpt>
<trkpt lat="49.5288774" lon="1.3100205">
<ele>109.0</ele>
<time>2026-09-01T13:42:06.762Z</time>
</trkpt>
<trkpt lat="49.5289002" lon="1.3099525">
<ele>109.0</ele>
<time>2026-09-01T13:42:10.883Z</time>
</trkpt>
<trkpt lat="49.5289281" lon="1.3098662">
<ele>109.0</ele>
<time>2026-09-01T13:42:15.520Z</time>
</trkpt>
<trkpt lat="49.5289461" lon="1.3097913">
<ele>109.0</ele>
<time>2026-09-01T13:42:20.093Z</time>
</trkpt>
<trkpt lat="49.5289561" lon="1.309723">
<ele>109.0</ele>
<time>2026-09-01T13:42:24.091Z</time>
</trkpt>
<trkpt lat="49.5290141" lon="1.3096813">
<ele>109.0</ele>
<time>2026-09-01T13:43:06.097Z</time>
</trkpt>
<trkpt lat="49.5290224" lon="1.3096817">
<ele>109.0</ele>
<time>2026-09-01T13:43:11.090Z</time>
</trkpt>
<trkpt lat="49.5290307" lon="1.3096766">
<ele>108.0</ele>
<time>2026-09-01T13:43:17.997Z</time>
</trkpt>
<trkpt lat="49.5290256" lon="1.3096228">
<ele>109.0</ele>
<time>2026-09-01T13:43:22.237Z</time>
</trkpt>
<trkpt lat="49.5290318" lon="1.3095449">
<ele>109.0</ele>
<time>2026-09-01T13:43:26.338Z</time>
</trkpt>
<trkpt lat="49.5290389" lon="1.3094592">
<ele>109.0</ele>
<time>2026-09-01T13:43:45.096Z</time>
</trkpt>
<trkpt lat="49.5290526" lon="1.3094167">
<ele>109.0</ele>
<time>2026-09-01T13:43:49.742Z</time>
</trkpt>
<trkpt lat="49.5290747" lon="1.3093381">
<ele>109.0</ele>
<time>2026-09-01T13:43:54.021Z</time>
</trkpt>
<trkpt lat="49.5291038" lon="1.3092773">
<ele>109.0</ele>
<time>2026-09-01T13:43:58.639Z</time>
</trkpt>
<trkpt lat="49.5291203" lon="1.3092348">
<ele>109.0</ele>
<time>2026-09-01T13:44:02.819Z</time>
</trkpt>
<trkpt lat="49.5291209" lon="1.3091633">
<ele>109.0</ele>
<time>2026-09-01T13:44:07.096Z</time>
</trkpt>
<trkpt lat="49.529129" lon="1.3091027">
<ele>109.0</ele>
<time>2026-09-01T13:44:11.358Z</time>
</trkpt>
<trkpt lat="49.5291449" lon="1.3090352">
<ele>109.0</ele>
<time>2026-09-01T13:44:15.618Z</time>
</trkpt>
<trkpt lat="49.5291702" lon="1.3089821">
<ele>110.0</ele>
<time>2026-09-01T13:44:19.818Z</time>
</trkpt>
<trkpt lat="49.5291822" lon="1.3089239">
<ele>110.0</ele>
<time>2026-09-01T13:44:24.092Z</time>
</trkpt>
<trkpt lat="49.529189" lon="1.3088905">
<ele>110.0</ele>
<time>2026-09-01T13:44:28.656Z</time>
</trkpt>
<trkpt lat="49.5292063" lon="1.3088342">
<ele>110.0</ele>
<time>2026-09-01T13:44:32.677Z</time>
</trkpt>
<trkpt lat="49.5292158" lon="1.3087602">
<ele>110.0</ele>
<time>2026-09-01T13:44:36.957Z</time>
</trkpt>
<trkpt lat="49.5292092" lon="1.3086797">
<ele>111.0</ele>
<time>2026-09-01T13:44:41.096Z</time>
</trkpt>
<trkpt lat="49.5292084" lon="1.3086062">
<ele>111.0</ele>
<time>2026-09-01T13:44:45.357Z</time>
</trkpt>
<trkpt lat="49.5292108" lon="1.3085444">
<ele>111.0</ele>
<time>2026-09-01T13:44:49.518Z</time>
</trkpt>
<trkpt lat="49.5292126" lon="1.3084765">
<ele>111.0</ele>
<time>2026-09-01T13:44:53.837Z</time>
</trkpt>
<trkpt lat="49.5292073" lon="1.3083987">
<ele>112.0</ele>
<time>2026-09-01T13:44:58.037Z</time>
</trkpt>
<trkpt lat="49.5292089" lon="1.3083373">
<ele>112.0</ele>
<time>2026-09-01T13:45:02.095Z</time>
</trkpt>
<trkpt lat="49.5292051" lon="1.3082499">
<ele>112.0</ele>
<time>2026-09-01T13:45:06.815Z</time>
</trkpt>
<trkpt lat="49.5291875" lon="1.3081758">
<ele>112.0</ele>
<time>2026-09-01T13:45:11.283Z</time>
</trkpt>
<trkpt lat="49.5292003" lon="1.3081336">
<ele>112.0</ele>
<time>2026-09-01T13:46:22.083Z</time>
</trkpt>
<trkpt lat="49.5291986" lon="1.308127">
<ele>112.0</ele>
<time>2026-09-01T13:46:26.090Z</time>
</trkpt>
<trkpt lat="49.5292003" lon="1.308125">
<ele>112.0</ele>
<time>2026-09-01T13:46:31.091Z</time>
</trkpt>
<trkpt lat="49.5291926" lon="1.3080873">
<ele>112.0</ele>
<time>2026-09-01T13:46:35.476Z</time>
</trkpt>
<trkpt lat="49.5291604" lon="1.3080226">
<ele>112.0</ele>
<time>2026-09-01T13:46:39.756Z</time>
</trkpt>
<trkpt lat="49.5291151" lon="1.3080058">
<ele>112.0</ele>
<time>2026-09-01T13:46:43.837Z</time>
</trkpt>
<trkpt lat="49.5290761" lon="1.3079566">
<ele>112.0</ele>
<time>2026-09-01T13:46:48.097Z</time>
</trkpt>
<trkpt lat="49.5290389" lon="1.307903">
<ele>113.0</ele>
<time>2026-09-01T13:46:52.297Z</time>
</trkpt>
<trkpt lat="49.5290063" lon="1.3078477">
<ele>112.0</ele>
<time>2026-09-01T13:46:56.517Z</time>
</trkpt>
<trkpt lat="49.5289726" lon="1.3077966">
<ele>112.0</ele>
<time>2026-09-01T13:47:00.559Z</time>
</trkpt>
<trkpt lat="49.5289386" lon="1.3077476">
<ele>112.0</ele>
<time>2026-09-01T13:47:04.838Z</time>
</trkpt>
<trkpt lat="49.5289058" lon="1.3077008">
<ele>112.0</ele>
<time>2026-09-01T13:47:09.094Z</time>
</trkpt>
<trkpt lat="49.5288719" lon="1.3076445">
<ele>112.0</ele>
<time>2026-09-01T13:47:13.338Z</time>
</trkpt>
<trkpt lat="49.5288366" lon="1.3075918">
<ele>111.0</ele>
<time>2026-09-01T13:47:17.538Z</time>
</trkpt>
<trkpt lat="49.528801" lon="1.3075453">
<ele>111.0</ele>
<time>2026-09-01T13:47:21.659Z</time>
</trkpt>
<trkpt lat="49.5287592" lon="1.3074817">
<ele>111.0</ele>
<time>2026-09-01T13:47:26.375Z</time>
</trkpt>
<trkpt lat="49.5287149" lon="1.3074184">
<ele>112.0</ele>
<time>2026-09-01T13:47:31.022Z</time>
</trkpt>
<trkpt lat="49.5286738" lon="1.307358">
<ele>111.0</ele>
<time>2026-09-01T13:47:35.679Z</time>
</trkpt>
<trkpt lat="49.528633" lon="1.307299">
<ele>111.0</ele>
<time>2026-09-01T13:47:40.092Z</time>
</trkpt>
<trkpt lat="49.5285775" lon="1.3072372">
<ele>111.0</ele>
<time>2026-09-01T13:47:44.924Z</time>
</trkpt>
<trkpt lat="49.5285351" lon="1.307176">
<ele>111.0</ele>
<time>2026-09-01T13:47:49.025Z</time>
</trkpt>
<trkpt lat="49.5285034" lon="1.3071205">
<ele>111.0</ele>
<time>2026-09-01T13:47:53.056Z</time>
</trkpt>
<trkpt lat="49.5284664" lon="1.3070719">
<ele>111.0</ele>
<time>2026-09-01T13:47:57.097Z</time>
</trkpt>
<trkpt lat="49.5284309" lon="1.3070302">
<ele>111.0</ele>
<time>2026-09-01T13:48:01.238Z</time>
</trkpt>
<trkpt lat="49.528405" lon="1.3069963">
<ele>111.0</ele>
<time>2026-09-01T13:48:05.299Z</time>
</trkpt>
<trkpt lat="49.5283562" lon="1.3069795">
<ele>111.0</ele>
<time>2026-09-01T13:48:09.995Z</time>
</trkpt>
<trkpt lat="49.5283131" lon="1.3069494">
<ele>111.0</ele>
<time>2026-09-01T13:48:14.037Z</time>
</trkpt>
<trkpt lat="49.5282864" lon="1.306908">
<ele>111.0</ele>
<time>2026-09-01T13:48:18.095Z</time>
</trkpt>
<trkpt lat="49.5282583" lon="1.3068585">
<ele>111.0</ele>
<time>2026-09-01T13:48:22.804Z</time>
</trkpt>
<trkpt lat="49.5282201" lon="1.3067986">
<ele>113.0</ele>
<time>2026-09-01T13:48:27.461Z</time>
</trkpt>
<trkpt lat="49.5281865" lon="1.3067448">
<ele>111.0</ele>
<time>2026-09-01T13:48:32.039Z</time>
</trkpt>
<trkpt lat="49.5281326" lon="1.3067096">
<ele>111.0</ele>
<time>2026-09-01T13:48:36.378Z</time>
</trkpt>
<trkpt lat="49.5280788" lon="1.3066476">
<ele>111.0</ele>
<time>2026-09-01T13:48:41.092Z</time>
</trkpt>
<trkpt lat="49.5280556" lon="1.3065785">
<ele>111.0</ele>
<time>2026-09-01T13:48:45.523Z</time>
</trkpt>
<trkpt lat="49.528013" lon="1.3064991">
<ele>113.0</ele>
<time>2026-09-01T13:48:50.095Z</time>
</trkpt>
<trkpt lat="49.5279676" lon="1.3064332">
<ele>113.0</ele>
<time>2026-09-01T13:48:54.579Z</time>
</trkpt>
<trkpt lat="49.5279316" lon="1.3063641">
<ele>113.0</ele>
<time>2026-09-01T13:48:59.090Z</time>
</trkpt>
<trkpt lat="49.5279046" lon="1.3062935">
<ele>109.0</ele>
<time>2026-09-01T13:49:03.356Z</time>
</trkpt>
<trkpt lat="49.5278723" lon="1.3062418">
<ele>110.0</ele>
<time>2026-09-01T13:49:07.497Z</time>
</trkpt>
<trkpt lat="49.5278527" lon="1.3061856">
<ele>110.0</ele>
<time>2026-09-01T13:49:12.087Z</time>
</trkpt>
<trkpt lat="49.5278274" lon="1.3061135">
<ele>110.0</ele>
<time>2026-09-01T13:49:16.741Z</time>
</trkpt>
<trkpt lat="49.5277935" lon="1.3060537">
<ele>110.0</ele>
<time>2026-09-01T13:49:21.219Z</time>
</trkpt>
<trkpt lat="49.5277523" lon="1.3059774">
<ele>110.0</ele>
<time>2026-09-01T13:49:25.856Z</time>
</trkpt>
<trkpt lat="49.5277175" lon="1.3059092">
<ele>111.0</ele>
<time>2026-09-01T13:49:29.878Z</time>
</trkpt>
<trkpt lat="49.5276821" lon="1.3058437">
<ele>111.0</ele>
<time>2026-09-01T13:49:33.899Z</time>
</trkpt>
<trkpt lat="49.5276452" lon="1.3057923">
<ele>111.0</ele>
<time>2026-09-01T13:49:37.940Z</time>
</trkpt>
<trkpt lat="49.5276107" lon="1.3057338">
<ele>108.0</ele>
<time>2026-09-01T13:49:42.021Z</time>
</trkpt>
<trkpt lat="49.5275678" lon="1.3056486">
<ele>109.0</ele>
<time>2026-09-01T13:49:46.599Z</time>
</trkpt>
<trkpt lat="49.5275299" lon="1.3055703">
<ele>109.0</ele>
<time>2026-09-01T13:49:51.086Z</time>
</trkpt>
<trkpt lat="49.5274939" lon="1.3055146">
<ele>109.0</ele>
<time>2026-09-01T13:49:55.197Z</time>
</trkpt>
<trkpt lat="49.5274561" lon="1.305474">
<ele>109.0</ele>
<time>2026-09-01T13:49:59.318Z</time>
</trkpt>
<trkpt lat="49.5274177" lon="1.3054067">
<ele>110.0</ele>
<time>2026-09-01T13:50:03.876Z</time>
</trkpt>
<trkpt lat="49.5273876" lon="1.3053345">
<ele>110.0</ele>
<time>2026-09-01T13:50:07.897Z</time>
</trkpt>
<trkpt lat="49.527358" lon="1.3052602">
<ele>109.0</ele>
<time>2026-09-01T13:50:11.958Z</time>
</trkpt>
<trkpt lat="49.5273182" lon="1.3052099">
<ele>109.0</ele>
<time>2026-09-01T13:50:15.980Z</time>
</trkpt>
<trkpt lat="49.5272734" lon="1.3051693">
<ele>109.0</ele>
<time>2026-09-01T13:50:20.021Z</time>
</trkpt>
<trkpt lat="49.5272263" lon="1.3051158">
<ele>110.0</ele>
<time>2026-09-01T13:50:24.598Z</time>
</trkpt>
<trkpt lat="49.5271816" lon="1.3050861">
<ele>110.0</ele>
<time>2026-09-01T13:50:29.094Z</time>
</trkpt>
<trkpt lat="49.5271431" lon="1.30504">
<ele>110.0</ele>
<time>2026-09-01T13:50:33.091Z</time>
</trkpt>
<trkpt lat="49.5270934" lon="1.3049809">
<ele>110.0</ele>
<time>2026-09-01T13:50:37.785Z</time>
</trkpt>
<trkpt lat="49.5270404" lon="1.3049326">
<ele>108.0</ele>
<time>2026-09-01T13:50:42.263Z</time>
</trkpt>
<trkpt lat="49.526994" lon="1.3048869">
<ele>108.0</ele>
<time>2026-09-01T13:50:46.324Z</time>
</trkpt>
<trkpt lat="49.5269416" lon="1.304848">
<ele>109.0</ele>
<time>2026-09-01T13:50:50.842Z</time>
</trkpt>
<trkpt lat="49.5268893" lon="1.3048163">
<ele>109.0</ele>
<time>2026-09-01T13:50:55.360Z</time>
</trkpt>
<trkpt lat="49.5268383" lon="1.3047753">
<ele>109.0</ele>
<time>2026-09-01T13:50:59.858Z</time>
</trkpt>
<trkpt lat="49.5267913" lon="1.3047212">
<ele>108.0</ele>
<time>2026-09-01T13:51:04.375Z</time>
</trkpt>
<trkpt lat="49.5267489" lon="1.3046768">
<ele>108.0</ele>
<time>2026-09-01T13:51:08.983Z</time>
</trkpt>
<trkpt lat="49.5267008" lon="1.30466">
<ele>108.0</ele>
<time>2026-09-01T13:51:13.461Z</time>
</trkpt>
<trkpt lat="49.5266505" lon="1.3046284">
<ele>108.0</ele>
<time>2026-09-01T13:51:17.919Z</time>
</trkpt>
<trkpt lat="49.5266019" lon="1.3045904">
<ele>108.0</ele>
<time>2026-09-01T13:51:22.536Z</time>
</trkpt>
<trkpt lat="49.5265471" lon="1.3045562">
<ele>110.0</ele>
<time>2026-09-01T13:51:27.091Z</time>
</trkpt>
<trkpt lat="49.5264916" lon="1.3045265">
<ele>108.0</ele>
<time>2026-09-01T13:51:31.781Z</time>
</trkpt>
<trkpt lat="49.5264422" lon="1.3044981">
<ele>108.0</ele>
<time>2026-09-01T13:51:36.298Z</time>
</trkpt>
<trkpt lat="49.5263837" lon="1.3044614">
<ele>108.0</ele>
<time>2026-09-01T13:51:40.876Z</time>
</trkpt>
<trkpt lat="49.5263328" lon="1.3044274">
<ele>108.0</ele>
<time>2026-09-01T13:51:45.463Z</time>
</trkpt>
<trkpt lat="49.5262912" lon="1.3043762">
<ele>108.0</ele>
<time>2026-09-01T13:51:49.505Z</time>
</trkpt>
<trkpt lat="49.5262361" lon="1.3043497">
<ele>106.0</ele>
<time>2026-09-01T13:51:53.963Z</time>
</trkpt>
<trkpt lat="49.5261781" lon="1.304327">
<ele>106.0</ele>
<time>2026-09-01T13:51:58.421Z</time>
</trkpt>
<trkpt lat="49.5261286" lon="1.3043157">
<ele>106.0</ele>
<time>2026-09-01T13:52:02.502Z</time>
</trkpt>
<trkpt lat="49.5260823" lon="1.3042907">
<ele>109.0</ele>
<time>2026-09-01T13:52:07.096Z</time>
</trkpt>
<trkpt lat="49.5260351" lon="1.30424">
<ele>109.0</ele>
<time>2026-09-01T13:52:11.637Z</time>
</trkpt>
<trkpt lat="49.5259842" lon="1.3041993">
<ele>109.0</ele>
<time>2026-09-01T13:52:16.090Z</time>
</trkpt>
<trkpt lat="49.5259275" lon="1.304165">
<ele>108.0</ele>
<time>2026-09-01T13:52:20.802Z</time>
</trkpt>
<trkpt lat="49.5258722" lon="1.3041302">
<ele>108.0</ele>
<time>2026-09-01T13:52:25.399Z</time>
</trkpt>
<trkpt lat="49.5258223" lon="1.3041042">
<ele>108.0</ele>
<time>2026-09-01T13:52:29.857Z</time>
</trkpt>
<trkpt lat="49.5257971" lon="1.3040611">
<ele>108.0</ele>
<time>2026-09-01T13:52:34.018Z</time>
</trkpt>
<trkpt lat="49.5257518" lon="1.3040241">
<ele>112.0</ele>
<time>2026-09-01T13:52:38.090Z</time>
</trkpt>
<trkpt lat="49.525694" lon="1.3039966">
<ele>112.0</ele>
<time>2026-09-01T13:52:42.815Z</time>
</trkpt>
<trkpt lat="49.5256397" lon="1.3039768">
<ele>112.0</ele>
<time>2026-09-01T13:52:47.561Z</time>
</trkpt>
<trkpt lat="49.5255965" lon="1.3039451">
<ele>112.0</ele>
<time>2026-09-01T13:52:51.583Z</time>
</trkpt>
<trkpt lat="49.5255503" lon="1.3039095">
<ele>112.0</ele>
<time>2026-09-01T13:52:55.823Z</time>
</trkpt>
<trkpt lat="49.525504" lon="1.3038786">
<ele>112.0</ele>
<time>2026-09-01T13:52:59.864Z</time>
</trkpt>
<trkpt lat="49.5254634" lon="1.3038503">
<ele>112.0</ele>
<time>2026-09-01T13:53:04.004Z</time>
</trkpt>
<trkpt lat="49.5254198" lon="1.3038208">
<ele>112.0</ele>
<time>2026-09-01T13:53:08.016Z</time>
</trkpt>
<trkpt lat="49.5253724" lon="1.3037738">
<ele>114.0</ele>
<time>2026-09-01T13:53:12.096Z</time>
</trkpt>
<trkpt lat="49.5253262" lon="1.3037439">
<ele>117.0</ele>
<time>2026-09-01T13:53:16.237Z</time>
</trkpt>
<trkpt lat="49.5252779" lon="1.3037181">
<ele>117.0</ele>
<time>2026-09-01T13:53:20.418Z</time>
</trkpt>
<trkpt lat="49.5252379" lon="1.3036941">
<ele>117.0</ele>
<time>2026-09-01T13:53:24.459Z</time>
</trkpt>
<trkpt lat="49.5251924" lon="1.3036617">
<ele>117.0</ele>
<time>2026-09-01T13:53:28.699Z</time>
</trkpt>
<trkpt lat="49.5251484" lon="1.3036289">
<ele>117.0</ele>
<time>2026-09-01T13:53:32.859Z</time>
</trkpt>
<trkpt lat="49.5251008" lon="1.3036149">
<ele>118.0</ele>
<time>2026-09-01T13:53:37.059Z</time>
</trkpt>
<trkpt lat="49.5250484" lon="1.3035848">
<ele>118.0</ele>
<time>2026-09-01T13:53:41.239Z</time>
</trkpt>
<trkpt lat="49.5250016" lon="1.3035612">
<ele>118.0</ele>
<time>2026-09-01T13:53:45.400Z</time>
</trkpt>
<trkpt lat="49.5249685" lon="1.3035859">
<ele>118.0</ele>
<time>2026-09-01T13:53:49.501Z</time>
</trkpt>
<trkpt lat="49.5249242" lon="1.303587">
<ele>118.0</ele>
<time>2026-09-01T13:53:53.780Z</time>
</trkpt>
<trkpt lat="49.5248774" lon="1.3035616">
<ele>118.0</ele>
<time>2026-09-01T13:53:57.841Z</time>
</trkpt>
<trkpt lat="49.5248282" lon="1.3035298">
<ele>116.0</ele>
<time>2026-09-01T13:54:02.002Z</time>
</trkpt>
<trkpt lat="49.5247893" lon="1.3034931">
<ele>116.0</ele>
<time>2026-09-01T13:54:06.088Z</time>
</trkpt>
<trkpt lat="49.5247269" lon="1.3034787">
<ele>116.0</ele>
<time>2026-09-01T13:54:10.740Z</time>
</trkpt>
<trkpt lat="49.524681" lon="1.3034945">
<ele>116.0</ele>
<time>2026-09-01T13:54:14.999Z</time>
</trkpt>
<trkpt lat="49.5246346" lon="1.3035143">
<ele>116.0</ele>
<time>2026-09-01T13:54:19.358Z</time>
</trkpt>
<trkpt lat="49.524584" lon="1.3035266">
<ele>116.0</ele>
<time>2026-09-01T13:54:23.658Z</time>
</trkpt>
<trkpt lat="49.5245315" lon="1.3035419">
<ele>113.0</ele>
<time>2026-09-01T13:54:27.858Z</time>
</trkpt>
<trkpt lat="49.5244885" lon="1.3035374">
<ele>113.0</ele>
<time>2026-09-01T13:54:31.979Z</time>
</trkpt>
<trkpt lat="49.524446" lon="1.3035327">
<ele>113.0</ele>
<time>2026-09-01T13:54:36.199Z</time>
</trkpt>
<trkpt lat="49.5244046" lon="1.3035124">
<ele>113.0</ele>
<time>2026-09-01T13:54:40.260Z</time>
</trkpt>
<trkpt lat="49.5243621" lon="1.3035107">
<ele>113.0</ele>
<time>2026-09-01T13:54:44.619Z</time>
</trkpt>
<trkpt lat="49.524318" lon="1.303515">
<ele>113.0</ele>
<time>2026-09-01T13:54:48.899Z</time>
</trkpt>
<trkpt lat="49.5242745" lon="1.3035116">
<ele>112.0</ele>
<time>2026-09-01T13:54:53.158Z</time>
</trkpt>
<trkpt lat="49.5242302" lon="1.3035095">
<ele>112.0</ele>
<time>2026-09-01T13:54:57.696Z</time>
</trkpt>
<trkpt lat="49.5241899" lon="1.3035057">
<ele>112.0</ele>
<time>2026-09-01T13:55:01.916Z</time>
</trkpt>
<trkpt lat="49.5241451" lon="1.3034875">
<ele>112.0</ele>
<time>2026-09-01T13:55:06.603Z</time>
</trkpt>
<trkpt lat="49.5241003" lon="1.3034868">
<ele>112.0</ele>
<time>2026-09-01T13:55:10.903Z</time>
</trkpt>
<trkpt lat="49.5240556" lon="1.3034884">
<ele>112.0</ele>
<time>2026-09-01T13:55:15.341Z</time>
</trkpt>
<trkpt lat="49.5240151" lon="1.3034715">
<ele>114.0</ele>
<time>2026-09-01T13:55:19.621Z</time>
</trkpt>
<trkpt lat="49.5239674" lon="1.3034598">
<ele>114.0</ele>
<time>2026-09-01T13:55:24.083Z</time>
</trkpt>
<trkpt lat="49.5239189" lon="1.3034548">
<ele>114.0</ele>
<time>2026-09-01T13:55:28.578Z</time>
</trkpt>
<trkpt lat="49.5238733" lon="1.303443">
<ele>114.0</ele>
<time>2026-09-01T13:55:32.639Z</time>
</trkpt>
<trkpt lat="49.5238233" lon="1.3034377">
<ele>114.0</ele>
<time>2026-09-01T13:55:36.700Z</time>
</trkpt>
<trkpt lat="49.5237818" lon="1.303454">
<ele>114.0</ele>
<time>2026-09-01T13:55:40.761Z</time>
</trkpt>
<trkpt lat="49.5237381" lon="1.3034335">
<ele>113.0</ele>
<time>2026-09-01T13:55:44.882Z</time>
</trkpt>
<trkpt lat="49.5236865" lon="1.3033888">
<ele>113.0</ele>
<time>2026-09-01T13:55:48.963Z</time>
</trkpt>
<trkpt lat="49.5236389" lon="1.3033621">
<ele>113.0</ele>
<time>2026-09-01T13:55:53.089Z</time>
</trkpt>
<trkpt lat="49.5235937" lon="1.3033459">
<ele>113.0</ele>
<time>2026-09-01T13:55:57.155Z</time>
</trkpt>
<trkpt lat="49.5235445" lon="1.3033357">
<ele>113.0</ele>
<time>2026-09-01T13:56:01.395Z</time>
</trkpt>
<trkpt lat="49.5234965" lon="1.3033249">
<ele>113.0</ele>
<time>2026-09-01T13:56:05.536Z</time>
</trkpt>
<trkpt lat="49.5234483" lon="1.3033123">
<ele>113.0</ele>
<time>2026-09-01T13:56:09.657Z</time>
</trkpt>
<trkpt lat="49.5234038" lon="1.30329">
<ele>113.0</ele>
<time>2026-09-01T13:56:13.718Z</time>
</trkpt>
<trkpt lat="49.5233549" lon="1.303276">
<ele>113.0</ele>
<time>2026-09-01T13:56:17.839Z</time>
</trkpt>
<trkpt lat="49.5233056" lon="1.3032681">
<ele>113.0</ele>
<time>2026-09-01T13:56:21.940Z</time>
</trkpt>
<trkpt lat="49.5232635" lon="1.3032407">
<ele>113.0</ele>
<time>2026-09-01T13:56:26.021Z</time>
</trkpt>
<trkpt lat="49.5232167" lon="1.3031855">
<ele>114.0</ele>
<time>2026-09-01T13:56:30.086Z</time>
</trkpt>
<trkpt lat="49.5231728" lon="1.3031386">
<ele>112.0</ele>
<time>2026-09-01T13:56:34.086Z</time>
</trkpt>
<trkpt lat="49.5231258" lon="1.3030977">
<ele>112.0</ele>
<time>2026-09-01T13:56:38.264Z</time>
</trkpt>
<trkpt lat="49.5230801" lon="1.3030701">
<ele>112.0</ele>
<time>2026-09-01T13:56:42.355Z</time>
</trkpt>
<trkpt lat="49.5230314" lon="1.3030499">
<ele>112.0</ele>
<time>2026-09-01T13:56:46.436Z</time>
</trkpt>
<trkpt lat="49.5229852" lon="1.3030309">
<ele>112.0</ele>
<time>2026-09-01T13:56:50.596Z</time>
</trkpt>
<trkpt lat="49.5229389" lon="1.303009">
<ele>112.0</ele>
<time>2026-09-01T13:56:54.638Z</time>
</trkpt>
<trkpt lat="49.5228889" lon="1.3029979">
<ele>110.0</ele>
<time>2026-09-01T13:56:59.195Z</time>
</trkpt>
<trkpt lat="49.5228404" lon="1.3029856">
<ele>110.0</ele>
<time>2026-09-01T13:57:03.336Z</time>
</trkpt>
<trkpt lat="49.5227986" lon="1.3029751">
<ele>110.0</ele>
<time>2026-09-01T13:57:07.397Z</time>
</trkpt>
<trkpt lat="49.5227566" lon="1.3029616">
<ele>110.0</ele>
<time>2026-09-01T13:57:11.617Z</time>
</trkpt>
<trkpt lat="49.5227141" lon="1.3029467">
<ele>110.0</ele>
<time>2026-09-01T13:57:15.678Z</time>
</trkpt>
<trkpt lat="49.5225841" lon="1.3028955">
<ele>111.0</ele>
<time>2026-09-01T13:57:37.094Z</time>
</trkpt>
<trkpt lat="49.5225647" lon="1.3028698">
<ele>111.0</ele>
<time>2026-09-01T13:57:41.544Z</time>
</trkpt>
<trkpt lat="49.5225161" lon="1.3028186">
<ele>111.0</ele>
<time>2026-09-01T13:57:45.844Z</time>
</trkpt>
<trkpt lat="49.5224742" lon="1.302771">
<ele>111.0</ele>
<time>2026-09-01T13:57:50.092Z</time>
</trkpt>
<trkpt lat="49.5224269" lon="1.3027379">
<ele>111.0</ele>
<time>2026-09-01T13:57:54.562Z</time>
</trkpt>
<trkpt lat="49.5223797" lon="1.3027247">
<ele>111.0</ele>
<time>2026-09-01T13:57:58.861Z</time>
</trkpt>
<trkpt lat="49.5223406" lon="1.3027106">
<ele>110.0</ele>
<time>2026-09-01T13:58:03.081Z</time>
</trkpt>
<trkpt lat="49.5223044" lon="1.3026892">
<ele>110.0</ele>
<time>2026-09-01T13:58:07.222Z</time>
</trkpt>
<trkpt lat="49.5222642" lon="1.3026453">
<ele>110.0</ele>
<time>2026-09-01T13:58:11.462Z</time>
</trkpt>
<trkpt lat="49.5222241" lon="1.3025952">
<ele>110.0</ele>
<time>2026-09-01T13:58:15.642Z</time>
</trkpt>
<trkpt lat="49.5221828" lon="1.3025506">
<ele>110.0</ele>
<time>2026-09-01T13:58:19.882Z</time>
</trkpt>
<trkpt lat="49.5221427" lon="1.3025117">
<ele>110.0</ele>
<time>2026-09-01T13:58:24.022Z</time>
</trkpt>
<trkpt lat="49.522099" lon="1.3024729">
<ele>110.0</ele>
<time>2026-09-01T13:58:28.083Z</time>
</trkpt>
<trkpt lat="49.5220621" lon="1.3024158">
<ele>108.0</ele>
<time>2026-09-01T13:58:32.264Z</time>
</trkpt>
<trkpt lat="49.5220174" lon="1.3023698">
<ele>108.0</ele>
<time>2026-09-01T13:58:36.384Z</time>
</trkpt>
<trkpt lat="49.5219661" lon="1.3023178">
<ele>109.0</ele>
<time>2026-09-01T13:58:41.061Z</time>
</trkpt>
<trkpt lat="49.5219249" lon="1.3022704">
<ele>109.0</ele>
<time>2026-09-01T13:58:45.089Z</time>
</trkpt>
<trkpt lat="49.5218877" lon="1.302214">
<ele>109.0</ele>
<time>2026-09-01T13:58:49.263Z</time>
</trkpt>
<trkpt lat="49.5218497" lon="1.3021647">
<ele>109.0</ele>
<time>2026-09-01T13:58:53.364Z</time>
</trkpt>
<trkpt lat="49.5218148" lon="1.3021105">
<ele>109.0</ele>
<time>2026-09-01T13:58:57.584Z</time>
</trkpt>
<trkpt lat="49.5217803" lon="1.3020693">
<ele>108.0</ele>
<time>2026-09-01T13:59:01.764Z</time>
</trkpt>
<trkpt lat="49.5217408" lon="1.3020395">
<ele>108.0</ele>
<time>2026-09-01T13:59:06.024Z</time>
</trkpt>
<trkpt lat="49.5217019" lon="1.3020198">
<ele>108.0</ele>
<time>2026-09-01T13:59:10.164Z</time>
</trkpt>
<trkpt lat="49.5216619" lon="1.3019864">
<ele>108.0</ele>
<time>2026-09-01T13:59:14.503Z</time>
</trkpt>
<trkpt lat="49.5216257" lon="1.3019494">
<ele>108.0</ele>
<time>2026-09-01T13:59:18.803Z</time>
</trkpt>
<trkpt lat="49.5215868" lon="1.3019186">
<ele>108.0</ele>
<time>2026-09-01T13:59:23.043Z</time>
</trkpt>
<trkpt lat="49.5215466" lon="1.3018866">
<ele>108.0</ele>
<time>2026-09-01T13:59:27.243Z</time>
</trkpt>
<trkpt lat="49.5215063" lon="1.3018298">
<ele>106.0</ele>
<time>2026-09-01T13:59:31.522Z</time>
</trkpt>
<trkpt lat="49.5214658" lon="1.301767">
<ele>107.0</ele>
<time>2026-09-01T13:59:36.087Z</time>
</trkpt>
<trkpt lat="49.5214677" lon="1.3017675">
<ele>107.0</ele>
<time>2026-09-01T13:59:40.095Z</time>
</trkpt>
<trkpt lat="49.5214625" lon="1.3017685">
<ele>107.0</ele>
<time>2026-09-01T13:59:44.897Z</time>
</trkpt>
<trkpt lat="49.5214228" lon="1.3017428">
<ele>107.0</ele>
<time>2026-09-01T13:59:49.038Z</time>
</trkpt>
<trkpt lat="49.5213858" lon="1.3017087">
<ele>107.0</ele>
<time>2026-09-01T13:59:53.456Z</time>
</trkpt>
<trkpt lat="49.5213341" lon="1.3016834">
<ele>107.0</ele>
<time>2026-09-01T14:01:26.093Z</time>
</trkpt>
<trkpt lat="49.521289" lon="1.301615">
<ele>107.0</ele>
<time>2026-09-01T14:01:31.099Z</time>
</trkpt>
<trkpt lat="49.5212304" lon="1.3015437">
<ele>106.0</ele>
<time>2026-09-01T14:01:36.088Z</time>
</trkpt>
<trkpt lat="49.521181" lon="1.3014866">
<ele>107.0</ele>
<time>2026-09-01T14:01:40.093Z</time>
</trkpt>
<trkpt lat="49.5211471" lon="1.3014407">
<ele>107.0</ele>
<time>2026-09-01T14:01:44.161Z</time>
</trkpt>
<trkpt lat="49.5211103" lon="1.3013897">
<ele>107.0</ele>
<time>2026-09-01T14:01:48.778Z</time>
</trkpt>
<trkpt lat="49.521071" lon="1.3013542">
<ele>107.0</ele>
<time>2026-09-01T14:01:52.819Z</time>
</trkpt>
<trkpt lat="49.5210232" lon="1.3013106">
<ele>107.0</ele>
<time>2026-09-01T14:01:57.357Z</time>
</trkpt>
<trkpt lat="49.52097" lon="1.3012613">
<ele>106.0</ele>
<time>2026-09-01T14:02:01.964Z</time>
</trkpt>
<trkpt lat="49.5209409" lon="1.301159">
<ele>108.0</ele>
<time>2026-09-01T14:15:03.088Z</time>
</trkpt>
<trkpt lat="49.5209343" lon="1.3011514">
<ele>108.0</ele>
<time>2026-09-01T14:15:07.557Z</time>
</trkpt>
<trkpt lat="49.520881" lon="1.301196">
<ele>108.0</ele>
<time>2026-09-01T14:15:11.678Z</time>
</trkpt>
<trkpt lat="49.5208375" lon="1.3011454">
<ele>108.0</ele>
<time>2026-09-01T14:15:15.699Z</time>
</trkpt>
<trkpt lat="49.5207972" lon="1.3011064">
<ele>108.0</ele>
<time>2026-09-01T14:15:19.999Z</time>
</trkpt>
<trkpt lat="49.5207542" lon="1.3010727">
<ele>108.0</ele>
<time>2026-09-01T14:15:24.040Z</time>
</trkpt>
<trkpt lat="49.5207173" lon="1.3010368">
<ele>108.0</ele>
<time>2026-09-01T14:15:28.093Z</time>
</trkpt>
<trkpt lat="49.5206748" lon="1.3009967">
<ele>105.0</ele>
<time>2026-09-01T14:15:32.182Z</time>
</trkpt>
<trkpt lat="49.5206209" lon="1.3009661">
<ele>106.0</ele>
<time>2026-09-01T14:15:36.263Z</time>
</trkpt>
<trkpt lat="49.5205737" lon="1.3009365">
<ele>106.0</ele>
<time>2026-09-01T14:15:40.344Z</time>
</trkpt>
<trkpt lat="49.5205298" lon="1.3009039">
<ele>106.0</ele>
<time>2026-09-01T14:15:44.375Z</time>
</trkpt>
<trkpt lat="49.5204845" lon="1.3008545">
<ele>106.0</ele>
<time>2026-09-01T14:15:48.982Z</time>
</trkpt>
<trkpt lat="49.5204447" lon="1.3008126">
<ele>106.0</ele>
<time>2026-09-01T14:15:53.540Z</time>
</trkpt>
<trkpt lat="49.5204004" lon="1.3007842">
<ele>104.0</ele>
<time>2026-09-01T14:15:57.561Z</time>
</trkpt>
<trkpt lat="49.5203453" lon="1.3007558">
<ele>104.0</ele>
<time>2026-09-01T14:16:01.602Z</time>
</trkpt>
<trkpt lat="49.5202824" lon="1.3007393">
<ele>104.0</ele>
<time>2026-09-01T14:16:06.085Z</time>
</trkpt>
<trkpt lat="49.5202313" lon="1.3007067">
<ele>104.0</ele>
<time>2026-09-01T14:16:10.221Z</time>
</trkpt>
<trkpt lat="49.5201862" lon="1.300663">
<ele>106.0</ele>
<time>2026-09-01T14:16:14.362Z</time>
</trkpt>
<trkpt lat="49.5201289" lon="1.3006103">
<ele>105.0</ele>
<time>2026-09-01T14:16:18.840Z</time>
</trkpt>
<trkpt lat="49.5200693" lon="1.3005561">
<ele>105.0</ele>
<time>2026-09-01T14:16:23.417Z</time>
</trkpt>
<trkpt lat="49.5200108" lon="1.3005117">
<ele>105.0</ele>
<time>2026-09-01T14:16:28.024Z</time>
</trkpt>
<trkpt lat="49.5199558" lon="1.3004806">
<ele>105.0</ele>
<time>2026-09-01T14:16:32.602Z</time>
</trkpt>
<trkpt lat="49.5199138" lon="1.3004479">
<ele>105.0</ele>
<time>2026-09-01T14:16:36.603Z</time>
</trkpt>
<trkpt lat="49.5198639" lon="1.3004011">
<ele>108.0</ele>
<time>2026-09-01T14:16:41.086Z</time>
</trkpt>
<trkpt lat="49.5198121" lon="1.3003612">
<ele>105.0</ele>
<time>2026-09-01T14:16:45.679Z</time>
</trkpt>
<trkpt lat="49.519758" lon="1.3003373">
<ele>105.0</ele>
<time>2026-09-01T14:16:50.087Z</time>
</trkpt>
<trkpt lat="49.5196978" lon="1.3003139">
<ele>105.0</ele>
<time>2026-09-01T14:16:54.090Z</time>
</trkpt>
<trkpt lat="49.5196411" lon="1.3002865">
<ele>105.0</ele>
<time>2026-09-01T14:16:58.676Z</time>
</trkpt>
<trkpt lat="49.5195887" lon="1.3002516">
<ele>105.0</ele>
<time>2026-09-01T14:17:03.224Z</time>
</trkpt>
<trkpt lat="49.5195354" lon="1.3002091">
<ele>103.0</ele>
<time>2026-09-01T14:17:07.761Z</time>
</trkpt>
<trkpt lat="49.5194814" lon="1.3001768">
<ele>103.0</ele>
<time>2026-09-01T14:17:12.279Z</time>
</trkpt>
<trkpt lat="49.5194219" lon="1.3001539">
<ele>103.0</ele>
<time>2026-09-01T14:17:16.777Z</time>
</trkpt>
<trkpt lat="49.5193615" lon="1.3001271">
<ele>108.0</ele>
<time>2026-09-01T14:17:21.216Z</time>
</trkpt>
<trkpt lat="49.5193015" lon="1.300104">
<ele>107.0</ele>
<time>2026-09-01T14:17:25.704Z</time>
</trkpt>
<trkpt lat="49.5192483" lon="1.3000792">
<ele>107.0</ele>
<time>2026-09-01T14:17:30.096Z</time>
</trkpt>
<trkpt lat="49.5191877" lon="1.3000539">
<ele>107.0</ele>
<time>2026-09-01T14:17:34.700Z</time>
</trkpt>
<trkpt lat="49.5191262" lon="1.3000392">
<ele>107.0</ele>
<time>2026-09-01T14:17:39.089Z</time>
</trkpt>
<trkpt lat="49.5190723" lon="1.3000148">
<ele>107.0</ele>
<time>2026-09-01T14:17:43.160Z</time>
</trkpt>
<trkpt lat="49.5190129" lon="1.2999936">
<ele>105.0</ele>
<time>2026-09-01T14:17:47.717Z</time>
</trkpt>
<trkpt lat="49.5189609" lon="1.2999863">
<ele>105.0</ele>
<time>2026-09-01T14:17:51.798Z</time>
</trkpt>
<trkpt lat="49.5189082" lon="1.2999641">
<ele>105.0</ele>
<time>2026-09-01T14:17:56.435Z</time>
</trkpt>
<trkpt lat="49.5188616" lon="1.2999505">
<ele>105.0</ele>
<time>2026-09-01T14:18:00.476Z</time>
</trkpt>
<trkpt lat="49.5188136" lon="1.2999382">
<ele>105.0</ele>
<time>2026-09-01T14:18:04.597Z</time>
</trkpt>
<trkpt lat="49.5187621" lon="1.2999287">
<ele>105.0</ele>
<time>2026-09-01T14:18:09.084Z</time>
</trkpt>
<trkpt lat="49.5187286" lon="1.2999108">
<ele>107.0</ele>
<time>2026-09-01T14:18:13.136Z</time>
</trkpt>
<trkpt lat="49.5186775" lon="1.2998948">
<ele>107.0</ele>
<time>2026-09-01T14:18:17.744Z</time>
</trkpt>
<trkpt lat="49.5186286" lon="1.2998997">
<ele>107.0</ele>
<time>2026-09-01T14:18:21.825Z</time>
</trkpt>
<trkpt lat="49.518559" lon="1.2998847">
<ele>107.0</ele>
<time>2026-09-01T14:18:26.362Z</time>
</trkpt>
<trkpt lat="49.5184925" lon="1.2998632">
<ele>107.0</ele>
<time>2026-09-01T14:18:30.900Z</time>
</trkpt>
<trkpt lat="49.5184445" lon="1.2998516">
<ele>108.0</ele>
<time>2026-09-01T14:18:35.497Z</time>
</trkpt>
<trkpt lat="49.5183956" lon="1.2998318">
<ele>108.0</ele>
<time>2026-09-01T14:18:40.086Z</time>
</trkpt>
<trkpt lat="49.5183452" lon="1.2997939">
<ele>108.0</ele>
<time>2026-09-01T14:18:44.762Z</time>
</trkpt>
<trkpt lat="49.5182981" lon="1.2997784">
<ele>108.0</ele>
<time>2026-09-01T14:18:48.723Z</time>
</trkpt>
<trkpt lat="49.5182496" lon="1.2997632">
<ele>108.0</ele>
<time>2026-09-01T14:18:52.864Z</time>
</trkpt>
<trkpt lat="49.5181917" lon="1.2997423">
<ele>107.0</ele>
<time>2026-09-01T14:18:57.481Z</time>
</trkpt>
<trkpt lat="49.5181362" lon="1.2997141">
<ele>107.0</ele>
<time>2026-09-01T14:19:02.039Z</time>
</trkpt>
<trkpt lat="49.5180815" lon="1.2996921">
<ele>107.0</ele>
<time>2026-09-01T14:19:06.596Z</time>
</trkpt>
<trkpt lat="49.5180292" lon="1.2996696">
<ele>107.0</ele>
<time>2026-09-01T14:19:11.083Z</time>
</trkpt>
<trkpt lat="49.5179715" lon="1.2996452">
<ele>107.0</ele>
<time>2026-09-01T14:19:15.761Z</time>
</trkpt>
<trkpt lat="49.5179202" lon="1.2996269">
<ele>107.0</ele>
<time>2026-09-01T14:19:20.359Z</time>
</trkpt>
<trkpt lat="49.5178691" lon="1.2996153">
<ele>107.0</ele>
<time>2026-09-01T14:19:25.055Z</time>
</trkpt>
<trkpt lat="49.5178267" lon="1.2995962">
<ele>107.0</ele>
<time>2026-09-01T14:19:29.077Z</time>
</trkpt>
<trkpt lat="49.5177847" lon="1.2995697">
<ele>107.0</ele>
<time>2026-09-01T14:19:33.317Z</time>
</trkpt>
<trkpt lat="49.5177434" lon="1.2995382">
<ele>107.0</ele>
<time>2026-09-01T14:19:37.338Z</time>
</trkpt>
<trkpt lat="49.5177059" lon="1.2994976">
<ele>107.0</ele>
<time>2026-09-01T14:19:41.379Z</time>
</trkpt>
<trkpt lat="49.5176633" lon="1.2994768">
<ele>107.0</ele>
<time>2026-09-01T14:19:45.381Z</time>
</trkpt>
<trkpt lat="49.5176078" lon="1.2994495">
<ele>107.0</ele>
<time>2026-09-01T14:19:49.541Z</time>
</trkpt>
<trkpt lat="49.5175625" lon="1.299413">
<ele>107.0</ele>
<time>2026-09-01T14:19:53.523Z</time>
</trkpt>
<trkpt lat="49.5175156" lon="1.2993871">
<ele>107.0</ele>
<time>2026-09-01T14:19:57.684Z</time>
</trkpt>
<trkpt lat="49.5174625" lon="1.2993583">
<ele>107.0</ele>
<time>2026-09-01T14:20:02.340Z</time>
</trkpt>
<trkpt lat="49.5174193" lon="1.299327">
<ele>107.0</ele>
<time>2026-09-01T14:20:06.402Z</time>
</trkpt>
<trkpt lat="49.517375" lon="1.2993006">
<ele>108.0</ele>
<time>2026-09-01T14:20:10.542Z</time>
</trkpt>
<trkpt lat="49.5173267" lon="1.2992569">
<ele>108.0</ele>
<time>2026-09-01T14:20:14.603Z</time>
</trkpt>
<trkpt lat="49.5172835" lon="1.2992171">
<ele>108.0</ele>
<time>2026-09-01T14:20:18.744Z</time>
</trkpt>
<trkpt lat="49.5172381" lon="1.2991966">
<ele>108.0</ele>
<time>2026-09-01T14:20:22.775Z</time>
</trkpt>
<trkpt lat="49.5171902" lon="1.2991856">
<ele>108.0</ele>
<time>2026-09-01T14:20:26.936Z</time>
</trkpt>
<trkpt lat="49.5171416" lon="1.2991811">
<ele>108.0</ele>
<time>2026-09-01T14:20:30.937Z</time>
</trkpt>
<trkpt lat="49.5170958" lon="1.2991755">
<ele>108.0</ele>
<time>2026-09-01T14:20:35.083Z</time>
</trkpt>
<trkpt lat="49.5170459" lon="1.2991505">
<ele>108.0</ele>
<time>2026-09-01T14:20:39.278Z</time>
</trkpt>
<trkpt lat="49.516998" lon="1.2991235">
<ele>108.0</ele>
<time>2026-09-01T14:20:43.419Z</time>
</trkpt>
<trkpt lat="49.5169507" lon="1.2991033">
<ele>108.0</ele>
<time>2026-09-01T14:20:47.420Z</time>
</trkpt>
<trkpt lat="49.5168988" lon="1.2990883">
<ele>108.0</ele>
<time>2026-09-01T14:20:51.581Z</time>
</trkpt>
<trkpt lat="49.5168481" lon="1.2990791">
<ele>108.0</ele>
<time>2026-09-01T14:20:55.602Z</time>
</trkpt>
<trkpt lat="49.5168029" lon="1.2990656">
<ele>106.0</ele>
<time>2026-09-01T14:20:59.743Z</time>
</trkpt>
<trkpt lat="49.5167592" lon="1.2990429">
<ele>106.0</ele>
<time>2026-09-01T14:21:03.764Z</time>
</trkpt>
<trkpt lat="49.5167154" lon="1.2990165">
<ele>107.0</ele>
<time>2026-09-01T14:21:07.855Z</time>
</trkpt>
<trkpt lat="49.5166758" lon="1.2990127">
<ele>107.0</ele>
<time>2026-09-01T14:21:11.896Z</time>
</trkpt>
<trkpt lat="49.5166337" lon="1.2989609">
<ele>107.0</ele>
<time>2026-09-01T14:21:15.997Z</time>
</trkpt>
<trkpt lat="49.5166054" lon="1.2989134">
<ele>107.0</ele>
<time>2026-09-01T14:21:20.086Z</time>
</trkpt>
<trkpt lat="49.5165884" lon="1.2989162">
<ele>107.0</ele>
<time>2026-09-01T14:21:24.675Z</time>
</trkpt>
<trkpt lat="49.5165481" lon="1.2989126">
<ele>107.0</ele>
<time>2026-09-01T14:21:28.876Z</time>
</trkpt>
<trkpt lat="49.5165112" lon="1.2989151">
<ele>105.0</ele>
<time>2026-09-01T14:21:32.897Z</time>
</trkpt>
<trkpt lat="49.516466" lon="1.2988913">
<ele>105.0</ele>
<time>2026-09-01T14:21:37.038Z</time>
</trkpt>
<trkpt lat="49.5164297" lon="1.2988588">
<ele>105.0</ele>
<time>2026-09-01T14:21:41.078Z</time>
</trkpt>
<trkpt lat="49.5163903" lon="1.2988019">
<ele>105.0</ele>
<time>2026-09-01T14:21:45.279Z</time>
</trkpt>
<trkpt lat="49.5163568" lon="1.2987343">
<ele>107.0</ele>
<time>2026-09-01T14:21:49.400Z</time>
</trkpt>
<trkpt lat="49.5163202" lon="1.2986537">
<ele>107.0</ele>
<time>2026-09-01T14:21:54.037Z</time>
</trkpt>
<trkpt lat="49.5162927" lon="1.2985867">
<ele>107.0</ele>
<time>2026-09-01T14:21:58.078Z</time>
</trkpt>
<trkpt lat="49.5162562" lon="1.2985284">
<ele>107.0</ele>
<time>2026-09-01T14:22:02.083Z</time>
</trkpt>
<trkpt lat="49.5162267" lon="1.2984652">
<ele>107.0</ele>
<time>2026-09-01T14:22:06.141Z</time>
</trkpt>
<trkpt lat="49.5161967" lon="1.2983984">
<ele>107.0</ele>
<time>2026-09-01T14:22:10.381Z</time>
</trkpt>
<trkpt lat="49.5161694" lon="1.2983537">
<ele>107.0</ele>
<time>2026-09-01T14:22:14.382Z</time>
</trkpt>
<trkpt lat="49.516145" lon="1.298304">
<ele>107.0</ele>
<time>2026-09-01T14:22:18.444Z</time>
</trkpt>
<trkpt lat="49.5161114" lon="1.2982494">
<ele>107.0</ele>
<time>2026-09-01T14:22:23.041Z</time>
</trkpt>
<trkpt lat="49.5160882" lon="1.2981819">
<ele>108.0</ele>
<time>2026-09-01T14:22:27.658Z</time>
</trkpt>
<trkpt lat="49.5160619" lon="1.298117">
<ele>108.0</ele>
<time>2026-09-01T14:22:32.315Z</time>
</trkpt>
<trkpt lat="49.5160566" lon="1.2980485">
<ele>108.0</ele>
<time>2026-09-01T14:22:37.002Z</time>
</trkpt>
<trkpt lat="49.5160481" lon="1.2979649">
<ele>108.0</ele>
<time>2026-09-01T14:22:41.579Z</time>
</trkpt>
<trkpt lat="49.5160854" lon="1.2978813">
<ele>108.0</ele>
<time>2026-09-01T14:22:46.083Z</time>
</trkpt>
<trkpt lat="49.5160967" lon="1.2977891">
<ele>108.0</ele>
<time>2026-09-01T14:22:50.724Z</time>
</trkpt>
<trkpt lat="49.516061" lon="1.2977059">
<ele>108.0</ele>
<time>2026-09-01T14:22:55.361Z</time>
</trkpt>
<trkpt lat="49.5160254" lon="1.2976315">
<ele>109.0</ele>
<time>2026-09-01T14:22:59.998Z</time>
</trkpt>
<trkpt lat="49.5159783" lon="1.2975758">
<ele>109.0</ele>
<time>2026-09-01T14:23:04.040Z</time>
</trkpt>
<trkpt lat="49.5159462" lon="1.297517">
<ele>107.0</ele>
<time>2026-09-01T14:23:08.084Z</time>
</trkpt>
<trkpt lat="49.5159243" lon="1.2974359">
<ele>107.0</ele>
<time>2026-09-01T14:23:12.698Z</time>
</trkpt>
<trkpt lat="49.5159019" lon="1.2973532">
<ele>108.0</ele>
<time>2026-09-01T14:23:16.759Z</time>
</trkpt>
<trkpt lat="49.5158765" lon="1.2972851">
<ele>108.0</ele>
<time>2026-09-01T14:23:20.781Z</time>
</trkpt>
<trkpt lat="49.5158408" lon="1.2972164">
<ele>108.0</ele>
<time>2026-09-01T14:23:25.338Z</time>
</trkpt>
<trkpt lat="49.5158085" lon="1.2971553">
<ele>108.0</ele>
<time>2026-09-01T14:23:29.439Z</time>
</trkpt>
<trkpt lat="49.5157818" lon="1.2971172">
<ele>108.0</ele>
<time>2026-09-01T14:23:33.560Z</time>
</trkpt>
<trkpt lat="49.5157558" lon="1.2970497">
<ele>108.0</ele>
<time>2026-09-01T14:23:38.058Z</time>
</trkpt>
<trkpt lat="49.5157363" lon="1.2969887">
<ele>108.0</ele>
<time>2026-09-01T14:23:42.088Z</time>
</trkpt>
<trkpt lat="49.5157064" lon="1.2969391">
<ele>108.0</ele>
<time>2026-09-01T14:23:46.319Z</time>
</trkpt>
<trkpt lat="49.5156754" lon="1.2968827">
<ele>105.0</ele>
<time>2026-09-01T14:23:50.341Z</time>
</trkpt>
<trkpt lat="49.5156395" lon="1.2968039">
<ele>106.0</ele>
<time>2026-09-01T14:23:54.422Z</time>
</trkpt>
<trkpt lat="49.5156153" lon="1.296721">
<ele>106.0</ele>
<time>2026-09-01T14:23:58.443Z</time>
</trkpt>
<trkpt lat="49.5155867" lon="1.2966446">
<ele>106.0</ele>
<time>2026-09-01T14:24:02.465Z</time>
</trkpt>
<trkpt lat="49.5155544" lon="1.2965586">
<ele>106.0</ele>
<time>2026-09-01T14:24:07.042Z</time>
</trkpt>
<trkpt lat="49.5155275" lon="1.2964976">
<ele>106.0</ele>
<time>2026-09-01T14:24:11.640Z</time>
</trkpt>
<trkpt lat="49.5154998" lon="1.2964434">
<ele>106.0</ele>
<time>2026-09-01T14:24:16.077Z</time>
</trkpt>
<trkpt lat="49.5154729" lon="1.2963733">
<ele>106.0</ele>
<time>2026-09-01T14:24:20.179Z</time>
</trkpt>
<trkpt lat="49.5154461" lon="1.2962968">
<ele>106.0</ele>
<time>2026-09-01T14:24:24.816Z</time>
</trkpt>
<trkpt lat="49.5154216" lon="1.296242">
<ele>107.0</ele>
<time>2026-09-01T14:24:29.304Z</time>
</trkpt>
<trkpt lat="49.515407" lon="1.2961649">
<ele>105.0</ele>
<time>2026-09-01T14:24:33.316Z</time>
</trkpt>
<trkpt lat="49.5154099" lon="1.296099">
<ele>105.0</ele>
<time>2026-09-01T14:24:37.943Z</time>
</trkpt>
<trkpt lat="49.5153766" lon="1.2960299">
<ele>105.0</ele>
<time>2026-09-01T14:24:42.421Z</time>
</trkpt>
<trkpt lat="49.5153488" lon="1.2959682">
<ele>106.0</ele>
<time>2026-09-01T14:24:46.522Z</time>
</trkpt>
<trkpt lat="49.5153304" lon="1.2958862">
<ele>106.0</ele>
<time>2026-09-01T14:24:50.662Z</time>
</trkpt>
<trkpt lat="49.5153098" lon="1.2958135">
<ele>106.0</ele>
<time>2026-09-01T14:24:54.783Z</time>
</trkpt>
<trkpt lat="49.5152993" lon="1.295739">
<ele>106.0</ele>
<time>2026-09-01T14:24:58.864Z</time>
</trkpt>
<trkpt lat="49.515294" lon="1.2956685">
<ele>107.0</ele>
<time>2026-09-01T14:25:02.955Z</time>
</trkpt>
<trkpt lat="49.5152829" lon="1.2955906">
<ele>107.0</ele>
<time>2026-09-01T14:25:07.424Z</time>
</trkpt>
<trkpt lat="49.5152638" lon="1.2955188">
<ele>107.0</ele>
<time>2026-09-01T14:25:11.505Z</time>
</trkpt>
<trkpt lat="49.5152307" lon="1.2954532">
<ele>107.0</ele>
<time>2026-09-01T14:25:15.943Z</time>
</trkpt>
<trkpt lat="49.5152184" lon="1.2953807">
<ele>107.0</ele>
<time>2026-09-01T14:25:20.441Z</time>
</trkpt>
<trkpt lat="49.5152033" lon="1.2953088">
<ele>107.0</ele>
<time>2026-09-01T14:25:24.622Z</time>
</trkpt>
<trkpt lat="49.5151787" lon="1.2952428">
<ele>107.0</ele>
<time>2026-09-01T14:25:28.862Z</time>
</trkpt>
<trkpt lat="49.5151609" lon="1.2951848">
<ele>107.0</ele>
<time>2026-09-01T14:25:33.083Z</time>
</trkpt>
<trkpt lat="49.5151421" lon="1.2951189">
<ele>108.0</ele>
<time>2026-09-01T14:25:37.362Z</time>
</trkpt>
<trkpt lat="49.5151287" lon="1.2950458">
<ele>105.0</ele>
<time>2026-09-01T14:25:41.760Z</time>
</trkpt>
<trkpt lat="49.5151122" lon="1.2949745">
<ele>105.0</ele>
<time>2026-09-01T14:25:46.077Z</time>
</trkpt>
<trkpt lat="49.515089" lon="1.2949107">
<ele>105.0</ele>
<time>2026-09-01T14:25:50.518Z</time>
</trkpt>
<trkpt lat="49.5150827" lon="1.2948614">
<ele>105.0</ele>
<time>2026-09-01T14:25:54.738Z</time>
</trkpt>
<trkpt lat="49.5150635" lon="1.2948708">
<ele>105.0</ele>
<time>2026-09-01T14:26:04.084Z</time>
</trkpt>
<trkpt lat="49.5150589" lon="1.2948671">
<ele>105.0</ele>
<time>2026-09-01T14:26:08.580Z</time>
</trkpt>
<trkpt lat="49.5150358" lon="1.2948334">
<ele>106.0</ele>
<time>2026-09-01T14:26:13.085Z</time>
</trkpt>
<trkpt lat="49.5149984" lon="1.294775">
<ele>106.0</ele>
<time>2026-09-01T14:26:17.984Z</time>
</trkpt>
<trkpt lat="49.5149746" lon="1.2947289">
<ele>106.0</ele>
<time>2026-09-01T14:26:22.084Z</time>
</trkpt>
<trkpt lat="49.5149597" lon="1.2946654">
<ele>106.0</ele>
<time>2026-09-01T14:26:51.675Z</time>
</trkpt>
<trkpt lat="49.5149363" lon="1.2946471">
<ele>106.0</ele>
<time>2026-09-01T14:26:56.640Z</time>
</trkpt>
<trkpt lat="49.5149376" lon="1.2946286">
<ele>106.0</ele>
<time>2026-09-01T14:27:01.019Z</time>
</trkpt>
<trkpt lat="49.5149298" lon="1.2945182">
<ele>107.0</ele>
<time>2026-09-01T14:27:05.339Z</time>
</trkpt>
<trkpt lat="49.5148872" lon="1.2944438">
<ele>107.0</ele>
<time>2026-09-01T14:27:09.758Z</time>
</trkpt>
<trkpt lat="49.5148516" lon="1.2943756">
<ele>104.0</ele>
<time>2026-09-01T14:27:14.484Z</time>
</trkpt>
<trkpt lat="49.5148076" lon="1.2943542">
<ele>104.0</ele>
<time>2026-09-01T14:27:19.079Z</time>
</trkpt>
<trkpt lat="49.5147871" lon="1.2942816">
<ele>103.0</ele>
<time>2026-09-01T14:27:23.087Z</time>
</trkpt>
<trkpt lat="49.5147774" lon="1.2942103">
<ele>103.0</ele>
<time>2026-09-01T14:27:27.080Z</time>
</trkpt>
<trkpt lat="49.514776" lon="1.2941237">
<ele>103.0</ele>
<time>2026-09-01T14:27:31.295Z</time>
</trkpt>
<trkpt lat="49.5147669" lon="1.2940501">
<ele>103.0</ele>
<time>2026-09-01T14:27:35.357Z</time>
</trkpt>
<trkpt lat="49.5147542" lon="1.2939652">
<ele>104.0</ele>
<time>2026-09-01T14:27:39.944Z</time>
</trkpt>
<trkpt lat="49.5147473" lon="1.2938843">
<ele>104.0</ele>
<time>2026-09-01T14:27:44.502Z</time>
</trkpt>
<trkpt lat="49.5147254" lon="1.2938092">
<ele>104.0</ele>
<time>2026-09-01T14:27:49.096Z</time>
</trkpt>
<trkpt lat="49.5147056" lon="1.29373">
<ele>104.0</ele>
<time>2026-09-01T14:27:53.717Z</time>
</trkpt>
<trkpt lat="49.5146838" lon="1.2936562">
<ele>104.0</ele>
<time>2026-09-01T14:27:58.245Z</time>
</trkpt>
<trkpt lat="49.514667" lon="1.2935717">
<ele>104.0</ele>
<time>2026-09-01T14:28:02.802Z</time>
</trkpt>
<trkpt lat="49.5146521" lon="1.2935077">
<ele>104.0</ele>
<time>2026-09-01T14:28:07.440Z</time>
</trkpt>
<trkpt lat="49.5146426" lon="1.2934435">
<ele>104.0</ele>
<time>2026-09-01T14:28:11.461Z</time>
</trkpt>
<trkpt lat="49.5146312" lon="1.293371">
<ele>104.0</ele>
<time>2026-09-01T14:28:15.761Z</time>
</trkpt>
<trkpt lat="49.5146149" lon="1.2933124">
<ele>104.0</ele>
<time>2026-09-01T14:28:20.060Z</time>
</trkpt>
<trkpt lat="49.5146058" lon="1.2932457">
<ele>104.0</ele>
<time>2026-09-01T14:28:24.062Z</time>
</trkpt>
<trkpt lat="49.5145902" lon="1.2931542">
<ele>103.0</ele>
<time>2026-09-01T14:28:28.699Z</time>
</trkpt>
<trkpt lat="49.5145746" lon="1.2930883">
<ele>102.0</ele>
<time>2026-09-01T14:28:32.780Z</time>
</trkpt>
<trkpt lat="49.5145501" lon="1.2930012">
<ele>102.0</ele>
<time>2026-09-01T14:28:37.238Z</time>
</trkpt>
<trkpt lat="49.5145274" lon="1.2929213">
<ele>102.0</ele>
<time>2026-09-01T14:28:41.339Z</time>
</trkpt>
<trkpt lat="49.5145107" lon="1.2928457">
<ele>102.0</ele>
<time>2026-09-01T14:28:45.361Z</time>
</trkpt>
<trkpt lat="49.5144886" lon="1.2927642">
<ele>102.0</ele>
<time>2026-09-01T14:28:49.879Z</time>
</trkpt>
<trkpt lat="49.5144654" lon="1.292681">
<ele>102.0</ele>
<time>2026-09-01T14:28:54Z</time>
</trkpt>
<trkpt lat="49.5144489" lon="1.2925932">
<ele>103.0</ele>
<time>2026-09-01T14:28:57.982Z</time>
</trkpt>
<trkpt lat="49.5144267" lon="1.2925139">
<ele>103.0</ele>
<time>2026-09-01T14:29:02.083Z</time>
</trkpt>
<trkpt lat="49.5144096" lon="1.2924678">
<ele>103.0</ele>
<time>2026-09-01T14:29:06.620Z</time>
</trkpt>
<trkpt lat="49.5143958" lon="1.2924035">
<ele>103.0</ele>
<time>2026-09-01T14:29:10.662Z</time>
</trkpt>
<trkpt lat="49.5143812" lon="1.2923191">
<ele>103.0</ele>
<time>2026-09-01T14:29:14.683Z</time>
</trkpt>
<trkpt lat="49.5143628" lon="1.2922434">
<ele>103.0</ele>
<time>2026-09-01T14:29:19.080Z</time>
</trkpt>
<trkpt lat="49.5143424" lon="1.2921714">
<ele>103.0</ele>
<time>2026-09-01T14:29:23.382Z</time>
</trkpt>
<trkpt lat="49.514325" lon="1.2921028">
<ele>103.0</ele>
<time>2026-09-01T14:29:27.562Z</time>
</trkpt>
<trkpt lat="49.5143084" lon="1.2920251">
<ele>103.0</ele>
<time>2026-09-01T14:29:31.583Z</time>
</trkpt>
<trkpt lat="49.514286" lon="1.2919617">
<ele>106.0</ele>
<time>2026-09-01T14:29:35.645Z</time>
</trkpt>
<trkpt lat="49.5142604" lon="1.2919069">
<ele>106.0</ele>
<time>2026-09-01T14:29:40.085Z</time>
</trkpt>
<trkpt lat="49.5142278" lon="1.2918592">
<ele>106.0</ele>
<time>2026-09-01T14:29:44.164Z</time>
</trkpt>
<trkpt lat="49.5141941" lon="1.2917857">
<ele>105.0</ele>
<time>2026-09-01T14:29:48.275Z</time>
</trkpt>
<trkpt lat="49.5141585" lon="1.2917091">
<ele>105.0</ele>
<time>2026-09-01T14:29:52.942Z</time>
</trkpt>
<trkpt lat="49.5141206" lon="1.2916143">
<ele>105.0</ele>
<time>2026-09-01T14:29:57.480Z</time>
</trkpt>
<trkpt lat="49.5140805" lon="1.2915539">
<ele>105.0</ele>
<time>2026-09-01T14:30:02.077Z</time>
</trkpt>
<trkpt lat="49.5140351" lon="1.2914855">
<ele>105.0</ele>
<time>2026-09-01T14:30:06.744Z</time>
</trkpt>
<trkpt lat="49.513995" lon="1.2914205">
<ele>109.0</ele>
<time>2026-09-01T14:30:11.076Z</time>
</trkpt>
<trkpt lat="49.513958" lon="1.2913726">
<ele>109.0</ele>
<time>2026-09-01T14:30:15.264Z</time>
</trkpt>
<trkpt lat="49.5139209" lon="1.2913314">
<ele>109.0</ele>
<time>2026-09-01T14:30:19.295Z</time>
</trkpt>
<trkpt lat="49.5138753" lon="1.2912939">
<ele>109.0</ele>
<time>2026-09-01T14:30:23.923Z</time>
</trkpt>
<trkpt lat="49.5138392" lon="1.2912639">
<ele>109.0</ele>
<time>2026-09-01T14:30:27.964Z</time>
</trkpt>
<trkpt lat="49.5138054" lon="1.2912267">
<ele>109.0</ele>
<time>2026-09-01T14:30:32.055Z</time>
</trkpt>
<trkpt lat="49.513773" lon="1.291174">
<ele>109.0</ele>
<time>2026-09-01T14:30:36.235Z</time>
</trkpt>
<trkpt lat="49.513743" lon="1.2911086">
<ele>115.0</ele>
<time>2026-09-01T14:30:40.436Z</time>
</trkpt>
<trkpt lat="49.5137065" lon="1.2910442">
<ele>115.0</ele>
<time>2026-09-01T14:30:45.043Z</time>
</trkpt>
<trkpt lat="49.5136684" lon="1.2910054">
<ele>115.0</ele>
<time>2026-09-01T14:30:49.092Z</time>
</trkpt>
<trkpt lat="49.5136267" lon="1.290945">
<ele>112.0</ele>
<time>2026-09-01T14:30:53.682Z</time>
</trkpt>
<trkpt lat="49.5135946" lon="1.2908786">
<ele>112.0</ele>
<time>2026-09-01T14:30:57.962Z</time>
</trkpt>
<trkpt lat="49.5135679" lon="1.2908253">
<ele>112.0</ele>
<time>2026-09-01T14:31:01.983Z</time>
</trkpt>
<trkpt lat="49.5135462" lon="1.2907674">
<ele>112.0</ele>
<time>2026-09-01T14:31:06.077Z</time>
</trkpt>
<trkpt lat="49.5135228" lon="1.2907133">
<ele>112.0</ele>
<time>2026-09-01T14:31:10.304Z</time>
</trkpt>
<trkpt lat="49.5134988" lon="1.2906522">
<ele>109.0</ele>
<time>2026-09-01T14:31:14.504Z</time>
</trkpt>
<trkpt lat="49.5134723" lon="1.2905851">
<ele>109.0</ele>
<time>2026-09-01T14:31:18.724Z</time>
</trkpt>
<trkpt lat="49.5134297" lon="1.2905596">
<ele>112.0</ele>
<time>2026-09-01T14:31:22.895Z</time>
</trkpt>
<trkpt lat="49.5133852" lon="1.2905308">
<ele>112.0</ele>
<time>2026-09-01T14:31:27.056Z</time>
</trkpt>
<trkpt lat="49.5133415" lon="1.2904774">
<ele>112.0</ele>
<time>2026-09-01T14:31:31.802Z</time>
</trkpt>
<trkpt lat="49.5133161" lon="1.2904072">
<ele>109.0</ele>
<time>2026-09-01T14:31:36.022Z</time>
</trkpt>
<trkpt lat="49.5132957" lon="1.2903341">
<ele>109.0</ele>
<time>2026-09-01T14:31:40.063Z</time>
</trkpt>
<trkpt lat="49.5132705" lon="1.290264">
<ele>109.0</ele>
<time>2026-09-01T14:31:44.284Z</time>
</trkpt>
<trkpt lat="49.5132359" lon="1.2901812">
<ele>109.0</ele>
<time>2026-09-01T14:31:48.315Z</time>
</trkpt>
<trkpt lat="49.5131882" lon="1.2901122">
<ele>109.0</ele>
<time>2026-09-01T14:31:52.476Z</time>
</trkpt>
<trkpt lat="49.5131499" lon="1.2900581">
<ele>109.0</ele>
<time>2026-09-01T14:31:56.577Z</time>
</trkpt>
<trkpt lat="49.5131142" lon="1.2899603">
<ele>109.0</ele>
<time>2026-09-01T14:32:00.757Z</time>
</trkpt>
<trkpt lat="49.5130928" lon="1.2898631">
<ele>109.0</ele>
<time>2026-09-01T14:32:05.078Z</time>
</trkpt>
<trkpt lat="49.5130645" lon="1.289792">
<ele>108.0</ele>
<time>2026-09-01T14:32:09.376Z</time>
</trkpt>
<trkpt lat="49.5130412" lon="1.289742">
<ele>108.0</ele>
<time>2026-09-01T14:32:13.715Z</time>
</trkpt>
<trkpt lat="49.5130088" lon="1.289709">
<ele>108.0</ele>
<time>2026-09-01T14:32:17.955Z</time>
</trkpt>
<trkpt lat="49.5129742" lon="1.2896753">
<ele>108.0</ele>
<time>2026-09-01T14:32:22.324Z</time>
</trkpt>
<trkpt lat="49.5129448" lon="1.2896451">
<ele>108.0</ele>
<time>2026-09-01T14:32:26.624Z</time>
</trkpt>
<trkpt lat="49.5129236" lon="1.2896016">
<ele>108.0</ele>
<time>2026-09-01T14:32:30.784Z</time>
</trkpt>
<trkpt lat="49.5128999" lon="1.2895593">
<ele>108.0</ele>
<time>2026-09-01T14:32:35.083Z</time>
</trkpt>
<trkpt lat="49.5128739" lon="1.2895">
<ele>108.0</ele>
<time>2026-09-01T14:32:39.582Z</time>
</trkpt>
<trkpt lat="49.5128437" lon="1.2894313">
<ele>108.0</ele>
<time>2026-09-01T14:32:43.882Z</time>
</trkpt>
<trkpt lat="49.5128146" lon="1.2893741">
<ele>108.0</ele>
<time>2026-09-01T14:32:48.062Z</time>
</trkpt>
<trkpt lat="49.5127859" lon="1.2893096">
<ele>108.0</ele>
<time>2026-09-01T14:32:52.441Z</time>
</trkpt>
<trkpt lat="49.5127592" lon="1.2892444">
<ele>107.0</ele>
<time>2026-09-01T14:32:56.840Z</time>
</trkpt>
<trkpt lat="49.5127329" lon="1.2892044">
<ele>107.0</ele>
<time>2026-09-01T14:33:01.088Z</time>
</trkpt>
<trkpt lat="49.5127024" lon="1.2891588">
<ele>107.0</ele>
<time>2026-09-01T14:33:05.459Z</time>
</trkpt>
<trkpt lat="49.5126707" lon="1.2891057">
<ele>107.0</ele>
<time>2026-09-01T14:33:09.759Z</time>
</trkpt>
<trkpt lat="49.5126361" lon="1.2890273">
<ele>107.0</ele>
<time>2026-09-01T14:33:13.999Z</time>
</trkpt>
<trkpt lat="49.5126094" lon="1.288936">
<ele>107.0</ele>
<time>2026-09-01T14:33:18.278Z</time>
</trkpt>
<trkpt lat="49.5125859" lon="1.288863">
<ele>107.0</ele>
<time>2026-09-01T14:33:22.478Z</time>
</trkpt>
<trkpt lat="49.5125642" lon="1.2887911">
<ele>107.0</ele>
<time>2026-09-01T14:33:26.877Z</time>
</trkpt>
<trkpt lat="49.5125347" lon="1.2887336">
<ele>107.0</ele>
<time>2026-09-01T14:33:30.958Z</time>
</trkpt>
<trkpt lat="49.5124968" lon="1.2886866">
<ele>107.0</ele>
<time>2026-09-01T14:33:35.078Z</time>
</trkpt>
<trkpt lat="49.5124634" lon="1.288638">
<ele>107.0</ele>
<time>2026-09-01T14:33:39.379Z</time>
</trkpt>
<trkpt lat="49.5124308" lon="1.288575">
<ele>107.0</ele>
<time>2026-09-01T14:33:43.639Z</time>
</trkpt>
<trkpt lat="49.5123967" lon="1.2884934">
<ele>107.0</ele>
<time>2026-09-01T14:33:47.819Z</time>
</trkpt>
<trkpt lat="49.5123714" lon="1.2884279">
<ele>109.0</ele>
<time>2026-09-01T14:33:52.084Z</time>
</trkpt>
<trkpt lat="49.5123599" lon="1.2883491">
<ele>109.0</ele>
<time>2026-09-01T14:33:56.319Z</time>
</trkpt>
<trkpt lat="49.512345" lon="1.2882688">
<ele>109.0</ele>
<time>2026-09-01T14:34:00.658Z</time>
</trkpt>
<trkpt lat="49.5123285" lon="1.2882094">
<ele>109.0</ele>
<time>2026-09-01T14:34:04.799Z</time>
</trkpt>
<trkpt lat="49.5123096" lon="1.2881585">
<ele>110.0</ele>
<time>2026-09-01T14:34:08.979Z</time>
</trkpt>
<trkpt lat="49.5122856" lon="1.2880983">
<ele>110.0</ele>
<time>2026-09-01T14:34:13.082Z</time>
</trkpt>
<trkpt lat="49.5122564" lon="1.2880308">
<ele>110.0</ele>
<time>2026-09-01T14:34:17.519Z</time>
</trkpt>
<trkpt lat="49.512233" lon="1.287971">
<ele>110.0</ele>
<time>2026-09-01T14:34:21.640Z</time>
</trkpt>
<trkpt lat="49.5122051" lon="1.2879151">
<ele>109.0</ele>
<time>2026-09-01T14:34:25.860Z</time>
</trkpt>
<trkpt lat="49.5121677" lon="1.2878602">
<ele>109.0</ele>
<time>2026-09-01T14:34:30.040Z</time>
</trkpt>
<trkpt lat="49.5121259" lon="1.2878133">
<ele>109.0</ele>
<time>2026-09-01T14:34:34.300Z</time>
</trkpt>
<trkpt lat="49.5120946" lon="1.2877611">
<ele>109.0</ele>
<time>2026-09-01T14:34:38.600Z</time>
</trkpt>
<trkpt lat="49.512066" lon="1.2876888">
<ele>112.0</ele>
<time>2026-09-01T14:34:42.919Z</time>
</trkpt>
<trkpt lat="49.5120389" lon="1.2876245">
<ele>111.0</ele>
<time>2026-09-01T14:34:47.075Z</time>
</trkpt>
<trkpt lat="49.5120044" lon="1.2875506">
<ele>111.0</ele>
<time>2026-09-01T14:34:51.439Z</time>
</trkpt>
<trkpt lat="49.511973" lon="1.2874759">
<ele>111.0</ele>
<time>2026-09-01T14:34:55.739Z</time>
</trkpt>
<trkpt lat="49.5119459" lon="1.2874074">
<ele>111.0</ele>
<time>2026-09-01T14:34:59.998Z</time>
</trkpt>
<trkpt lat="49.5119106" lon="1.2873495">
<ele>111.0</ele>
<time>2026-09-01T14:35:04.081Z</time>
</trkpt>
<trkpt lat="49.5118766" lon="1.2873086">
<ele>111.0</ele>
<time>2026-09-01T14:35:08.359Z</time>
</trkpt>
<trkpt lat="49.511838" lon="1.2872695">
<ele>111.0</ele>
<time>2026-09-01T14:35:12.758Z</time>
</trkpt>
<trkpt lat="49.5118091" lon="1.2872323">
<ele>111.0</ele>
<time>2026-09-01T14:35:16.978Z</time>
</trkpt>
<trkpt lat="49.5117678" lon="1.2871888">
<ele>112.0</ele>
<time>2026-09-01T14:35:21.078Z</time>
</trkpt>
<trkpt lat="49.5117334" lon="1.2871227">
<ele>112.0</ele>
<time>2026-09-01T14:35:25.339Z</time>
</trkpt>
<trkpt lat="49.5116939" lon="1.2870678">
<ele>112.0</ele>
<time>2026-09-01T14:35:29.579Z</time>
</trkpt>
<trkpt lat="49.5116595" lon="1.2870218">
<ele>112.0</ele>
<time>2026-09-01T14:35:33.839Z</time>
</trkpt>
<trkpt lat="49.5116251" lon="1.2869727">
<ele>112.0</ele>
<time>2026-09-01T14:35:38.079Z</time>
</trkpt>
<trkpt lat="49.5115882" lon="1.2869197">
<ele>112.0</ele>
<time>2026-09-01T14:35:42.438Z</time>
</trkpt>
<trkpt lat="49.5115544" lon="1.2868629">
<ele>112.0</ele>
<time>2026-09-01T14:35:46.817Z</time>
</trkpt>
<trkpt lat="49.5115277" lon="1.2868009">
<ele>115.0</ele>
<time>2026-09-01T14:35:51.078Z</time>
</trkpt>
<trkpt lat="49.5114915" lon="1.28676">
<ele>115.0</ele>
<time>2026-09-01T14:35:55.397Z</time>
</trkpt>
<trkpt lat="49.5114582" lon="1.2867253">
<ele>115.0</ele>
<time>2026-09-01T14:35:59.815Z</time>
</trkpt>
<trkpt lat="49.5114303" lon="1.2866534">
<ele>115.0</ele>
<time>2026-09-01T14:36:03.877Z</time>
</trkpt>
<trkpt lat="49.5114023" lon="1.2865546">
<ele>115.0</ele>
<time>2026-09-01T14:36:08.077Z</time>
</trkpt>
<trkpt lat="49.5113765" lon="1.2864575">
<ele>114.0</ele>
<time>2026-09-01T14:36:12.317Z</time>
</trkpt>
<trkpt lat="49.5113567" lon="1.2863875">
<ele>114.0</ele>
<time>2026-09-01T14:36:16.537Z</time>
</trkpt>
<trkpt lat="49.5113426" lon="1.2863179">
<ele>114.0</ele>
<time>2026-09-01T14:36:20.678Z</time>
</trkpt>
<trkpt lat="49.5113363" lon="1.2862509">
<ele>114.0</ele>
<time>2026-09-01T14:36:24.957Z</time>
</trkpt>
<trkpt lat="49.5113351" lon="1.2862035">
<ele>114.0</ele>
<time>2026-09-01T14:36:29.080Z</time>
</trkpt>
<trkpt lat="49.5113269" lon="1.2861416">
<ele>114.0</ele>
<time>2026-09-01T14:36:33.378Z</time>
</trkpt>
<trkpt lat="49.5113271" lon="1.2860706">
<ele>114.0</ele>
<time>2026-09-01T14:36:37.638Z</time>
</trkpt>
<trkpt lat="49.5113377" lon="1.2860118">
<ele>114.0</ele>
<time>2026-09-01T14:36:42.017Z</time>
</trkpt>
<trkpt lat="49.5113366" lon="1.2859512">
<ele>113.0</ele>
<time>2026-09-01T14:36:46.257Z</time>
</trkpt>
<trkpt lat="49.5113244" lon="1.2858799">
<ele>113.0</ele>
<time>2026-09-01T14:36:50.616Z</time>
</trkpt>
<trkpt lat="49.5113114" lon="1.2858056">
<ele>113.0</ele>
<time>2026-09-01T14:36:54.896Z</time>
</trkpt>
<trkpt lat="49.5113055" lon="1.2857265">
<ele>113.0</ele>
<time>2026-09-01T14:36:59.084Z</time>
</trkpt>
<trkpt lat="49.5112953" lon="1.285655">
<ele>113.0</ele>
<time>2026-09-01T14:37:03.038Z</time>
</trkpt>
<trkpt lat="49.5112694" lon="1.2855924">
<ele>113.0</ele>
<time>2026-09-01T14:37:07.278Z</time>
</trkpt>
<trkpt lat="49.5112506" lon="1.285515">
<ele>113.0</ele>
<time>2026-09-01T14:37:11.796Z</time>
</trkpt>
<trkpt lat="49.511237" lon="1.2854457">
<ele>122.0</ele>
<time>2026-09-01T14:37:16.056Z</time>
</trkpt>
<trkpt lat="49.5112372" lon="1.2853707">
<ele>123.0</ele>
<time>2026-09-01T14:37:20.455Z</time>
</trkpt>
<trkpt lat="49.5112258" lon="1.2852889">
<ele>123.0</ele>
<time>2026-09-01T14:37:24.904Z</time>
</trkpt>
<trkpt lat="49.5111987" lon="1.2852106">
<ele>123.0</ele>
<time>2026-09-01T14:37:29.096Z</time>
</trkpt>
<trkpt lat="49.5111613" lon="1.2851641">
<ele>123.0</ele>
<time>2026-09-01T14:37:33.523Z</time>
</trkpt>
<trkpt lat="49.5111215" lon="1.2851194">
<ele>123.0</ele>
<time>2026-09-01T14:37:38.081Z</time>
</trkpt>
<trkpt lat="49.5110936" lon="1.2851288">
<ele>123.0</ele>
<time>2026-09-01T14:37:42.085Z</time>
</trkpt>
<trkpt lat="49.5110831" lon="1.285105">
<ele>123.0</ele>
<time>2026-09-01T14:39:06.843Z</time>
</trkpt>
<trkpt lat="49.5110554" lon="1.2850424">
<ele>123.0</ele>
<time>2026-09-01T14:39:10.944Z</time>
</trkpt>
<trkpt lat="49.511033" lon="1.2849689">
<ele>123.0</ele>
<time>2026-09-01T14:39:15.082Z</time>
</trkpt>
<trkpt lat="49.5110123" lon="1.2848856">
<ele>123.0</ele>
<time>2026-09-01T14:39:19.156Z</time>
</trkpt>
<trkpt lat="49.5109716" lon="1.2848176">
<ele>131.0</ele>
<time>2026-09-01T14:39:23.356Z</time>
</trkpt>
<trkpt lat="49.5109415" lon="1.2847578">
<ele>131.0</ele>
<time>2026-09-01T14:39:27.497Z</time>
</trkpt>
<trkpt lat="49.5109303" lon="1.2846912">
<ele>131.0</ele>
<time>2026-09-01T14:39:31.538Z</time>
</trkpt>
<trkpt lat="49.5109204" lon="1.2846208">
<ele>131.0</ele>
<time>2026-09-01T14:39:35.699Z</time>
</trkpt>
<trkpt lat="49.5108968" lon="1.2845646">
<ele>130.0</ele>
<time>2026-09-01T14:39:39.939Z</time>
</trkpt>
<trkpt lat="49.5108486" lon="1.2845352">
<ele>130.0</ele>
<time>2026-09-01T14:39:43.921Z</time>
</trkpt>
<trkpt lat="49.510837" lon="1.2844699">
<ele>130.0</ele>
<time>2026-09-01T14:39:48.022Z</time>
</trkpt>
<trkpt lat="49.5108483" lon="1.284384">
<ele>130.0</ele>
<time>2026-09-01T14:39:52.361Z</time>
</trkpt>
<trkpt lat="49.5108489" lon="1.2842853">
<ele>127.0</ele>
<time>2026-09-01T14:39:56.542Z</time>
</trkpt>
<trkpt lat="49.5108472" lon="1.2842112">
<ele>127.0</ele>
<time>2026-09-01T14:40:00.643Z</time>
</trkpt>
<trkpt lat="49.5108281" lon="1.2841333">
<ele>127.0</ele>
<time>2026-09-01T14:40:04.982Z</time>
</trkpt>
<trkpt lat="49.5108004" lon="1.2840612">
<ele>127.0</ele>
<time>2026-09-01T14:40:09.222Z</time>
</trkpt>
<trkpt lat="49.5107769" lon="1.2840021">
<ele>123.0</ele>
<time>2026-09-01T14:40:13.561Z</time>
</trkpt>
<trkpt lat="49.510748" lon="1.2839514">
<ele>123.0</ele>
<time>2026-09-01T14:40:17.642Z</time>
</trkpt>
<trkpt lat="49.5107271" lon="1.2838819">
<ele>123.0</ele>
<time>2026-09-01T14:40:21.922Z</time>
</trkpt>
<trkpt lat="49.5107108" lon="1.2838246">
<ele>123.0</ele>
<time>2026-09-01T14:40:26.063Z</time>
</trkpt>
<trkpt lat="49.5106774" lon="1.2837684">
<ele>130.0</ele>
<time>2026-09-01T14:40:30.303Z</time>
</trkpt>
<trkpt lat="49.5106459" lon="1.2836991">
<ele>124.0</ele>
<time>2026-09-01T14:40:34.404Z</time>
</trkpt>
<trkpt lat="49.5106168" lon="1.2836237">
<ele>124.0</ele>
<time>2026-09-01T14:40:38.564Z</time>
</trkpt>
<trkpt lat="49.5105926" lon="1.2835266">
<ele>124.0</ele>
<time>2026-09-01T14:40:42.764Z</time>
</trkpt>
<trkpt lat="49.5105735" lon="1.2834369">
<ele>120.0</ele>
<time>2026-09-01T14:40:47.342Z</time>
</trkpt>
<trkpt lat="49.5105532" lon="1.2833701">
<ele>120.0</ele>
<time>2026-09-01T14:40:51.463Z</time>
</trkpt>
<trkpt lat="49.5105309" lon="1.2833121">
<ele>120.0</ele>
<time>2026-09-01T14:40:55.604Z</time>
</trkpt>
<trkpt lat="49.5105031" lon="1.2832594">
<ele>120.0</ele>
<time>2026-09-01T14:41:00.075Z</time>
</trkpt>
<trkpt lat="49.5104618" lon="1.2831923">
<ele>120.0</ele>
<time>2026-09-01T14:41:04.481Z</time>
</trkpt>
<trkpt lat="49.5104327" lon="1.2831254">
<ele>120.0</ele>
<time>2026-09-01T14:41:08.721Z</time>
</trkpt>
<trkpt lat="49.510411" lon="1.2830765">
<ele>130.0</ele>
<time>2026-09-01T14:41:13.457Z</time>
</trkpt>
<trkpt lat="49.510395" lon="1.2830253">
<ele>130.0</ele>
<time>2026-09-01T14:41:17.717Z</time>
</trkpt>
<trkpt lat="49.51036" lon="1.2829773">
<ele>130.0</ele>
<time>2026-09-01T14:41:22.080Z</time>
</trkpt>
<trkpt lat="49.5103348" lon="1.2828989">
<ele>129.0</ele>
<time>2026-09-01T14:41:26.475Z</time>
</trkpt>
<trkpt lat="49.5103049" lon="1.2828185">
<ele>129.0</ele>
<time>2026-09-01T14:41:31.084Z</time>
</trkpt>
<trkpt lat="49.510279" lon="1.2827536">
<ele>129.0</ele>
<time>2026-09-01T14:41:35.581Z</time>
</trkpt>
<trkpt lat="49.5102544" lon="1.2827118">
<ele>129.0</ele>
<time>2026-09-01T14:41:39.602Z</time>
</trkpt>
<trkpt lat="49.5102418" lon="1.2826594">
<ele>129.0</ele>
<time>2026-09-01T14:41:43.663Z</time>
</trkpt>
<trkpt lat="49.5102342" lon="1.2826129">
<ele>129.0</ele>
<time>2026-09-01T14:41:47.824Z</time>
</trkpt>
<trkpt lat="49.5102152" lon="1.282547">
<ele>129.0</ele>
<time>2026-09-01T14:41:52.461Z</time>
</trkpt>
<trkpt lat="49.5101827" lon="1.2824824">
<ele>129.0</ele>
<time>2026-09-01T14:41:56.999Z</time>
</trkpt>
<trkpt lat="49.510169" lon="1.2824294">
<ele>129.0</ele>
<time>2026-09-01T14:42:01.084Z</time>
</trkpt>
<trkpt lat="49.5101464" lon="1.2823611">
<ele>129.0</ele>
<time>2026-09-01T14:42:05.658Z</time>
</trkpt>
<trkpt lat="49.5101245" lon="1.2822874">
<ele>133.0</ele>
<time>2026-09-01T14:42:10.078Z</time>
</trkpt>
<trkpt lat="49.5101174" lon="1.2822112">
<ele>133.0</ele>
<time>2026-09-01T14:42:14.684Z</time>
</trkpt>
<trkpt lat="49.5101049" lon="1.2821415">
<ele>133.0</ele>
<time>2026-09-01T14:42:19.043Z</time>
</trkpt>
<trkpt lat="49.5100922" lon="1.2820585">
<ele>132.0</ele>
<time>2026-09-01T14:42:23.481Z</time>
</trkpt>
<trkpt lat="49.5100834" lon="1.2819796">
<ele>132.0</ele>
<time>2026-09-01T14:42:27.801Z</time>
</trkpt>
<trkpt lat="49.5100689" lon="1.2819111">
<ele>132.0</ele>
<time>2026-09-01T14:42:32.085Z</time>
</trkpt>
<trkpt lat="49.5100591" lon="1.2818533">
<ele>132.0</ele>
<time>2026-09-01T14:42:36.559Z</time>
</trkpt>
<trkpt lat="49.5100546" lon="1.2817839">
<ele>132.0</ele>
<time>2026-09-01T14:42:41.097Z</time>
</trkpt>
<trkpt lat="49.5100534" lon="1.2817149">
<ele>132.0</ele>
<time>2026-09-01T14:42:45.257Z</time>
</trkpt>
<trkpt lat="49.5100539" lon="1.2816497">
<ele>132.0</ele>
<time>2026-09-01T14:42:49.755Z</time>
</trkpt>
<trkpt lat="49.5100588" lon="1.2815767">
<ele>132.0</ele>
<time>2026-09-01T14:42:54.085Z</time>
</trkpt>
<trkpt lat="49.5100626" lon="1.2814939">
<ele>133.0</ele>
<time>2026-09-01T14:42:58.543Z</time>
</trkpt>
<trkpt lat="49.5100599" lon="1.2814245">
<ele>133.0</ele>
<time>2026-09-01T14:43:02.843Z</time>
</trkpt>
<trkpt lat="49.5100507" lon="1.281373">
<ele>133.0</ele>
<time>2026-09-01T14:43:07.084Z</time>
</trkpt>
<trkpt lat="49.5100434" lon="1.2812931">
<ele>133.0</ele>
<time>2026-09-01T14:43:11.303Z</time>
</trkpt>
<trkpt lat="49.5100277" lon="1.2812121">
<ele>133.0</ele>
<time>2026-09-01T14:43:15.562Z</time>
</trkpt>
<trkpt lat="49.5100078" lon="1.281168">
<ele>133.0</ele>
<time>2026-09-01T14:43:20.041Z</time>
</trkpt>
<trkpt lat="49.5099767" lon="1.2811258">
<ele>133.0</ele>
<time>2026-09-01T14:43:24.081Z</time>
</trkpt>
<trkpt lat="49.5099545" lon="1.2809783">
<ele>133.0</ele>
<time>2026-09-01T14:43:33.084Z</time>
</trkpt>
<trkpt lat="49.5099574" lon="1.2809612">
<ele>134.0</ele>
<time>2026-09-01T14:43:38.081Z</time>
</trkpt>
<trkpt lat="49.5099629" lon="1.2809494">
<ele>134.0</ele>
<time>2026-09-01T14:43:42.084Z</time>
</trkpt>
<trkpt lat="49.5099665" lon="1.2809368">
<ele>134.0</ele>
<time>2026-09-01T14:43:47.081Z</time>
</trkpt>
<trkpt lat="49.5099759" lon="1.2808671">
<ele>134.0</ele>
<time>2026-09-01T14:43:51.299Z</time>
</trkpt>
<trkpt lat="49.5099398" lon="1.2807908">
<ele>134.0</ele>
<time>2026-09-01T14:44:24.084Z</time>
</trkpt>
<trkpt lat="49.5099372" lon="1.2807892">
<ele>134.0</ele>
<time>2026-09-01T14:44:29.083Z</time>
</trkpt>
<trkpt lat="49.5099374" lon="1.2807756">
<ele>134.0</ele>
<time>2026-09-01T14:44:33.480Z</time>
</trkpt>
<trkpt lat="49.5099634" lon="1.2807078">
<ele>134.0</ele>
<time>2026-09-01T14:44:37.958Z</time>
</trkpt>
<trkpt lat="49.5099404" lon="1.2806335">
<ele>133.0</ele>
<time>2026-09-01T14:44:42.298Z</time>
</trkpt>
<trkpt lat="49.5099106" lon="1.2805871">
<ele>133.0</ele>
<time>2026-09-01T14:44:46.657Z</time>
</trkpt>
<trkpt lat="49.509878" lon="1.2805637">
<ele>133.0</ele>
<time>2026-09-01T14:44:51.077Z</time>
</trkpt>
<trkpt lat="49.5098361" lon="1.2805473">
<ele>133.0</ele>
<time>2026-09-01T14:44:55.444Z</time>
</trkpt>
<trkpt lat="49.5097963" lon="1.280551">
<ele>133.0</ele>
<time>2026-09-01T14:44:59.416Z</time>
</trkpt>
<trkpt lat="49.509758" lon="1.2805239">
<ele>133.0</ele>
<time>2026-09-01T14:45:03.636Z</time>
</trkpt>
<trkpt lat="49.5097185" lon="1.2804673">
<ele>133.0</ele>
<time>2026-09-01T14:45:08.077Z</time>
</trkpt>
<trkpt lat="49.5096843" lon="1.280409">
<ele>132.0</ele>
<time>2026-09-01T14:45:12.523Z</time>
</trkpt>
<trkpt lat="49.5096466" lon="1.2803684">
<ele>132.0</ele>
<time>2026-09-01T14:45:16.922Z</time>
</trkpt>
<trkpt lat="49.5096263" lon="1.2803927">
<ele>132.0</ele>
<time>2026-09-01T14:45:21.088Z</time>
</trkpt>
<trkpt lat="49.5096203" lon="1.2803884">
<ele>132.0</ele>
<time>2026-09-01T14:45:25.759Z</time>
</trkpt>
<trkpt lat="49.5095914" lon="1.2803536">
<ele>132.0</ele>
<time>2026-09-01T14:45:29.781Z</time>
</trkpt>
<trkpt lat="49.5095535" lon="1.2803252">
<ele>135.0</ele>
<time>2026-09-01T14:45:33.862Z</time>
</trkpt>
<trkpt lat="49.5095461" lon="1.2803269">
<ele>135.0</ele>
<time>2026-09-01T14:45:38.084Z</time>
</trkpt>
<trkpt lat="49.5095495" lon="1.2803269">
<ele>135.0</ele>
<time>2026-09-01T14:49:36.085Z</time>
</trkpt>
<trkpt lat="49.5095531" lon="1.2802586">
<ele>135.0</ele>
<time>2026-09-01T14:49:41.078Z</time>
</trkpt>
<trkpt lat="49.5095455" lon="1.2801964">
<ele>135.0</ele>
<time>2026-09-01T14:49:45.081Z</time>
</trkpt>
<trkpt lat="49.5095479" lon="1.2801055">
<ele>133.0</ele>
<time>2026-09-01T14:49:49.617Z</time>
</trkpt>
<trkpt lat="49.5095191" lon="1.2800178">
<ele>133.0</ele>
<time>2026-09-01T14:49:54.036Z</time>
</trkpt>
<trkpt lat="49.5094964" lon="1.2799469">
<ele>133.0</ele>
<time>2026-09-01T14:49:58.623Z</time>
</trkpt>
<trkpt lat="49.5094598" lon="1.2798974">
<ele>133.0</ele>
<time>2026-09-01T14:50:02.962Z</time>
</trkpt>
<trkpt lat="49.5094372" lon="1.2798369">
<ele>133.0</ele>
<time>2026-09-01T14:50:07.302Z</time>
</trkpt>
<trkpt lat="49.5094188" lon="1.2797741">
<ele>133.0</ele>
<time>2026-09-01T14:50:11.482Z</time>
</trkpt>
<trkpt lat="49.509405" lon="1.2797053">
<ele>133.0</ele>
<time>2026-09-01T14:50:15.801Z</time>
</trkpt>
<trkpt lat="49.5093838" lon="1.2796402">
<ele>133.0</ele>
<time>2026-09-01T14:50:19.982Z</time>
</trkpt>
<trkpt lat="49.5093573" lon="1.2795533">
<ele>133.0</ele>
<time>2026-09-01T14:50:24.078Z</time>
</trkpt>
<trkpt lat="49.5093357" lon="1.2794692">
<ele>133.0</ele>
<time>2026-09-01T14:50:28.501Z</time>
</trkpt>
<trkpt lat="49.5093178" lon="1.2793838">
<ele>133.0</ele>
<time>2026-09-01T14:50:32.801Z</time>
</trkpt>
<trkpt lat="49.5092986" lon="1.2793052">
<ele>136.0</ele>
<time>2026-09-01T14:50:36.902Z</time>
</trkpt>
<trkpt lat="49.5092804" lon="1.2792227">
<ele>136.0</ele>
<time>2026-09-01T14:50:41.079Z</time>
</trkpt>
<trkpt lat="49.5092638" lon="1.2791513">
<ele>136.0</ele>
<time>2026-09-01T14:50:45.183Z</time>
</trkpt>
<trkpt lat="49.5092459" lon="1.2790805">
<ele>136.0</ele>
<time>2026-09-01T14:50:49.383Z</time>
</trkpt>
<trkpt lat="49.5092208" lon="1.2789932">
<ele>137.0</ele>
<time>2026-09-01T14:50:54.076Z</time>
</trkpt>
<trkpt lat="49.5091989" lon="1.2789199">
<ele>137.0</ele>
<time>2026-09-01T14:50:58.340Z</time>
</trkpt>
<trkpt lat="49.5091781" lon="1.2788518">
<ele>137.0</ele>
<time>2026-09-01T14:51:02.580Z</time>
</trkpt>
<trkpt lat="49.5091515" lon="1.2787967">
<ele>137.0</ele>
<time>2026-09-01T14:51:06.820Z</time>
</trkpt>
<trkpt lat="49.5091133" lon="1.278767">
<ele>137.0</ele>
<time>2026-09-01T14:51:11.079Z</time>
</trkpt>
<trkpt lat="49.5090736" lon="1.2787191">
<ele>137.0</ele>
<time>2026-09-01T14:51:15.399Z</time>
</trkpt>
<trkpt lat="49.5090435" lon="1.2786453">
<ele>137.0</ele>
<time>2026-09-01T14:51:19.778Z</time>
</trkpt>
<trkpt lat="49.5090188" lon="1.2785554">
<ele>141.0</ele>
<time>2026-09-01T14:51:23.958Z</time>
</trkpt>
<trkpt lat="49.5089914" lon="1.2784983">
<ele>141.0</ele>
<time>2026-09-01T14:51:28.397Z</time>
</trkpt>
<trkpt lat="49.5089681" lon="1.2784463">
<ele>141.0</ele>
<time>2026-09-01T14:51:32.637Z</time>
</trkpt>
<trkpt lat="49.5089393" lon="1.2784154">
<ele>141.0</ele>
<time>2026-09-01T14:51:37.078Z</time>
</trkpt>
<trkpt lat="49.5089097" lon="1.2783612">
<ele>141.0</ele>
<time>2026-09-01T14:51:41.544Z</time>
</trkpt>
<trkpt lat="49.5088819" lon="1.2782954">
<ele>141.0</ele>
<time>2026-09-01T14:51:46.073Z</time>
</trkpt>
<trkpt lat="49.5088552" lon="1.2782514">
<ele>141.0</ele>
<time>2026-09-01T14:51:50.083Z</time>
</trkpt>
<trkpt lat="49.5088222" lon="1.2781975">
<ele>141.0</ele>
<time>2026-09-01T14:51:54.601Z</time>
</trkpt>
<trkpt lat="49.5087907" lon="1.2781349">
<ele>142.0</ele>
<time>2026-09-01T14:51:59.075Z</time>
</trkpt>
<trkpt lat="49.5087639" lon="1.2780873">
<ele>142.0</ele>
<time>2026-09-01T14:52:03.836Z</time>
</trkpt>
<trkpt lat="49.5087312" lon="1.2780373">
<ele>148.0</ele>
<time>2026-09-01T14:52:07.877Z</time>
</trkpt>
<trkpt lat="49.5086961" lon="1.2780042">
<ele>148.0</ele>
<time>2026-09-01T14:52:12.623Z</time>
</trkpt>
<trkpt lat="49.5086538" lon="1.2779926">
<ele>148.0</ele>
<time>2026-09-01T14:52:16.665Z</time>
</trkpt>
<trkpt lat="49.5086088" lon="1.2779877">
<ele>148.0</ele>
<time>2026-09-01T14:52:20.716Z</time>
</trkpt>
<trkpt lat="49.5085735" lon="1.2779693">
<ele>148.0</ele>
<time>2026-09-01T14:52:25.363Z</time>
</trkpt>
<trkpt lat="49.5085386" lon="1.2779331">
<ele>148.0</ele>
<time>2026-09-01T14:52:29.563Z</time>
</trkpt>
<trkpt lat="49.5085069" lon="1.2778973">
<ele>149.0</ele>
<time>2026-09-01T14:52:33.704Z</time>
</trkpt>
<trkpt lat="49.5084783" lon="1.2778847">
<ele>149.0</ele>
<time>2026-09-01T14:52:37.825Z</time>
</trkpt>
<trkpt lat="49.5084477" lon="1.2778636">
<ele>151.0</ele>
<time>2026-09-01T14:52:41.876Z</time>
</trkpt>
<trkpt lat="49.5084129" lon="1.2778535">
<ele>151.0</ele>
<time>2026-09-01T14:52:46.016Z</time>
</trkpt>
<trkpt lat="49.508384" lon="1.2778496">
<ele>151.0</ele>
<time>2026-09-01T14:52:50.058Z</time>
</trkpt>
<trkpt lat="49.508346" lon="1.2778487">
<ele>151.0</ele>
<time>2026-09-01T14:52:54.764Z</time>
</trkpt>
<trkpt lat="49.5083084" lon="1.2778359">
<ele>151.0</ele>
<time>2026-09-01T14:52:59.084Z</time>
</trkpt>
<trkpt lat="49.508258" lon="1.2778265">
<ele>151.0</ele>
<time>2026-09-01T14:53:03.880Z</time>
</trkpt>
<trkpt lat="49.5082106" lon="1.2778247">
<ele>151.0</ele>
<time>2026-09-01T14:53:08.199Z</time>
</trkpt>
<trkpt lat="49.508168" lon="1.2778119">
<ele>153.0</ele>
<time>2026-09-01T14:53:12.737Z</time>
</trkpt>
<trkpt lat="49.5081239" lon="1.2777952">
<ele>153.0</ele>
<time>2026-09-01T14:53:17.076Z</time>
</trkpt>
<trkpt lat="49.5080627" lon="1.2777893">
<ele>153.0</ele>
<time>2026-09-01T14:53:21.644Z</time>
</trkpt>
<trkpt lat="49.5079882" lon="1.2778091">
<ele>153.0</ele>
<time>2026-09-01T14:53:30.070Z</time>
</trkpt>
<trkpt lat="49.5079975" lon="1.27783">
<ele>153.0</ele>
<time>2026-09-01T14:53:34.071Z</time>
</trkpt>
<trkpt lat="49.5080006" lon="1.2778427">
<ele>153.0</ele>
<time>2026-09-01T14:53:38.882Z</time>
</trkpt>
<trkpt lat="49.5079649" lon="1.2778835">
<ele>153.0</ele>
<time>2026-09-01T14:53:43.079Z</time>
</trkpt>
<trkpt lat="49.5079668" lon="1.2779322">
<ele>152.0</ele>
<time>2026-09-01T14:53:48.072Z</time>
</trkpt>
<trkpt lat="49.5079652" lon="1.2779273">
<ele>152.0</ele>
<time>2026-09-01T14:54:44.077Z</time>
</trkpt>
<trkpt lat="49.5079553" lon="1.277973">
<ele>152.0</ele>
<time>2026-09-01T14:54:48.079Z</time>
</trkpt>
<trkpt lat="49.507959" lon="1.2780664">
<ele>152.0</ele>
<time>2026-09-01T14:54:53.080Z</time>
</trkpt>
<trkpt lat="49.5079526" lon="1.2781237">
<ele>152.0</ele>
<time>2026-09-01T14:54:57.085Z</time>
</trkpt>
<trkpt lat="49.5079402" lon="1.2782075">
<ele>153.0</ele>
<time>2026-09-01T14:55:02.003Z</time>
</trkpt>
<trkpt lat="49.5079298" lon="1.278278">
<ele>153.0</ele>
<time>2026-09-01T14:55:06.044Z</time>
</trkpt>
<trkpt lat="49.5079224" lon="1.2783544">
<ele>153.0</ele>
<time>2026-09-01T14:55:10.081Z</time>
</trkpt>
<trkpt lat="49.5079134" lon="1.2784384">
<ele>154.0</ele>
<time>2026-09-01T14:55:14.802Z</time>
</trkpt>
<trkpt lat="49.507907" lon="1.2785194">
<ele>154.0</ele>
<time>2026-09-01T14:55:19.340Z</time>
</trkpt>
<trkpt lat="49.5079028" lon="1.2786011">
<ele>154.0</ele>
<time>2026-09-01T14:55:23.838Z</time>
</trkpt>
<trkpt lat="49.507896" lon="1.2786877">
<ele>154.0</ele>
<time>2026-09-01T14:55:28.297Z</time>
</trkpt>
<trkpt lat="49.507874" lon="1.2787633">
<ele>154.0</ele>
<time>2026-09-01T14:55:32.298Z</time>
</trkpt>
<trkpt lat="49.5078597" lon="1.2788372">
<ele>154.0</ele>
<time>2026-09-01T14:55:36.340Z</time>
</trkpt>
<trkpt lat="49.5078435" lon="1.2789272">
<ele>154.0</ele>
<time>2026-09-01T14:55:40.977Z</time>
</trkpt>
<trkpt lat="49.5078211" lon="1.2790095">
<ele>154.0</ele>
<time>2026-09-01T14:55:45.545Z</time>
</trkpt>
<trkpt lat="49.5077868" lon="1.2790688">
<ele>154.0</ele>
<time>2026-09-01T14:55:50.080Z</time>
</trkpt>
<trkpt lat="49.5077337" lon="1.2791302">
<ele>154.0</ele>
<time>2026-09-01T14:55:54.720Z</time>
</trkpt>
<trkpt lat="49.5076891" lon="1.2791718">
<ele>154.0</ele>
<time>2026-09-01T14:55:58.741Z</time>
</trkpt>
<trkpt lat="49.5076376" lon="1.2791921">
<ele>154.0</ele>
<time>2026-09-01T14:56:02.862Z</time>
</trkpt>
<trkpt lat="49.5075705" lon="1.2792026">
<ele>154.0</ele>
<time>2026-09-01T14:56:07.539Z</time>
</trkpt>
<trkpt lat="49.5075057" lon="1.2792035">
<ele>154.0</ele>
<time>2026-09-01T14:56:12.078Z</time>
</trkpt>
<trkpt lat="49.507444" lon="1.2792203">
<ele>154.0</ele>
<time>2026-09-01T14:56:16.744Z</time>
</trkpt>
<trkpt lat="49.5073909" lon="1.2792489">
<ele>154.0</ele>
<time>2026-09-01T14:56:21.075Z</time>
</trkpt>
<trkpt lat="49.5073453" lon="1.2792766">
<ele>154.0</ele>
<time>2026-09-01T14:56:25.244Z</time>
</trkpt>
<trkpt lat="49.5072989" lon="1.279305">
<ele>154.0</ele>
<time>2026-09-01T14:56:29.295Z</time>
</trkpt>
<trkpt lat="49.5072429" lon="1.2793302">
<ele>154.0</ele>
<time>2026-09-01T14:56:33.882Z</time>
</trkpt>
<trkpt lat="49.507188" lon="1.2793545">
<ele>154.0</ele>
<time>2026-09-01T14:56:38.539Z</time>
</trkpt>
<trkpt lat="49.5071358" lon="1.2793719">
<ele>154.0</ele>
<time>2026-09-01T14:56:43.083Z</time>
</trkpt>
<trkpt lat="49.5070775" lon="1.2793886">
<ele>154.0</ele>
<time>2026-09-01T14:56:47.804Z</time>
</trkpt>
<trkpt lat="49.5070287" lon="1.2794152">
<ele>154.0</ele>
<time>2026-09-01T14:56:52.322Z</time>
</trkpt>
<trkpt lat="49.5069738" lon="1.2794445">
<ele>154.0</ele>
<time>2026-09-01T14:56:56.880Z</time>
</trkpt>
<trkpt lat="49.5069273" lon="1.2794678">
<ele>154.0</ele>
<time>2026-09-01T14:57:01.417Z</time>
</trkpt>
<trkpt lat="49.5068713" lon="1.2794962">
<ele>154.0</ele>
<time>2026-09-01T14:57:06.065Z</time>
</trkpt>
<trkpt lat="49.5068327" lon="1.2795267">
<ele>154.0</ele>
<time>2026-09-01T14:57:10.056Z</time>
</trkpt>
<trkpt lat="49.5067906" lon="1.2795644">
<ele>154.0</ele>
<time>2026-09-01T14:57:14.080Z</time>
</trkpt>
<trkpt lat="49.5067312" lon="1.2796036">
<ele>154.0</ele>
<time>2026-09-01T14:57:18.199Z</time>
</trkpt>
<trkpt lat="49.5066855" lon="1.2796178">
<ele>154.0</ele>
<time>2026-09-01T14:57:22.339Z</time>
</trkpt>
<trkpt lat="49.5066464" lon="1.2796325">
<ele>154.0</ele>
<time>2026-09-01T14:57:26.440Z</time>
</trkpt>
<trkpt lat="49.5066072" lon="1.2796469">
<ele>154.0</ele>
<time>2026-09-01T14:57:30.641Z</time>
</trkpt>
<trkpt lat="49.5065628" lon="1.2796729">
<ele>154.0</ele>
<time>2026-09-01T14:57:35.079Z</time>
</trkpt>
<trkpt lat="49.5065154" lon="1.279712">
<ele>152.0</ele>
<time>2026-09-01T14:57:39.319Z</time>
</trkpt>
<trkpt lat="49.5064691" lon="1.2797685">
<ele>152.0</ele>
<time>2026-09-01T14:57:43.360Z</time>
</trkpt>
<trkpt lat="49.5064411" lon="1.2798603">
<ele>152.0</ele>
<time>2026-09-01T14:57:47.878Z</time>
</trkpt>
<trkpt lat="49.5064372" lon="1.2799542">
<ele>152.0</ele>
<time>2026-09-01T14:57:52.476Z</time>
</trkpt>
<trkpt lat="49.5064298" lon="1.2800143">
<ele>152.0</ele>
<time>2026-09-01T14:57:56.537Z</time>
</trkpt>
<trkpt lat="49.5064115" lon="1.2800789">
<ele>152.0</ele>
<time>2026-09-01T14:58:00.698Z</time>
</trkpt>
<trkpt lat="49.5063851" lon="1.2801494">
<ele>152.0</ele>
<time>2026-09-01T14:58:05.315Z</time>
</trkpt>
<trkpt lat="49.5063543" lon="1.280225">
<ele>152.0</ele>
<time>2026-09-01T14:58:09.962Z</time>
</trkpt>
<trkpt lat="49.5063181" lon="1.2802886">
<ele>152.0</ele>
<time>2026-09-01T14:58:14.540Z</time>
</trkpt>
<trkpt lat="49.5062813" lon="1.2803455">
<ele>152.0</ele>
<time>2026-09-01T14:58:19.083Z</time>
</trkpt>
<trkpt lat="49.506244" lon="1.2803817">
<ele>152.0</ele>
<time>2026-09-01T14:58:23.119Z</time>
</trkpt>
<trkpt lat="49.5061901" lon="1.2804147">
<ele>152.0</ele>
<time>2026-09-01T14:58:27.737Z</time>
</trkpt>
<trkpt lat="49.5061389" lon="1.2804337">
<ele>152.0</ele>
<time>2026-09-01T14:58:31.818Z</time>
</trkpt>
<trkpt lat="49.5060752" lon="1.2804464">
<ele>152.0</ele>
<time>2026-09-01T14:58:36.415Z</time>
</trkpt>
<trkpt lat="49.5060117" lon="1.2804502">
<ele>152.0</ele>
<time>2026-09-01T14:58:40.983Z</time>
</trkpt>
<trkpt lat="49.5059569" lon="1.2804506">
<ele>152.0</ele>
<time>2026-09-01T14:58:45.521Z</time>
</trkpt>
<trkpt lat="49.505907" lon="1.2804462">
<ele>152.0</ele>
<time>2026-09-01T14:58:50.079Z</time>
</trkpt>
<trkpt lat="49.505854" lon="1.2804375">
<ele>152.0</ele>
<time>2026-09-01T14:58:54.656Z</time>
</trkpt>
<trkpt lat="49.5058002" lon="1.2804351">
<ele>152.0</ele>
<time>2026-09-01T14:58:59.075Z</time>
</trkpt>
<trkpt lat="49.5057493" lon="1.2804243">
<ele>152.0</ele>
<time>2026-09-01T14:59:03.236Z</time>
</trkpt>
<trkpt lat="49.505701" lon="1.2804231">
<ele>152.0</ele>
<time>2026-09-01T14:59:07.277Z</time>
</trkpt>
<trkpt lat="49.5056414" lon="1.2804338">
<ele>152.0</ele>
<time>2026-09-01T14:59:11.885Z</time>
</trkpt>
<trkpt lat="49.5055837" lon="1.2804342">
<ele>152.0</ele>
<time>2026-09-01T14:59:16.462Z</time>
</trkpt>
<trkpt lat="49.5055292" lon="1.2804527">
<ele>152.0</ele>
<time>2026-09-01T14:59:21.060Z</time>
</trkpt>
<trkpt lat="49.5054767" lon="1.2804687">
<ele>152.0</ele>
<time>2026-09-01T14:59:25.717Z</time>
</trkpt>
<trkpt lat="49.5054274" lon="1.2804787">
<ele>152.0</ele>
<time>2026-09-01T14:59:30.245Z</time>
</trkpt>
<trkpt lat="49.5053684" lon="1.2804956">
<ele>152.0</ele>
<time>2026-09-01T14:59:34.783Z</time>
</trkpt>
<trkpt lat="49.505319" lon="1.28051">
<ele>152.0</ele>
<time>2026-09-01T14:59:39.360Z</time>
</trkpt>
<trkpt lat="49.5052715" lon="1.2805352">
<ele>152.0</ele>
<time>2026-09-01T14:59:43.958Z</time>
</trkpt>
<trkpt lat="49.5052299" lon="1.2805647">
<ele>152.0</ele>
<time>2026-09-01T14:59:48.080Z</time>
</trkpt>
<trkpt lat="49.5051935" lon="1.2805847">
<ele>152.0</ele>
<time>2026-09-01T14:59:52.418Z</time>
</trkpt>
<trkpt lat="49.5051555" lon="1.2806452">
<ele>152.0</ele>
<time>2026-09-01T14:59:57.035Z</time>
</trkpt>
<trkpt lat="49.505138" lon="1.2807295">
<ele>151.0</ele>
<time>2026-09-01T15:00:01.424Z</time>
</trkpt>
<trkpt lat="49.5051519" lon="1.280817">
<ele>152.0</ele>
<time>2026-09-01T15:00:05.883Z</time>
</trkpt>
<trkpt lat="49.5051919" lon="1.2808896">
<ele>152.0</ele>
<time>2026-09-01T15:00:10.440Z</time>
</trkpt>
<trkpt lat="49.5052295" lon="1.2809532">
<ele>152.0</ele>
<time>2026-09-01T15:00:15.038Z</time>
</trkpt>
<trkpt lat="49.5052637" lon="1.2810099">
<ele>152.0</ele>
<time>2026-09-01T15:00:19.635Z</time>
</trkpt>
<trkpt lat="49.5052924" lon="1.2810728">
<ele>152.0</ele>
<time>2026-09-01T15:00:24.078Z</time>
</trkpt>
<trkpt lat="49.5053219" lon="1.2811536">
<ele>152.0</ele>
<time>2026-09-01T15:00:28.284Z</time>
</trkpt>
<trkpt lat="49.5053456" lon="1.2812075">
<ele>152.0</ele>
<time>2026-09-01T15:00:32.743Z</time>
</trkpt>
<trkpt lat="49.5053505" lon="1.2812654">
<ele>152.0</ele>
<time>2026-09-01T15:00:37.074Z</time>
</trkpt>
<trkpt lat="49.5053257" lon="1.2812895">
<ele>152.0</ele>
<time>2026-09-01T15:00:42.073Z</time>
</trkpt>
<trkpt lat="49.5053116" lon="1.2813017">
<ele>152.0</ele>
<time>2026-09-01T15:00:46.078Z</time>
</trkpt>
<trkpt lat="49.5053073" lon="1.2813087">
<ele>152.0</ele>
<time>2026-09-01T15:00:50.358Z</time>
</trkpt>
<trkpt lat="49.5053264" lon="1.281382">
<ele>152.0</ele>
<time>2026-09-01T15:00:54.439Z</time>
</trkpt>
<trkpt lat="49.5053505" lon="1.2814706">
<ele>152.0</ele>
<time>2026-09-01T15:00:58.580Z</time>
</trkpt>
<trkpt lat="49.505378" lon="1.2815576">
<ele>152.0</ele>
<time>2026-09-01T15:01:03.079Z</time>
</trkpt>
<trkpt lat="49.5054034" lon="1.2816331">
<ele>152.0</ele>
<time>2026-09-01T15:01:07.239Z</time>
</trkpt>
<trkpt lat="49.5054229" lon="1.2817115">
<ele>153.0</ele>
<time>2026-09-01T15:01:11.339Z</time>
</trkpt>
<trkpt lat="49.5054402" lon="1.2818024">
<ele>153.0</ele>
<time>2026-09-01T15:01:15.858Z</time>
</trkpt>
<trkpt lat="49.5054635" lon="1.2818842">
<ele>153.0</ele>
<time>2026-09-01T15:01:20.505Z</time>
</trkpt>
<trkpt lat="49.5054844" lon="1.281963">
<ele>153.0</ele>
<time>2026-09-01T15:01:25.075Z</time>
</trkpt>
<trkpt lat="49.5054961" lon="1.2820355">
<ele>153.0</ele>
<time>2026-09-01T15:01:29.819Z</time>
</trkpt>
<trkpt lat="49.5055155" lon="1.2820932">
<ele>153.0</ele>
<time>2026-09-01T15:01:34.456Z</time>
</trkpt>
<trkpt lat="49.5055355" lon="1.2821579">
<ele>153.0</ele>
<time>2026-09-01T15:01:38.478Z</time>
</trkpt>
<trkpt lat="49.5055494" lon="1.2822373">
<ele>153.0</ele>
<time>2026-09-01T15:01:42.598Z</time>
</trkpt>
<trkpt lat="49.5055618" lon="1.2823102">
<ele>153.0</ele>
<time>2026-09-01T15:01:46.620Z</time>
</trkpt>
<trkpt lat="49.5055806" lon="1.2823724">
<ele>152.0</ele>
<time>2026-09-01T15:01:50.860Z</time>
</trkpt>
<trkpt lat="49.5056053" lon="1.2824217">
<ele>152.0</ele>
<time>2026-09-01T15:01:55.517Z</time>
</trkpt>
<trkpt lat="49.505635" lon="1.2824779">
<ele>152.0</ele>
<time>2026-09-01T15:02:00.068Z</time>
</trkpt>
<trkpt lat="49.5056538" lon="1.2825696">
<ele>152.0</ele>
<time>2026-09-01T15:02:04.682Z</time>
</trkpt>
<trkpt lat="49.5056861" lon="1.2826404">
<ele>152.0</ele>
<time>2026-09-01T15:02:09.070Z</time>
</trkpt>
<trkpt lat="49.5057279" lon="1.2826894">
<ele>153.0</ele>
<time>2026-09-01T15:02:13.063Z</time>
</trkpt>
<trkpt lat="49.5057696" lon="1.282718">
<ele>153.0</ele>
<time>2026-09-01T15:02:17.073Z</time>
</trkpt>
<trkpt lat="49.5058126" lon="1.2827405">
<ele>153.0</ele>
<time>2026-09-01T15:02:21.086Z</time>
</trkpt>
<trkpt lat="49.5058542" lon="1.2827778">
<ele>153.0</ele>
<time>2026-09-01T15:02:25.455Z</time>
</trkpt>
<trkpt lat="49.5058966" lon="1.2828161">
<ele>153.0</ele>
<time>2026-09-01T15:02:29.497Z</time>
</trkpt>
<trkpt lat="49.5059409" lon="1.2828654">
<ele>153.0</ele>
<time>2026-09-01T15:02:34.079Z</time>
</trkpt>
<trkpt lat="49.5059878" lon="1.2829073">
<ele>153.0</ele>
<time>2026-09-01T15:02:38.215Z</time>
</trkpt>
<trkpt lat="49.5060356" lon="1.2829339">
<ele>153.0</ele>
<time>2026-09-01T15:02:42.376Z</time>
</trkpt>
<trkpt lat="49.5060772" lon="1.2829653">
<ele>153.0</ele>
<time>2026-09-01T15:02:46.536Z</time>
</trkpt>
<trkpt lat="49.5061209" lon="1.2830006">
<ele>153.0</ele>
<time>2026-09-01T15:02:50.558Z</time>
</trkpt>
<trkpt lat="49.5061544" lon="1.2830398">
<ele>153.0</ele>
<time>2026-09-01T15:02:54.560Z</time>
</trkpt>
<trkpt lat="49.5061934" lon="1.2830816">
<ele>153.0</ele>
<time>2026-09-01T15:02:58.661Z</time>
</trkpt>
<trkpt lat="49.5062299" lon="1.2831407">
<ele>153.0</ele>
<time>2026-09-01T15:03:03.278Z</time>
</trkpt>
<trkpt lat="49.5062491" lon="1.2832288">
<ele>152.0</ele>
<time>2026-09-01T15:03:07.339Z</time>
</trkpt>
<trkpt lat="49.5062544" lon="1.28333">
<ele>153.0</ele>
<time>2026-09-01T15:03:11.818Z</time>
</trkpt>
<trkpt lat="49.5062534" lon="1.2834087">
<ele>153.0</ele>
<time>2026-09-01T15:03:15.978Z</time>
</trkpt>
<trkpt lat="49.5062542" lon="1.2834913">
<ele>153.0</ele>
<time>2026-09-01T15:03:20.496Z</time>
</trkpt>
<trkpt lat="49.5062633" lon="1.2835706">
<ele>153.0</ele>
<time>2026-09-01T15:03:25.076Z</time>
</trkpt>
<trkpt lat="49.5062719" lon="1.2836343">
<ele>153.0</ele>
<time>2026-09-01T15:03:29.081Z</time>
</trkpt>
<trkpt lat="49.5062791" lon="1.283699">
<ele>153.0</ele>
<time>2026-09-01T15:03:33.316Z</time>
</trkpt>
<trkpt lat="49.506286" lon="1.2837694">
<ele>152.0</ele>
<time>2026-09-01T15:03:37.397Z</time>
</trkpt>
<trkpt lat="49.5062839" lon="1.2838444">
<ele>152.0</ele>
<time>2026-09-01T15:03:41.478Z</time>
</trkpt>
<trkpt lat="49.5062808" lon="1.2839128">
<ele>152.0</ele>
<time>2026-09-01T15:03:45.539Z</time>
</trkpt>
<trkpt lat="49.5062787" lon="1.2839936">
<ele>152.0</ele>
<time>2026-09-01T15:03:49.740Z</time>
</trkpt>
<trkpt lat="49.5062775" lon="1.2840761">
<ele>152.0</ele>
<time>2026-09-01T15:03:53.761Z</time>
</trkpt>
<trkpt lat="49.5062788" lon="1.2841545">
<ele>152.0</ele>
<time>2026-09-01T15:03:57.862Z</time>
</trkpt>
<trkpt lat="49.5062809" lon="1.2842267">
<ele>152.0</ele>
<time>2026-09-01T15:04:01.864Z</time>
</trkpt>
<trkpt lat="49.5062777" lon="1.2843048">
<ele>152.0</ele>
<time>2026-09-01T15:04:05.955Z</time>
</trkpt>
<trkpt lat="49.5062787" lon="1.2843797">
<ele>152.0</ele>
<time>2026-09-01T15:04:10.073Z</time>
</trkpt>
<trkpt lat="49.5062821" lon="1.2844652">
<ele>152.0</ele>
<time>2026-09-01T15:04:14.564Z</time>
</trkpt>
<trkpt lat="49.5062852" lon="1.2845455">
<ele>152.0</ele>
<time>2026-09-01T15:04:18.655Z</time>
</trkpt>
<trkpt lat="49.5062851" lon="1.2846272">
<ele>152.0</ele>
<time>2026-09-01T15:04:23.282Z</time>
</trkpt>
<trkpt lat="49.5062829" lon="1.2847007">
<ele>152.0</ele>
<time>2026-09-01T15:04:27.324Z</time>
</trkpt>
<trkpt lat="49.5062838" lon="1.2847812">
<ele>152.0</ele>
<time>2026-09-01T15:04:31.335Z</time>
</trkpt>
<trkpt lat="49.506288" lon="1.2848543">
<ele>152.0</ele>
<time>2026-09-01T15:04:35.377Z</time>
</trkpt>
<trkpt lat="49.5062946" lon="1.2849206">
<ele>151.0</ele>
<time>2026-09-01T15:04:39.438Z</time>
</trkpt>
<trkpt lat="49.5062957" lon="1.2849924">
<ele>151.0</ele>
<time>2026-09-01T15:04:43.479Z</time>
</trkpt>
<trkpt lat="49.5062814" lon="1.2850856">
<ele>151.0</ele>
<time>2026-09-01T15:04:47.521Z</time>
</trkpt>
<trkpt lat="49.5062834" lon="1.2851597">
<ele>151.0</ele>
<time>2026-09-01T15:04:52.073Z</time>
</trkpt>
<trkpt lat="49.5062907" lon="1.2852194">
<ele>151.0</ele>
<time>2026-09-01T15:04:56.070Z</time>
</trkpt>
<trkpt lat="49.5062932" lon="1.2853102">
<ele>151.0</ele>
<time>2026-09-01T15:05:00.519Z</time>
</trkpt>
<trkpt lat="49.5062867" lon="1.285426">
<ele>151.0</ele>
<time>2026-09-01T15:05:04.521Z</time>
</trkpt>
<trkpt lat="49.5062865" lon="1.2855147">
<ele>151.0</ele>
<time>2026-09-01T15:05:08.582Z</time>
</trkpt>
<trkpt lat="49.5062813" lon="1.2855874">
<ele>151.0</ele>
<time>2026-09-01T15:05:12.683Z</time>
</trkpt>
<trkpt lat="49.5062683" lon="1.2856648">
<ele>151.0</ele>
<time>2026-09-01T15:05:16.744Z</time>
</trkpt>
<trkpt lat="49.5062612" lon="1.2857504">
<ele>150.0</ele>
<time>2026-09-01T15:05:20.776Z</time>
</trkpt>
<trkpt lat="49.5062651" lon="1.2858318">
<ele>150.0</ele>
<time>2026-09-01T15:05:25.284Z</time>
</trkpt>
<trkpt lat="49.506272" lon="1.2859148">
<ele>150.0</ele>
<time>2026-09-01T15:05:29.901Z</time>
</trkpt>
<trkpt lat="49.5062756" lon="1.2859873">
<ele>150.0</ele>
<time>2026-09-01T15:05:33.942Z</time>
</trkpt>
<trkpt lat="49.5062761" lon="1.2860646">
<ele>150.0</ele>
<time>2026-09-01T15:05:37.964Z</time>
</trkpt>
<trkpt lat="49.5062792" lon="1.2861487">
<ele>150.0</ele>
<time>2026-09-01T15:05:42.442Z</time>
</trkpt>
<trkpt lat="49.5062783" lon="1.2862195">
<ele>150.0</ele>
<time>2026-09-01T15:05:46.484Z</time>
</trkpt>
<trkpt lat="49.5062824" lon="1.2862921">
<ele>149.0</ele>
<time>2026-09-01T15:05:51.070Z</time>
</trkpt>
<trkpt lat="49.5062959" lon="1.286359">
<ele>149.0</ele>
<time>2026-09-01T15:05:55.083Z</time>
</trkpt>
<trkpt lat="49.506305" lon="1.2864437">
<ele>149.0</ele>
<time>2026-09-01T15:05:59.760Z</time>
</trkpt>
<trkpt lat="49.5063138" lon="1.2865228">
<ele>149.0</ele>
<time>2026-09-01T15:06:04.238Z</time>
</trkpt>
<trkpt lat="49.5063233" lon="1.2866">
<ele>148.0</ele>
<time>2026-09-01T15:06:08.776Z</time>
</trkpt>
<trkpt lat="49.5063321" lon="1.2866646">
<ele>148.0</ele>
<time>2026-09-01T15:06:12.758Z</time>
</trkpt>
<trkpt lat="49.5063438" lon="1.2867388">
<ele>148.0</ele>
<time>2026-09-01T15:06:16.779Z</time>
</trkpt>
<trkpt lat="49.5063508" lon="1.286819">
<ele>147.0</ele>
<time>2026-09-01T15:06:21.077Z</time>
</trkpt>
<trkpt lat="49.5063553" lon="1.2868971">
<ele>147.0</ele>
<time>2026-09-01T15:06:25.200Z</time>
</trkpt>
<trkpt lat="49.5063675" lon="1.286975">
<ele>147.0</ele>
<time>2026-09-01T15:06:29.778Z</time>
</trkpt>
<trkpt lat="49.5063802" lon="1.2870572">
<ele>147.0</ele>
<time>2026-09-01T15:06:34.296Z</time>
</trkpt>
<trkpt lat="49.5063935" lon="1.2871433">
<ele>147.0</ele>
<time>2026-09-01T15:06:39.079Z</time>
</trkpt>
<trkpt lat="49.5064006" lon="1.2872219">
<ele>147.0</ele>
<time>2026-09-01T15:06:43.620Z</time>
</trkpt>
<trkpt lat="49.5064078" lon="1.2872906">
<ele>147.0</ele>
<time>2026-09-01T15:06:47.701Z</time>
</trkpt>
<trkpt lat="49.5064137" lon="1.2873666">
<ele>146.0</ele>
<time>2026-09-01T15:06:51.861Z</time>
</trkpt>
<trkpt lat="49.5064135" lon="1.2874403">
<ele>146.0</ele>
<time>2026-09-01T15:06:55.942Z</time>
</trkpt>
<trkpt lat="49.506401" lon="1.2875276">
<ele>146.0</ele>
<time>2026-09-01T15:07:00.024Z</time>
</trkpt>
<trkpt lat="49.5064008" lon="1.2876004">
<ele>146.0</ele>
<time>2026-09-01T15:07:04.072Z</time>
</trkpt>
<trkpt lat="49.5064127" lon="1.2876701">
<ele>144.0</ele>
<time>2026-09-01T15:07:08.235Z</time>
</trkpt>
<trkpt lat="49.5064266" lon="1.2877395">
<ele>144.0</ele>
<time>2026-09-01T15:07:12.317Z</time>
</trkpt>
<trkpt lat="49.5064411" lon="1.2878077">
<ele>144.0</ele>
<time>2026-09-01T15:07:16.398Z</time>
</trkpt>
<trkpt lat="49.5064497" lon="1.2878816">
<ele>144.0</ele>
<time>2026-09-01T15:07:20.558Z</time>
</trkpt>
<trkpt lat="49.5064546" lon="1.2879691">
<ele>144.0</ele>
<time>2026-09-01T15:07:25.070Z</time>
</trkpt>
<trkpt lat="49.5064552" lon="1.2880417">
<ele>144.0</ele>
<time>2026-09-01T15:07:29.074Z</time>
</trkpt>
<trkpt lat="49.5064642" lon="1.2881206">
<ele>144.0</ele>
<time>2026-09-01T15:07:33.715Z</time>
</trkpt>
<trkpt lat="49.5064699" lon="1.2881917">
<ele>144.0</ele>
<time>2026-09-01T15:07:37.796Z</time>
</trkpt>
<trkpt lat="49.506477" lon="1.2882568">
<ele>144.0</ele>
<time>2026-09-01T15:07:41.857Z</time>
</trkpt>
<trkpt lat="49.5064873" lon="1.2883247">
<ele>144.0</ele>
<time>2026-09-01T15:07:46.038Z</time>
</trkpt>
<trkpt lat="49.5064992" lon="1.2884008">
<ele>144.0</ele>
<time>2026-09-01T15:07:50.635Z</time>
</trkpt>
<trkpt lat="49.5065058" lon="1.2884676">
<ele>144.0</ele>
<time>2026-09-01T15:07:54.677Z</time>
</trkpt>
<trkpt lat="49.5065113" lon="1.2885392">
<ele>144.0</ele>
<time>2026-09-01T15:07:58.818Z</time>
</trkpt>
<trkpt lat="49.5065143" lon="1.2886103">
<ele>144.0</ele>
<time>2026-09-01T15:08:02.819Z</time>
</trkpt>
<trkpt lat="49.5065183" lon="1.2886841">
<ele>144.0</ele>
<time>2026-09-01T15:08:07Z</time>
</trkpt>
<trkpt lat="49.5065213" lon="1.2887676">
<ele>143.0</ele>
<time>2026-09-01T15:08:11.577Z</time>
</trkpt>
<trkpt lat="49.5065253" lon="1.28885">
<ele>143.0</ele>
<time>2026-09-01T15:08:15.976Z</time>
</trkpt>
<trkpt lat="49.5065244" lon="1.2889261">
<ele>143.0</ele>
<time>2026-09-01T15:08:20.076Z</time>
</trkpt>
<trkpt lat="49.5065222" lon="1.2890052">
<ele>143.0</ele>
<time>2026-09-01T15:08:24.086Z</time>
</trkpt>
<trkpt lat="49.5065101" lon="1.2890961">
<ele>141.0</ele>
<time>2026-09-01T15:08:28.736Z</time>
</trkpt>
<trkpt lat="49.5064957" lon="1.2891789">
<ele>141.0</ele>
<time>2026-09-01T15:08:33.224Z</time>
</trkpt>
<trkpt lat="49.5064752" lon="1.2892465">
<ele>141.0</ele>
<time>2026-09-01T15:08:37.822Z</time>
</trkpt>
<trkpt lat="49.5064614" lon="1.2893062">
<ele>139.0</ele>
<time>2026-09-01T15:08:41.942Z</time>
</trkpt>
<trkpt lat="49.5064463" lon="1.2893662">
<ele>139.0</ele>
<time>2026-09-01T15:08:45.964Z</time>
</trkpt>
<trkpt lat="49.5064271" lon="1.2894364">
<ele>139.0</ele>
<time>2026-09-01T15:08:50.055Z</time>
</trkpt>
<trkpt lat="49.5064143" lon="1.2895176">
<ele>139.0</ele>
<time>2026-09-01T15:08:54.078Z</time>
</trkpt>
<trkpt lat="49.5064055" lon="1.2895913">
<ele>138.0</ele>
<time>2026-09-01T15:08:58.084Z</time>
</trkpt>
<trkpt lat="49.5063965" lon="1.2896566">
<ele>138.0</ele>
<time>2026-09-01T15:09:02.358Z</time>
</trkpt>
<trkpt lat="49.5063898" lon="1.2897185">
<ele>138.0</ele>
<time>2026-09-01T15:09:06.499Z</time>
</trkpt>
<trkpt lat="49.5063846" lon="1.2897941">
<ele>138.0</ele>
<time>2026-09-01T15:09:10.907Z</time>
</trkpt>
<trkpt lat="49.5063843" lon="1.2898643">
<ele>137.0</ele>
<time>2026-09-01T15:09:14.979Z</time>
</trkpt>
<trkpt lat="49.5063915" lon="1.2899396">
<ele>137.0</ele>
<time>2026-09-01T15:09:19.556Z</time>
</trkpt>
<trkpt lat="49.5063864" lon="1.2900071">
<ele>137.0</ele>
<time>2026-09-01T15:09:23.657Z</time>
</trkpt>
<trkpt lat="49.5063839" lon="1.2900814">
<ele>137.0</ele>
<time>2026-09-01T15:09:27.659Z</time>
</trkpt>
<trkpt lat="49.506392" lon="1.2901492">
<ele>136.0</ele>
<time>2026-09-01T15:09:31.700Z</time>
</trkpt>
<trkpt lat="49.5063984" lon="1.2902131">
<ele>136.0</ele>
<time>2026-09-01T15:09:35.781Z</time>
</trkpt>
<trkpt lat="49.5063944" lon="1.2902934">
<ele>136.0</ele>
<time>2026-09-01T15:09:40.379Z</time>
</trkpt>
<trkpt lat="49.5063871" lon="1.2903643">
<ele>136.0</ele>
<time>2026-09-01T15:09:44.937Z</time>
</trkpt>
<trkpt lat="49.5063757" lon="1.2904141">
<ele>136.0</ele>
<time>2026-09-01T15:09:49.080Z</time>
</trkpt>
<trkpt lat="49.5063582" lon="1.2904715">
<ele>135.0</ele>
<time>2026-09-01T15:09:53.337Z</time>
</trkpt>
<trkpt lat="49.5063566" lon="1.2905346">
<ele>135.0</ele>
<time>2026-09-01T15:09:57.438Z</time>
</trkpt>
<trkpt lat="49.5063546" lon="1.2906001">
<ele>135.0</ele>
<time>2026-09-01T15:10:01.579Z</time>
</trkpt>
<trkpt lat="49.506353" lon="1.290662">
<ele>135.0</ele>
<time>2026-09-01T15:10:05.719Z</time>
</trkpt>
<trkpt lat="49.5063559" lon="1.29073">
<ele>133.0</ele>
<time>2026-09-01T15:10:09.860Z</time>
</trkpt>
<trkpt lat="49.5063424" lon="1.2908001">
<ele>133.0</ele>
<time>2026-09-01T15:10:14.041Z</time>
</trkpt>
<trkpt lat="49.5063084" lon="1.2908651">
<ele>133.0</ele>
<time>2026-09-01T15:10:18.074Z</time>
</trkpt>
<trkpt lat="49.506294" lon="1.290938">
<ele>133.0</ele>
<time>2026-09-01T15:10:22.302Z</time>
</trkpt>
<trkpt lat="49.5062847" lon="1.2909944">
<ele>131.0</ele>
<time>2026-09-01T15:10:26.463Z</time>
</trkpt>
<trkpt lat="49.5062829" lon="1.2910552">
<ele>131.0</ele>
<time>2026-09-01T15:10:30.544Z</time>
</trkpt>
<trkpt lat="49.5062932" lon="1.2911358">
<ele>131.0</ele>
<time>2026-09-01T15:10:35.073Z</time>
</trkpt>
<trkpt lat="49.5062938" lon="1.2912108">
<ele>131.0</ele>
<time>2026-09-01T15:10:39.222Z</time>
</trkpt>
<trkpt lat="49.5062956" lon="1.2912687">
<ele>127.0</ele>
<time>2026-09-01T15:10:43.304Z</time>
</trkpt>
<trkpt lat="49.5063053" lon="1.2913159">
<ele>127.0</ele>
<time>2026-09-01T15:10:47.464Z</time>
</trkpt>
<trkpt lat="49.5063203" lon="1.2913873">
<ele>127.0</ele>
<time>2026-09-01T15:10:52.072Z</time>
</trkpt>
<trkpt lat="49.5063368" lon="1.2915411">
<ele>123.0</ele>
<time>2026-09-01T15:11:14.066Z</time>
</trkpt>
<trkpt lat="49.5063358" lon="1.2915457">
<ele>123.0</ele>
<time>2026-09-01T15:11:19.080Z</time>
</trkpt>
<trkpt lat="49.506333" lon="1.2915547">
<ele>123.0</ele>
<time>2026-09-01T15:11:24.069Z</time>
</trkpt>
<trkpt lat="49.5063339" lon="1.2915595">
<ele>123.0</ele>
<time>2026-09-01T15:11:29.076Z</time>
</trkpt>
<trkpt lat="49.5063326" lon="1.2916031">
<ele>123.0</ele>
<time>2026-09-01T15:11:34.015Z</time>
</trkpt>
<trkpt lat="49.5063247" lon="1.2916785">
<ele>123.0</ele>
<time>2026-09-01T15:11:38.325Z</time>
</trkpt>
<trkpt lat="49.5063152" lon="1.2917418">
<ele>123.0</ele>
<time>2026-09-01T15:11:42.455Z</time>
</trkpt>
<trkpt lat="49.5063109" lon="1.2918061">
<ele>121.0</ele>
<time>2026-09-01T15:11:46.696Z</time>
</trkpt>
<trkpt lat="49.5063077" lon="1.2918726">
<ele>121.0</ele>
<time>2026-09-01T15:11:50.916Z</time>
</trkpt>
<trkpt lat="49.5063101" lon="1.2919355">
<ele>121.0</ele>
<time>2026-09-01T15:11:55.424Z</time>
</trkpt>
<trkpt lat="49.5063043" lon="1.2919932">
<ele>121.0</ele>
<time>2026-09-01T15:11:59.455Z</time>
</trkpt>
<trkpt lat="49.5063023" lon="1.292059">
<ele>121.0</ele>
<time>2026-09-01T15:12:03.556Z</time>
</trkpt>
<trkpt lat="49.5062911" lon="1.2921304">
<ele>119.0</ele>
<time>2026-09-01T15:12:07.935Z</time>
</trkpt>
<trkpt lat="49.5062902" lon="1.2922105">
<ele>119.0</ele>
<time>2026-09-01T15:12:12.344Z</time>
</trkpt>
<trkpt lat="49.5062972" lon="1.2922989">
<ele>119.0</ele>
<time>2026-09-01T15:12:16.584Z</time>
</trkpt>
<trkpt lat="49.5062812" lon="1.2923788">
<ele>116.0</ele>
<time>2026-09-01T15:12:21.082Z</time>
</trkpt>
<trkpt lat="49.5062688" lon="1.2924469">
<ele>116.0</ele>
<time>2026-09-01T15:12:25.078Z</time>
</trkpt>
<trkpt lat="49.506259" lon="1.2925216">
<ele>116.0</ele>
<time>2026-09-01T15:12:29.781Z</time>
</trkpt>
<trkpt lat="49.5062568" lon="1.2925865">
<ele>116.0</ele>
<time>2026-09-01T15:12:33.802Z</time>
</trkpt>
<trkpt lat="49.5062548" lon="1.2926528">
<ele>115.0</ele>
<time>2026-09-01T15:12:37.864Z</time>
</trkpt>
<trkpt lat="49.5062552" lon="1.2927148">
<ele>115.0</ele>
<time>2026-09-01T15:12:41.935Z</time>
</trkpt>
<trkpt lat="49.5062585" lon="1.2927658">
<ele>115.0</ele>
<time>2026-09-01T15:12:46.016Z</time>
</trkpt>
<trkpt lat="49.506257" lon="1.292848">
<ele>115.0</ele>
<time>2026-09-01T15:12:50.623Z</time>
</trkpt>
<trkpt lat="49.5062462" lon="1.2929231">
<ele>116.0</ele>
<time>2026-09-01T15:12:54.744Z</time>
</trkpt>
<trkpt lat="49.5062292" lon="1.2929868">
<ele>116.0</ele>
<time>2026-09-01T15:12:58.756Z</time>
</trkpt>
<trkpt lat="49.506208" lon="1.2930456">
<ele>116.0</ele>
<time>2026-09-01T15:13:02.877Z</time>
</trkpt>
<trkpt lat="49.5061884" lon="1.2931079">
<ele>116.0</ele>
<time>2026-09-01T15:13:06.958Z</time>
</trkpt>
<trkpt lat="49.5061719" lon="1.2931771">
<ele>116.0</ele>
<time>2026-09-01T15:13:11.059Z</time>
</trkpt>
<trkpt lat="49.5061497" lon="1.2932519">
<ele>115.0</ele>
<time>2026-09-01T15:13:15.756Z</time>
</trkpt>
<trkpt lat="49.5061544" lon="1.2933">
<ele>115.0</ele>
<time>2026-09-01T15:13:20.074Z</time>
</trkpt>
<trkpt lat="49.5061433" lon="1.293329">
<ele>115.0</ele>
<time>2026-09-01T15:13:24.078Z</time>
</trkpt>
<trkpt lat="49.5061185" lon="1.2934041">
<ele>115.0</ele>
<time>2026-09-01T15:13:28.396Z</time>
</trkpt>
<trkpt lat="49.506094" lon="1.2934678">
<ele>115.0</ele>
<time>2026-09-01T15:13:32.517Z</time>
</trkpt>
<trkpt lat="49.5060735" lon="1.2935331">
<ele>114.0</ele>
<time>2026-09-01T15:13:36.618Z</time>
</trkpt>
<trkpt lat="49.5060588" lon="1.2935982">
<ele>114.0</ele>
<time>2026-09-01T15:13:40.620Z</time>
</trkpt>
<trkpt lat="49.5060429" lon="1.2936595">
<ele>114.0</ele>
<time>2026-09-01T15:13:44.860Z</time>
</trkpt>
<trkpt lat="49.5060319" lon="1.2937226">
<ele>114.0</ele>
<time>2026-09-01T15:13:49.077Z</time>
</trkpt>
<trkpt lat="49.5060293" lon="1.2937856">
<ele>113.0</ele>
<time>2026-09-01T15:13:53.360Z</time>
</trkpt>
<trkpt lat="49.5060114" lon="1.2938435">
<ele>113.0</ele>
<time>2026-09-01T15:13:57.640Z</time>
</trkpt>
<trkpt lat="49.5059832" lon="1.2939082">
<ele>113.0</ele>
<time>2026-09-01T15:14:01.919Z</time>
</trkpt>
<trkpt lat="49.5059585" lon="1.2939738">
<ele>113.0</ele>
<time>2026-09-01T15:14:06.079Z</time>
</trkpt>
<trkpt lat="49.5059485" lon="1.2940381">
<ele>110.0</ele>
<time>2026-09-01T15:14:10.280Z</time>
</trkpt>
<trkpt lat="49.5059354" lon="1.2941017">
<ele>110.0</ele>
<time>2026-09-01T15:14:14.342Z</time>
</trkpt>
<trkpt lat="49.5059236" lon="1.2941677">
<ele>110.0</ele>
<time>2026-09-01T15:14:18.522Z</time>
</trkpt>
<trkpt lat="49.5059118" lon="1.2942337">
<ele>110.0</ele>
<time>2026-09-01T15:14:22.623Z</time>
</trkpt>
<trkpt lat="49.5059001" lon="1.2942954">
<ele>110.0</ele>
<time>2026-09-01T15:14:26.804Z</time>
</trkpt>
<trkpt lat="49.5058808" lon="1.2943623">
<ele>108.0</ele>
<time>2026-09-01T15:14:31.004Z</time>
</trkpt>
<trkpt lat="49.5058571" lon="1.2944256">
<ele>108.0</ele>
<time>2026-09-01T15:14:35.075Z</time>
</trkpt>
<trkpt lat="49.5058244" lon="1.2944979">
<ele>108.0</ele>
<time>2026-09-01T15:14:39.782Z</time>
</trkpt>
<trkpt lat="49.5058079" lon="1.2945629">
<ele>108.0</ele>
<time>2026-09-01T15:14:43.883Z</time>
</trkpt>
<trkpt lat="49.505791" lon="1.2946331">
<ele>106.0</ele>
<time>2026-09-01T15:14:48.599Z</time>
</trkpt>
<trkpt lat="49.5057774" lon="1.2947052">
<ele>106.0</ele>
<time>2026-09-01T15:14:52.681Z</time>
</trkpt>
<trkpt lat="49.5057565" lon="1.2947848">
<ele>106.0</ele>
<time>2026-09-01T15:14:57.238Z</time>
</trkpt>
<trkpt lat="49.5057383" lon="1.294865">
<ele>107.0</ele>
<time>2026-09-01T15:15:01.756Z</time>
</trkpt>
<trkpt lat="49.5057243" lon="1.2949384">
<ele>107.0</ele>
<time>2026-09-01T15:15:05.798Z</time>
</trkpt>
<trkpt lat="49.5057054" lon="1.2950095">
<ele>107.0</ele>
<time>2026-09-01T15:15:09.939Z</time>
</trkpt>
<trkpt lat="49.5056976" lon="1.295091">
<ele>107.0</ele>
<time>2026-09-01T15:15:14.496Z</time>
</trkpt>
<trkpt lat="49.5056725" lon="1.295159">
<ele>108.0</ele>
<time>2026-09-01T15:15:18.498Z</time>
</trkpt>
<trkpt lat="49.5056403" lon="1.2952174">
<ele>108.0</ele>
<time>2026-09-01T15:15:22.520Z</time>
</trkpt>
<trkpt lat="49.5056199" lon="1.2952833">
<ele>108.0</ele>
<time>2026-09-01T15:15:26.621Z</time>
</trkpt>
<trkpt lat="49.5056053" lon="1.2953509">
<ele>108.0</ele>
<time>2026-09-01T15:15:31.070Z</time>
</trkpt>
<trkpt lat="49.5055965" lon="1.2954056">
<ele>108.0</ele>
<time>2026-09-01T15:15:35.071Z</time>
</trkpt>
<trkpt lat="49.5055732" lon="1.2954518">
<ele>107.0</ele>
<time>2026-09-01T15:15:39.261Z</time>
</trkpt>
<trkpt lat="49.5055652" lon="1.2955171">
<ele>107.0</ele>
<time>2026-09-01T15:15:43.799Z</time>
</trkpt>
<trkpt lat="49.5055608" lon="1.295593">
<ele>107.0</ele>
<time>2026-09-01T15:15:48.337Z</time>
</trkpt>
<trkpt lat="49.5055428" lon="1.295678">
<ele>107.0</ele>
<time>2026-09-01T15:15:52.945Z</time>
</trkpt>
<trkpt lat="49.505507" lon="1.2957178">
<ele>105.0</ele>
<time>2026-09-01T15:15:57.036Z</time>
</trkpt>
<trkpt lat="49.5054746" lon="1.2957813">
<ele>105.0</ele>
<time>2026-09-01T15:16:01.080Z</time>
</trkpt>
<trkpt lat="49.5054413" lon="1.2958262">
<ele>105.0</ele>
<time>2026-09-01T15:16:05.317Z</time>
</trkpt>
<trkpt lat="49.5054068" lon="1.2958753">
<ele>107.0</ele>
<time>2026-09-01T15:16:09.418Z</time>
</trkpt>
<trkpt lat="49.5053655" lon="1.2959297">
<ele>107.0</ele>
<time>2026-09-01T15:16:13.479Z</time>
</trkpt>
<trkpt lat="49.5053245" lon="1.2959934">
<ele>107.0</ele>
<time>2026-09-01T15:16:17.561Z</time>
</trkpt>
<trkpt lat="49.5052752" lon="1.2960596">
<ele>107.0</ele>
<time>2026-09-01T15:16:22.068Z</time>
</trkpt>
<trkpt lat="49.5052363" lon="1.2960936">
<ele>107.0</ele>
<time>2026-09-01T15:16:26.061Z</time>
</trkpt>
<trkpt lat="49.5051973" lon="1.2961676">
<ele>107.0</ele>
<time>2026-09-01T15:16:30.658Z</time>
</trkpt>
<trkpt lat="49.5051736" lon="1.2962318">
<ele>107.0</ele>
<time>2026-09-01T15:16:34.739Z</time>
</trkpt>
<trkpt lat="49.5051517" lon="1.2962819">
<ele>107.0</ele>
<time>2026-09-01T15:16:38.920Z</time>
</trkpt>
<trkpt lat="49.5051277" lon="1.2963346">
<ele>107.0</ele>
<time>2026-09-01T15:16:43.001Z</time>
</trkpt>
<trkpt lat="49.5050866" lon="1.2963954">
<ele>107.0</ele>
<time>2026-09-01T15:16:47.579Z</time>
</trkpt>
<trkpt lat="49.5050659" lon="1.2964222">
<ele>107.0</ele>
<time>2026-09-01T15:16:49.942Z</time>
</trkpt>
<trkpt lat="49.5050369" lon="1.2964698">
<ele>107.0</ele>
<time>2026-09-01T15:16:54.004Z</time>
</trkpt>
<trkpt lat="49.50501" lon="1.2965159">
<ele>107.0</ele>
<time>2026-09-01T15:16:58.323Z</time>
</trkpt>
<trkpt lat="49.5049808" lon="1.29657">
<ele>106.0</ele>
<time>2026-09-01T15:17:02.683Z</time>
</trkpt>
<trkpt lat="49.5049479" lon="1.296626">
<ele>106.0</ele>
<time>2026-09-01T15:17:07.068Z</time>
</trkpt>
<trkpt lat="49.5049289" lon="1.2966954">
<ele>106.0</ele>
<time>2026-09-01T15:17:11.521Z</time>
</trkpt>
<trkpt lat="49.5048814" lon="1.2967482">
<ele>106.0</ele>
<time>2026-09-01T15:17:15.980Z</time>
</trkpt>
<trkpt lat="49.5048304" lon="1.2968024">
<ele>106.0</ele>
<time>2026-09-01T15:17:20.499Z</time>
</trkpt>
<trkpt lat="49.5047957" lon="1.2968385">
<ele>105.0</ele>
<time>2026-09-01T15:17:24.541Z</time>
</trkpt>
<trkpt lat="49.5047601" lon="1.2968929">
<ele>105.0</ele>
<time>2026-09-01T15:17:29.074Z</time>
</trkpt>
<trkpt lat="49.5047157" lon="1.2969448">
<ele>105.0</ele>
<time>2026-09-01T15:17:33.718Z</time>
</trkpt>
<trkpt lat="49.5046701" lon="1.2969924">
<ele>105.0</ele>
<time>2026-09-01T15:17:38.236Z</time>
</trkpt>
<trkpt lat="49.5046271" lon="1.297028">
<ele>105.0</ele>
<time>2026-09-01T15:17:42.259Z</time>
</trkpt>
<trkpt lat="49.5045832" lon="1.2970723">
<ele>105.0</ele>
<time>2026-09-01T15:17:46.837Z</time>
</trkpt>
<trkpt lat="49.5045395" lon="1.2971225">
<ele>105.0</ele>
<time>2026-09-01T15:17:51.376Z</time>
</trkpt>
<trkpt lat="49.5045029" lon="1.2971781">
<ele>105.0</ele>
<time>2026-09-01T15:17:55.924Z</time>
</trkpt>
<trkpt lat="49.5044656" lon="1.2972248">
<ele>105.0</ele>
<time>2026-09-01T15:17:59.996Z</time>
</trkpt>
<trkpt lat="49.5044307" lon="1.2972732">
<ele>105.0</ele>
<time>2026-09-01T15:18:04.118Z</time>
</trkpt>
<trkpt lat="49.5043941" lon="1.2973317">
<ele>105.0</ele>
<time>2026-09-01T15:18:08.776Z</time>
</trkpt>
<trkpt lat="49.5043864" lon="1.2974088">
<ele>104.0</ele>
<time>2026-09-01T15:18:12.838Z</time>
</trkpt>
<trkpt lat="49.5043613" lon="1.297466">
<ele>104.0</ele>
<time>2026-09-01T15:18:16.920Z</time>
</trkpt>
<trkpt lat="49.5043398" lon="1.29755">
<ele>104.0</ele>
<time>2026-09-01T15:18:21.657Z</time>
</trkpt>
</trkseg>
</trk>
</gpx>
